Wetterdaten: Samstag, 27.02.2016
Datum Zeit Temp. A. Feuchte A. Luftdruck Regen Wind Richtung Richtung Sonnenschein ET UV Solar Taupunkt Windchill Windben Empfang
27.02.2016 00:00 0,3 C 76 % 1008,4 hPa 0,0 l/m 13,5 km/h (3 Bft) NO 39 0 min 0,000 mm 0,0 UV-I 0 W/m -3,4 C -5,7 C 19,3 km/h (3 Bft) 100,00 %
27.02.2016 00:02 0,2 C 76 % 1008,5 hPa 0,0 l/m 14,4 km/h (3 Bft) O-NO 58 0 min 0,000 mm 0,0 UV-I 0 W/m -3,5 C -6,4 C 19,3 km/h (3 Bft) 94,74 %
27.02.2016 00:03 0,2 C 76 % 1008,5 hPa 0,0 l/m 16,0 km/h (3 Bft) O-NO 59 0 min 0,000 mm 0,0 UV-I 0 W/m -3,5 C -7,3 C 19,3 km/h (3 Bft) 88,46 %
27.02.2016 00:04 0,2 C 76 % 1008,5 hPa 0,0 l/m 11,6 km/h (2 Bft) O-NO 59 0 min 0,000 mm 0,0 UV-I 0 W/m -3,5 C -4,5 C 14,5 km/h (3 Bft) 100,00 %
27.02.2016 00:05 0,2 C 76 % 1008,5 hPa 0,0 l/m 11,1 km/h (2 Bft) NO 39 0 min 0,000 mm 0,0 UV-I 0 W/m -3,5 C -4,1 C 14,5 km/h (3 Bft) 96,30 %
27.02.2016 00:06 0,2 C 76 % 1008,5 hPa 0,0 l/m 13,7 km/h (3 Bft) NO 50 0 min 0,000 mm 0,0 UV-I 0 W/m -3,5 C -5,9 C 19,3 km/h (3 Bft) 96,55 %
27.02.2016 00:07 0,2 C 76 % 1008,5 hPa 0,0 l/m 14,9 km/h (3 Bft) O-NO 64 0 min 0,000 mm 0,0 UV-I 0 W/m -3,5 C -6,7 C 22,5 km/h (4 Bft) 96,15 %
27.02.2016 00:08 0,2 C 76 % 1008,5 hPa 0,0 l/m 13,8 km/h (3 Bft) O-NO 67 0 min 0,000 mm 0,0 UV-I 0 W/m -3,5 C -6,0 C 17,7 km/h (3 Bft) 93,33 %
27.02.2016 00:09 0,2 C 76 % 1008,5 hPa 0,0 l/m 8,5 km/h (2 Bft) O-NO 76 0 min 0,000 mm 0,0 UV-I 0 W/m -3,5 C -1,9 C 14,5 km/h (3 Bft) 100,00 %
27.02.2016 00:10 0,2 C 76 % 1008,5 hPa 0,0 l/m 12,4 km/h (3 Bft) O-NO 60 0 min 0,000 mm 0,0 UV-I 0 W/m -3,5 C -5,1 C 20,9 km/h (4 Bft) 95,65 %
27.02.2016 00:11 0,2 C 77 % 1008,4 hPa 0,0 l/m 21,8 km/h (4 Bft) O-NO 63 0 min 0,000 mm 0,0 UV-I 0 W/m -3,3 C -10,2 C 27,4 km/h (4 Bft) 100,00 %
27.02.2016 00:12 0,2 C 76 % 1008,4 hPa 0,0 l/m 17,0 km/h (3 Bft) O 83 0 min 0,000 mm 0,0 UV-I 0 W/m -3,5 C -7,9 C 22,5 km/h (4 Bft) 91,30 %
27.02.2016 00:13 0,2 C 76 % 1008,4 hPa 0,0 l/m 9,5 km/h (2 Bft) NO 53 0 min 0,000 mm 0,0 UV-I 0 W/m -3,5 C -2,8 C 16,1 km/h (3 Bft) 100,00 %
27.02.2016 00:14 0,2 C 76 % 1008,4 hPa 0,0 l/m 12,8 km/h (3 Bft) O-NO 71 0 min 0,000 mm 0,0 UV-I 0 W/m -3,5 C -5,3 C 17,7 km/h (3 Bft) 96,15 %
27.02.2016 00:15 0,2 C 77 % 1008,4 hPa 0,0 l/m 11,9 km/h (2 Bft) O-NO 76 0 min 0,000 mm 0,0 UV-I 0 W/m -3,3 C -4,7 C 17,7 km/h (3 Bft) 95,83 %
27.02.2016 00:16 0,2 C 77 % 1008,4 hPa 0,0 l/m 15,0 km/h (3 Bft) NO 49 0 min 0,000 mm 0,0 UV-I 0 W/m -3,3 C -6,7 C 22,5 km/h (4 Bft) 100,00 %
27.02.2016 00:17 0,2 C 77 % 1008,4 hPa 0,0 l/m 15,3 km/h (3 Bft) O-NO 67 0 min 0,000 mm 0,0 UV-I 0 W/m -3,3 C -6,9 C 20,9 km/h (4 Bft) 95,83 %
27.02.2016 00:18 0,2 C 77 % 1008,4 hPa 0,0 l/m 11,4 km/h (2 Bft) O-NO 71 0 min 0,000 mm 0,0 UV-I 0 W/m -3,3 C -4,3 C 17,7 km/h (3 Bft) 100,00 %
27.02.2016 00:19 0,1 C 77 % 1008,4 hPa 0,0 l/m 12,7 km/h (3 Bft) O-NO 75 0 min 0,000 mm 0,0 UV-I 0 W/m -3,4 C -5,4 C 19,3 km/h (3 Bft) 95,83 %
27.02.2016 00:20 0,1 C 77 % 1008,4 hPa 0,0 l/m 15,4 km/h (3 Bft) O-NO 67 0 min 0,000 mm 0,0 UV-I 0 W/m -3,4 C -7,1 C 20,9 km/h (4 Bft) 100,00 %
27.02.2016 00:21 0,1 C 77 % 1008,3 hPa 0,0 l/m 15,8 km/h (3 Bft) O-NO 77 0 min 0,000 mm 0,0 UV-I 0 W/m -3,4 C -7,3 C 19,3 km/h (3 Bft) 95,83 %
27.02.2016 00:22 0,1 C 77 % 1008,3 hPa 0,0 l/m 14,3 km/h (3 Bft) O-NO 57 0 min 0,000 mm 0,0 UV-I 0 W/m -3,4 C -6,4 C 19,3 km/h (3 Bft) 96,15 %
27.02.2016 00:23 0,1 C 77 % 1008,3 hPa 0,0 l/m 14,8 km/h (3 Bft) O-NO 71 0 min 0,000 mm 0,0 UV-I 0 W/m -3,4 C -6,7 C 19,3 km/h (3 Bft) 100,00 %
27.02.2016 00:24 0,1 C 77 % 1008,3 hPa 0,0 l/m 14,6 km/h (3 Bft) O-NO 78 0 min 0,000 mm 0,0 UV-I 0 W/m -3,4 C -6,6 C 20,9 km/h (4 Bft) 96,65 %
27.02.2016 00:25 0,1 C 77 % 1008,3 hPa 0,0 l/m 13,1 km/h (3 Bft) NO 41 0 min 0,000 mm 0,0 UV-I 0 W/m -3,4 C -5,7 C 17,7 km/h (3 Bft) 97,56 %
27.02.2016 00:26 0,1 C 77 % 1008,3 hPa 0,0 l/m 12,2 km/h (2 Bft) NO 50 0 min 0,000 mm 0,0 UV-I 0 W/m -3,4 C -5,0 C 14,5 km/h (3 Bft) 92,31 %
27.02.2016 00:27 0,1 C 77 % 1008,3 hPa 0,0 l/m 13,0 km/h (3 Bft) O-NO 63 0 min 0,000 mm 0,0 UV-I 0 W/m -3,4 C -5,6 C 17,7 km/h (3 Bft) 100,00 %
27.02.2016 00:28 0,1 C 77 % 1008,3 hPa 0,0 l/m 13,4 km/h (3 Bft) NO 54 0 min 0,000 mm 0,0 UV-I 0 W/m -3,4 C -5,9 C 17,7 km/h (3 Bft) 100,00 %
27.02.2016 00:29 0,1 C 76 % 1008,3 hPa 0,0 l/m 19,2 km/h (3 Bft) O-NO 66 0 min 0,000 mm 0,0 UV-I 0 W/m -3,6 C -9,1 C 25,7 km/h (4 Bft) 100,00 %
27.02.2016 00:30 0,1 C 77 % 1008,3 hPa 0,0 l/m 17,5 km/h (3 Bft) O-NO 69 0 min 0,000 mm 0,0 UV-I 0 W/m -3,4 C -8,3 C 25,7 km/h (4 Bft) 100,00 %
27.02.2016 00:31 0,1 C 77 % 1008,3 hPa 0,0 l/m 18,5 km/h (3 Bft) O-NO 76 0 min 0,000 mm 0,0 UV-I 0 W/m -3,4 C -8,8 C 22,5 km/h (4 Bft) 96,55 %
27.02.2016 00:32 0,1 C 77 % 1008,3 hPa 0,0 l/m 17,8 km/h (3 Bft) O-NO 61 0 min 0,000 mm 0,0 UV-I 0 W/m -3,4 C -8,4 C 24,1 km/h (4 Bft) 100,00 %
27.02.2016 00:33 0,1 C 77 % 1008,3 hPa 0,0 l/m 13,9 km/h (3 Bft) O-NO 59 0 min 0,000 mm 0,0 UV-I 0 W/m -3,4 C -6,2 C 17,7 km/h (3 Bft) 100,00 %
27.02.2016 00:34 0,1 C 77 % 1008,3 hPa 0,0 l/m 15,1 km/h (3 Bft) O-NO 64 0 min 0,000 mm 0,0 UV-I 0 W/m -3,4 C -6,9 C 20,9 km/h (4 Bft) 100,00 %
27.02.2016 00:35 0,1 C 77 % 1008,3 hPa 0,0 l/m 16,7 km/h (3 Bft) O-NO 78 0 min 0,000 mm 0,0 UV-I 0 W/m -3,4 C -7,8 C 20,9 km/h (4 Bft) 100,00 %
27.02.2016 00:36 0,1 C 77 % 1008,3 hPa 0,0 l/m 18,3 km/h (3 Bft) O-NO 71 0 min 0,000 mm 0,0 UV-I 0 W/m -3,4 C -8,7 C 22,5 km/h (4 Bft) 100,00 %
27.02.2016 00:37 0,1 C 77 % 1008,3 hPa 0,0 l/m 13,6 km/h (3 Bft) O-NO 74 0 min 0,000 mm 0,0 UV-I 0 W/m -3,4 C -6,0 C 17,7 km/h (3 Bft) 100,00 %
27.02.2016 00:38 0,1 C 77 % 1008,3 hPa 0,0 l/m 14,9 km/h (3 Bft) O 79 0 min 0,000 mm 0,0 UV-I 0 W/m -3,4 C -6,8 C 17,7 km/h (3 Bft) 100,00 %
27.02.2016 00:39 0,1 C 77 % 1008,4 hPa 0,0 l/m 16,6 km/h (3 Bft) O-NO 70 0 min 0,000 mm 0,0 UV-I 0 W/m -3,4 C -7,8 C 20,9 km/h (4 Bft) 94,12 %
27.02.2016 00:40 0,1 C 77 % 1008,4 hPa 0,0 l/m 17,9 km/h (3 Bft) O-NO 64 0 min 0,000 mm 0,0 UV-I 0 W/m -3,4 C -8,5 C 20,9 km/h (4 Bft) 100,00 %
27.02.2016 00:41 0,1 C 77 % 1008,4 hPa 0,0 l/m 11,0 km/h (2 Bft) O-NO 63 0 min 0,000 mm 0,0 UV-I 0 W/m -3,4 C -4,1 C 16,1 km/h (3 Bft) 95,65 %
27.02.2016 00:42 0,1 C 77 % 1008,4 hPa 0,0 l/m 12,3 km/h (3 Bft) NO 47 0 min 0,000 mm 0,0 UV-I 0 W/m -3,4 C -5,1 C 20,9 km/h (4 Bft) 86,67 %
27.02.2016 00:43 0,0 C 77 % 1008,3 hPa 0,0 l/m 18,7 km/h (3 Bft) O-NO 69 0 min 0,000 mm 0,0 UV-I 0 W/m -3,5 C -9,0 C 24,1 km/h (4 Bft) 100,00 %
27.02.2016 00:44 0,0 C 77 % 1008,3 hPa 0,0 l/m 17,7 km/h (3 Bft) NO 51 0 min 0,000 mm 0,0 UV-I 0 W/m -3,5 C -8,5 C 22,5 km/h (4 Bft) 92,59 %
27.02.2016 00:45 0,1 C 77 % 1008,3 hPa 0,0 l/m 20,2 km/h (4 Bft) O-NO 69 0 min 0,000 mm 0,0 UV-I 0 W/m -3,4 C -9,6 C 29,0 km/h (5 Bft) 100,00 %
27.02.2016 00:46 0,1 C 77 % 1008,3 hPa 0,0 l/m 20,5 km/h (4 Bft) O-NO 73 0 min 0,000 mm 0,0 UV-I 0 W/m -3,4 C -9,7 C 29,0 km/h (5 Bft) 100,00 %
27.02.2016 00:47 0,1 C 77 % 1008,3 hPa 0,0 l/m 22,1 km/h (4 Bft) O-NO 57 0 min 0,000 mm 0,0 UV-I 0 W/m -3,4 C -10,4 C 32,2 km/h (5 Bft) 100,00 %
27.02.2016 00:48 0,1 C 77 % 1008,3 hPa 0,0 l/m 20,0 km/h (4 Bft) O-NO 76 0 min 0,000 mm 0,0 UV-I 0 W/m -3,4 C -9,5 C 24,1 km/h (4 Bft) 100,00 %
27.02.2016 00:49 0,1 C 77 % 1008,3 hPa 0,0 l/m 19,6 km/h (3 Bft) O-NO 66 0 min 0,000 mm 0,0 UV-I 0 W/m -3,4 C -9,3 C 22,5 km/h (4 Bft) 100,00 %
27.02.2016 00:50 0,1 C 77 % 1008,3 hPa 0,0 l/m 17,6 km/h (3 Bft) O 84 0 min 0,000 mm 0,0 UV-I 0 W/m -3,4 C -8,3 C 24,1 km/h (4 Bft) 100,00 %
27.02.2016 00:51 0,1 C 77 % 1008,3 hPa 0,0 l/m 18,0 km/h (3 Bft) O-NO 65 0 min 0,000 mm 0,0 UV-I 0 W/m -3,4 C -8,5 C 20,9 km/h (4 Bft) 100,00 %
27.02.2016 00:52 0,1 C 77 % 1008,2 hPa 0,0 l/m 18,8 km/h (3 Bft) O-NO 75 0 min 0,000 mm 0,0 UV-I 0 W/m -3,4 C -8,9 C 22,5 km/h (4 Bft) 100,00 %
27.02.2016 00:53 0,1 C 77 % 1008,2 hPa 0,0 l/m 17,5 km/h (3 Bft) O-NO 59 0 min 0,000 mm 0,0 UV-I 0 W/m -3,4 C -8,3 C 24,1 km/h (4 Bft) 100,00 %
27.02.2016 00:54 0,1 C 77 % 1008,2 hPa 0,0 l/m 18,7 km/h (3 Bft) O-NO 78 0 min 0,000 mm 0,0 UV-I 0 W/m -3,4 C -8,9 C 24,1 km/h (4 Bft) 100,00 %
27.02.2016 00:55 0,1 C 77 % 1008,2 hPa 0,0 l/m 18,3 km/h (3 Bft) O-NO 69 0 min 0,000 mm 0,0 UV-I 0 W/m -3,4 C -8,7 C 22,5 km/h (4 Bft) 100,00 %
27.02.2016 00:56 0,1 C 77 % 1008,2 hPa 0,0 l/m 16,0 km/h (3 Bft) NO 44 0 min 0,000 mm 0,0 UV-I 0 W/m -3,4 C -7,4 C 22,5 km/h (4 Bft) 94,12 %
27.02.2016 00:57 0,1 C 77 % 1008,2 hPa 0,0 l/m 19,3 km/h (3 Bft) O-NO 66 0 min 0,000 mm 0,0 UV-I 0 W/m -3,4 C -9,2 C 24,1 km/h (4 Bft) 100,00 %
27.02.2016 00:58 0,1 C 77 % 1008,2 hPa 0,0 l/m 21,2 km/h (4 Bft) N-NO 32 0 min 0,000 mm 0,0 UV-I 0 W/m -3,4 C -10,0 C 25,7 km/h (4 Bft) 100,00 %
27.02.2016 00:59 0,1 C 77 % 1008,2 hPa 0,0 l/m 17,4 km/h (3 Bft) O-NO 78 0 min 0,000 mm 0,0 UV-I 0 W/m -3,4 C -8,2 C 22,5 km/h (4 Bft) 91,67 %
27.02.2016 01:00 0,1 C 77 % 1008,2 hPa 0,0 l/m 17,0 km/h (3 Bft) NO 51 0 min 0,025 mm 0,0 UV-I 0 W/m -3,4 C -8,0 C 27,4 km/h (4 Bft) 100,00 %
27.02.2016 01:01 0,1 C 76 % 1008,2 hPa 0,0 l/m 16,4 km/h (3 Bft) O-NO 67 0 min 0,000 mm 0,0 UV-I 0 W/m -3,6 C -7,7 C 17,7 km/h (3 Bft) 100,00 %
27.02.2016 01:02 0,1 C 77 % 1008,1 hPa 0,0 l/m 14,6 km/h (3 Bft) O-NO 72 0 min 0,000 mm 0,0 UV-I 0 W/m -3,4 C -6,6 C 20,9 km/h (4 Bft) 100,00 %
27.02.2016 01:03 0,1 C 77 % 1008,1 hPa 0,0 l/m 15,1 km/h (3 Bft) O-NO 70 0 min 0,000 mm 0,0 UV-I 0 W/m -3,4 C -6,9 C 22,5 km/h (4 Bft) 95,83 %
27.02.2016 01:04 0,1 C 77 % 1008,1 hPa 0,0 l/m 16,7 km/h (3 Bft) O-NO 61 0 min 0,000 mm 0,0 UV-I 0 W/m -3,4 C -7,8 C 20,9 km/h (4 Bft) 100,00 %
27.02.2016 01:05 0,1 C 77 % 1008,1 hPa 0,0 l/m 17,1 km/h (3 Bft) O-NO 73 0 min 0,000 mm 0,0 UV-I 0 W/m -3,4 C -8,1 C 22,5 km/h (4 Bft) 100,00 %
27.02.2016 01:06 0,1 C 77 % 1008,1 hPa 0,0 l/m 16,0 km/h (3 Bft) O-NO 58 0 min 0,000 mm 0,0 UV-I 0 W/m -3,4 C -7,4 C 22,5 km/h (4 Bft) 100,00 %
27.02.2016 01:07 0,1 C 77 % 1008,1 hPa 0,0 l/m 19,9 km/h (4 Bft) O-NO 63 0 min 0,000 mm 0,0 UV-I 0 W/m -3,4 C -9,5 C 27,4 km/h (4 Bft) 100,00 %
27.02.2016 01:08 0,1 C 77 % 1008,1 hPa 0,0 l/m 18,3 km/h (3 Bft) O 80 0 min 0,000 mm 0,0 UV-I 0 W/m -3,4 C -8,7 C 24,1 km/h (4 Bft) 100,00 %
27.02.2016 01:09 0,1 C 77 % 1008,2 hPa 0,0 l/m 14,2 km/h (3 Bft) O-NO 66 0 min 0,000 mm 0,0 UV-I 0 W/m -3,4 C -6,4 C 17,7 km/h (3 Bft) 96,15 %
27.02.2016 01:10 0,1 C 77 % 1008,1 hPa 0,0 l/m 20,1 km/h (4 Bft) O-NO 64 0 min 0,000 mm 0,0 UV-I 0 W/m -3,4 C -9,5 C 25,7 km/h (4 Bft) 100,00 %
27.02.2016 01:11 0,1 C 77 % 1008,1 hPa 0,0 l/m 20,5 km/h (4 Bft) NO 53 0 min 0,000 mm 0,0 UV-I 0 W/m -3,4 C -9,7 C 29,0 km/h (5 Bft) 100,00 %
27.02.2016 01:12 0,1 C 77 % 1008,1 hPa 0,0 l/m 19,5 km/h (3 Bft) O-NO 60 0 min 0,000 mm 0,0 UV-I 0 W/m -3,4 C -9,3 C 27,4 km/h (4 Bft) 100,00 %
27.02.2016 01:13 0,1 C 77 % 1008,1 hPa 0,0 l/m 16,7 km/h (3 Bft) O-NO 58 0 min 0,000 mm 0,0 UV-I 0 W/m -3,4 C -7,8 C 22,5 km/h (4 Bft) 100,00 %
27.02.2016 01:14 0,1 C 76 % 1008,1 hPa 0,0 l/m 14,2 km/h (3 Bft) NO 50 0 min 0,000 mm 0,0 UV-I 0 W/m -3,6 C -6,4 C 20,9 km/h (4 Bft) 100,00 %
27.02.2016 01:15 0,1 C 77 % 1008,1 hPa 0,0 l/m 14,8 km/h (3 Bft) NO 50 0 min 0,000 mm 0,0 UV-I 0 W/m -3,4 C -6,7 C 19,3 km/h (3 Bft) 95,65 %
27.02.2016 01:16 0,1 C 77 % 1008,0 hPa 0,0 l/m 16,5 km/h (3 Bft) NO 46 0 min 0,000 mm 0,0 UV-I 0 W/m -3,4 C -7,7 C 20,9 km/h (4 Bft) 100,00 %
27.02.2016 01:17 0,1 C 77 % 1008,0 hPa 0,0 l/m 15,3 km/h (3 Bft) O-NO 57 0 min 0,000 mm 0,0 UV-I 0 W/m -3,4 C -7,0 C 20,9 km/h (4 Bft) 100,00 %
27.02.2016 01:18 0,1 C 77 % 1008,0 hPa 0,0 l/m 16,4 km/h (3 Bft) NO 41 0 min 0,000 mm 0,0 UV-I 0 W/m -3,4 C -7,7 C 20,9 km/h (4 Bft) 100,00 %
27.02.2016 01:19 0,1 C 77 % 1008,0 hPa 0,0 l/m 15,0 km/h (3 Bft) NO 44 0 min 0,000 mm 0,0 UV-I 0 W/m -3,4 C -6,9 C 19,3 km/h (3 Bft) 100,00 %
27.02.2016 01:20 0,1 C 77 % 1007,9 hPa 0,0 l/m 17,9 km/h (3 Bft) O-NO 68 0 min 0,000 mm 0,0 UV-I 0 W/m -3,4 C -8,5 C 22,5 km/h (4 Bft) 100,00 %
27.02.2016 01:21 0,0 C 77 % 1007,9 hPa 0,0 l/m 17,9 km/h (3 Bft) NO 38 0 min 0,000 mm 0,0 UV-I 0 W/m -3,5 C -8,6 C 24,1 km/h (4 Bft) 100,00 %
27.02.2016 01:22 0,0 C 77 % 1007,9 hPa 0,0 l/m 17,0 km/h (3 Bft) O-NO 70 0 min 0,000 mm 0,0 UV-I 0 W/m -3,5 C -8,1 C 22,5 km/h (4 Bft) 100,00 %
27.02.2016 01:23 0,0 C 77 % 1007,9 hPa 0,0 l/m 15,9 km/h (3 Bft) O-NO 67 0 min 0,000 mm 0,0 UV-I 0 W/m -3,5 C -7,5 C 22,5 km/h (4 Bft) 100,00 %
27.02.2016 01:24 0,0 C 77 % 1007,9 hPa 0,0 l/m 16,5 km/h (3 Bft) O-NO 66 0 min 0,000 mm 0,0 UV-I 0 W/m -3,5 C -7,8 C 20,9 km/h (4 Bft) 100,00 %
27.02.2016 01:25 0,0 C 77 % 1008,0 hPa 0,0 l/m 18,0 km/h (3 Bft) O-NO 61 0 min 0,000 mm 0,0 UV-I 0 W/m -3,5 C -8,7 C 27,4 km/h (4 Bft) 100,00 %
27.02.2016 01:26 0,0 C 77 % 1008,0 hPa 0,0 l/m 19,6 km/h (3 Bft) NO 54 0 min 0,000 mm 0,0 UV-I 0 W/m -3,5 C -9,4 C 24,1 km/h (4 Bft) 100,00 %
27.02.2016 01:27 0,0 C 77 % 1008,0 hPa 0,0 l/m 20,4 km/h (4 Bft) O-NO 78 0 min 0,000 mm 0,0 UV-I 0 W/m -3,5 C -9,8 C 29,0 km/h (5 Bft) 98,36 %
27.02.2016 01:28 0,0 C 77 % 1008,0 hPa 0,0 l/m 14,8 km/h (3 Bft) NO 45 0 min 0,000 mm 0,0 UV-I 0 W/m -3,5 C -6,9 C 20,9 km/h (4 Bft) 100,00 %
27.02.2016 01:29 0,0 C 77 % 1008,0 hPa 0,0 l/m 16,4 km/h (3 Bft) NO 55 0 min 0,000 mm 0,0 UV-I 0 W/m -3,5 C -7,8 C 19,3 km/h (3 Bft) 100,00 %
27.02.2016 01:30 0,0 C 77 % 1008,0 hPa 0,0 l/m 15,4 km/h (3 Bft) O-NO 69 0 min 0,000 mm 0,0 UV-I 0 W/m -3,5 C -7,2 C 24,1 km/h (4 Bft) 91,30 %
27.02.2016 01:31 0,0 C 77 % 1008,0 hPa 0,0 l/m 16,3 km/h (3 Bft) NO 47 0 min 0,000 mm 0,0 UV-I 0 W/m -3,5 C -7,7 C 19,3 km/h (3 Bft) 100,00 %
27.02.2016 01:32 -0,1 C 77 % 1008,0 hPa 0,0 l/m 16,9 km/h (3 Bft) NO 42 0 min 0,000 mm 0,0 UV-I 0 W/m -3,6 C -8,2 C 19,3 km/h (3 Bft) 100,00 %
27.02.2016 01:33 -0,1 C 77 % 1008,0 hPa 0,0 l/m 15,5 km/h (3 Bft) NO 51 0 min 0,000 mm 0,0 UV-I 0 W/m -3,6 C -7,4 C 20,9 km/h (4 Bft) 100,00 %
27.02.2016 01:34 -0,1 C 77 % 1008,0 hPa 0,0 l/m 14,8 km/h (3 Bft) O-NO 58 0 min 0,000 mm 0,0 UV-I 0 W/m -3,6 C -7,0 C 17,7 km/h (3 Bft) 100,00 %
27.02.2016 01:35 -0,1 C 77 % 1008,0 hPa 0,0 l/m 16,3 km/h (3 Bft) N-NO 33 0 min 0,000 mm 0,0 UV-I 0 W/m -3,6 C -7,9 C 20,9 km/h (4 Bft) 100,00 %
27.02.2016 01:36 -0,1 C 77 % 1008,0 hPa 0,0 l/m 15,7 km/h (3 Bft) O-NO 66 0 min 0,000 mm 0,0 UV-I 0 W/m -3,6 C -7,5 C 22,5 km/h (4 Bft) 100,00 %
27.02.2016 01:37 -0,1 C 77 % 1008,0 hPa 0,0 l/m 17,4 km/h (3 Bft) O-NO 57 0 min 0,000 mm 0,0 UV-I 0 W/m -3,6 C -8,5 C 20,9 km/h (4 Bft) 100,00 %
27.02.2016 01:38 -0,1 C 77 % 1008,0 hPa 0,0 l/m 16,5 km/h (3 Bft) O-NO 61 0 min 0,000 mm 0,0 UV-I 0 W/m -3,6 C -8,0 C 19,3 km/h (3 Bft) 100,00 %
27.02.2016 01:39 -0,1 C 77 % 1008,0 hPa 0,0 l/m 14,7 km/h (3 Bft) NO 51 0 min 0,000 mm 0,0 UV-I 0 W/m -3,6 C -6,9 C 17,7 km/h (3 Bft) 100,00 %
27.02.2016 01:40 -0,1 C 77 % 1008,0 hPa 0,0 l/m 13,2 km/h (3 Bft) O-NO 63 0 min 0,000 mm 0,0 UV-I 0 W/m -3,6 C -6,0 C 17,7 km/h (3 Bft) 96,15 %
27.02.2016 01:41 -0,1 C 77 % 1008,0 hPa 0,0 l/m 12,3 km/h (3 Bft) N-NO 32 0 min 0,000 mm 0,0 UV-I 0 W/m -3,6 C -5,3 C 17,7 km/h (3 Bft) 100,00 %
27.02.2016 01:42 -0,1 C 77 % 1008,0 hPa 0,0 l/m 15,7 km/h (3 Bft) NO 51 0 min 0,000 mm 0,0 UV-I 0 W/m -3,6 C -7,5 C 20,9 km/h (4 Bft) 96,15 %
27.02.2016 01:43 -0,1 C 77 % 1008,0 hPa 0,0 l/m 14,0 km/h (3 Bft) O-NO 70 0 min 0,000 mm 0,0 UV-I 0 W/m -3,6 C -6,5 C 17,7 km/h (3 Bft) 100,00 %
27.02.2016 01:44 -0,1 C 77 % 1008,0 hPa 0,0 l/m 13,3 km/h (3 Bft) O-NO 59 0 min 0,000 mm 0,0 UV-I 0 W/m -3,6 C -6,0 C 19,3 km/h (3 Bft) 95,65 %
27.02.2016 01:45 -0,1 C 77 % 1008,0 hPa 0,0 l/m 15,2 km/h (3 Bft) O-NO 61 0 min 0,000 mm 0,0 UV-I 0 W/m -3,6 C -7,2 C 19,3 km/h (3 Bft) 100,00 %
27.02.2016 01:46 -0,1 C 77 % 1008,1 hPa 0,0 l/m 13,3 km/h (3 Bft) NO 40 0 min 0,000 mm 0,0 UV-I 0 W/m -3,6 C -6,0 C 17,7 km/h (3 Bft) 95,65 %
27.02.2016 01:47 -0,1 C 77 % 1008,0 hPa 0,0 l/m 12,3 km/h (3 Bft) NO 38 0 min 0,000 mm 0,0 UV-I 0 W/m -3,6 C -5,3 C 16,1 km/h (3 Bft) 95,83 %
27.02.2016 01:48 -0,1 C 77 % 1008,0 hPa 0,0 l/m 15,3 km/h (3 Bft) O-NO 64 0 min 0,000 mm 0,0 UV-I 0 W/m -3,6 C -7,3 C 19,3 km/h (3 Bft) 100,00 %
27.02.2016 01:49 -0,1 C 77 % 1008,0 hPa 0,0 l/m 11,9 km/h (2 Bft) O-NO 76 0 min 0,000 mm 0,0 UV-I 0 W/m -3,6 C -5,0 C 17,7 km/h (3 Bft) 100,00 %
27.02.2016 01:50 -0,2 C 77 % 1008,0 hPa 0,0 l/m 13,1 km/h (3 Bft) O 86 0 min 0,000 mm 0,0 UV-I 0 W/m -3,7 C -6,0 C 16,1 km/h (3 Bft) 100,00 %
27.02.2016 01:51 -0,2 C 77 % 1008,0 hPa 0,0 l/m 14,4 km/h (3 Bft) NO 41 0 min 0,000 mm 0,0 UV-I 0 W/m -3,7 C -6,9 C 17,7 km/h (3 Bft) 100,00 %
27.02.2016 01:52 -0,2 C 77 % 1008,0 hPa 0,0 l/m 13,3 km/h (3 Bft) O-NO 69 0 min 0,000 mm 0,0 UV-I 0 W/m -3,7 C -6,1 C 16,1 km/h (3 Bft) 100,00 %
27.02.2016 01:53 -0,2 C 78 % 1008,0 hPa 0,0 l/m 8,6 km/h (2 Bft) NO 50 0 min 0,000 mm 0,0 UV-I 0 W/m -3,6 C -2,4 C 12,9 km/h (3 Bft) 100,00 %
27.02.2016 01:54 -0,2 C 78 % 1008,0 hPa 0,0 l/m 15,0 km/h (3 Bft) NO 46 0 min 0,000 mm 0,0 UV-I 0 W/m -3,6 C -7,2 C 17,7 km/h (3 Bft) 95,83 %
27.02.2016 01:55 -0,2 C 78 % 1007,9 hPa 0,0 l/m 14,4 km/h (3 Bft) NO 49 0 min 0,000 mm 0,0 UV-I 0 W/m -3,6 C -6,9 C 17,7 km/h (3 Bft) 100,00 %
27.02.2016 01:56 -0,2 C 78 % 1007,9 hPa 0,0 l/m 14,5 km/h (3 Bft) NO 42 0 min 0,000 mm 0,0 UV-I 0 W/m -3,6 C -6,9 C 17,7 km/h (3 Bft) 95,83 %
27.02.2016 01:57 -0,2 C 77 % 1007,9 hPa 0,0 l/m 13,1 km/h (3 Bft) O-NO 61 0 min 0,000 mm 0,0 UV-I 0 W/m -3,7 C -6,0 C 19,3 km/h (3 Bft) 95,65 %
27.02.2016 01:58 -0,2 C 78 % 1007,9 hPa 0,0 l/m 10,1 km/h (2 Bft) NO 55 0 min 0,000 mm 0,0 UV-I 0 W/m -3,6 C -3,8 C 16,1 km/h (3 Bft) 95,83 %
27.02.2016 01:59 -0,2 C 78 % 1007,9 hPa 0,0 l/m 11,8 km/h (2 Bft) NO 55 0 min 0,000 mm 0,0 UV-I 0 W/m -3,6 C -5,1 C 16,1 km/h (3 Bft) 91,30 %
27.02.2016 02:00 -0,2 C 78 % 1007,9 hPa 0,0 l/m 14,6 km/h (3 Bft) O-NO 59 0 min 0,026 mm 0,0 UV-I 0 W/m -3,6 C -7,0 C 17,7 km/h (3 Bft) 100,00 %
27.02.2016 02:01 -0,2 C 78 % 1007,9 hPa 0,0 l/m 11,5 km/h (2 Bft) O-NO 57 0 min 0,000 mm 0,0 UV-I 0 W/m -3,6 C -4,9 C 16,1 km/h (3 Bft) 95,65 %
27.02.2016 02:02 -0,2 C 78 % 1007,8 hPa 0,0 l/m 11,5 km/h (2 Bft) O-NO 57 0 min 0,000 mm 0,0 UV-I 0 W/m -3,6 C -4,9 C 14,5 km/h (3 Bft) 100,00 %
27.02.2016 02:03 -0,2 C 78 % 1007,9 hPa 0,0 l/m 15,7 km/h (3 Bft) O-NO 63 0 min 0,000 mm 0,0 UV-I 0 W/m -3,6 C -7,6 C 20,9 km/h (4 Bft) 95,65 %
27.02.2016 02:04 -0,3 C 78 % 1007,8 hPa 0,0 l/m 12,5 km/h (3 Bft) O-NO 63 0 min 0,000 mm 0,0 UV-I 0 W/m -3,7 C -5,7 C 16,1 km/h (3 Bft) 100,00 %
27.02.2016 02:05 -0,2 C 78 % 1007,8 hPa 0,0 l/m 12,7 km/h (3 Bft) O-NO 63 0 min 0,000 mm 0,0 UV-I 0 W/m -3,6 C -5,7 C 17,7 km/h (3 Bft) 95,83 %
27.02.2016 02:06 -0,3 C 78 % 1007,7 hPa 0,0 l/m 12,0 km/h (2 Bft) O-NO 64 0 min 0,000 mm 0,0 UV-I 0 W/m -3,7 C -5,3 C 16,1 km/h (3 Bft) 100,00 %
27.02.2016 02:07 -0,3 C 78 % 1007,8 hPa 0,0 l/m 15,8 km/h (3 Bft) NO 42 0 min 0,000 mm 0,0 UV-I 0 W/m -3,7 C -7,8 C 19,3 km/h (3 Bft) 95,83 %
27.02.2016 02:08 -0,3 C 78 % 1007,8 hPa 0,0 l/m 15,2 km/h (3 Bft) O-NO 61 0 min 0,000 mm 0,0 UV-I 0 W/m -3,7 C -7,5 C 20,9 km/h (4 Bft) 95,65 %
27.02.2016 02:09 -0,3 C 78 % 1007,7 hPa 0,0 l/m 12,5 km/h (3 Bft) O-NO 74 0 min 0,000 mm 0,0 UV-I 0 W/m -3,7 C -5,7 C 17,7 km/h (3 Bft) 100,00 %
27.02.2016 02:10 -0,3 C 78 % 1007,7 hPa 0,0 l/m 13,3 km/h (3 Bft) O-NO 63 0 min 0,000 mm 0,0 UV-I 0 W/m -3,7 C -6,3 C 17,7 km/h (3 Bft) 95,65 %
27.02.2016 02:11 -0,3 C 78 % 1007,7 hPa 0,0 l/m 11,7 km/h (2 Bft) O-NO 71 0 min 0,000 mm 0,0 UV-I 0 W/m -3,7 C -5,1 C 19,3 km/h (3 Bft) 95,83 %
27.02.2016 02:12 -0,3 C 78 % 1007,8 hPa 0,0 l/m 13,9 km/h (3 Bft) O-NO 64 0 min 0,000 mm 0,0 UV-I 0 W/m -3,7 C -6,7 C 19,3 km/h (3 Bft) 95,65 %
27.02.2016 02:13 -0,3 C 78 % 1007,7 hPa 0,0 l/m 15,0 km/h (3 Bft) O-NO 68 0 min 0,000 mm 0,0 UV-I 0 W/m -3,7 C -7,3 C 20,9 km/h (4 Bft) 100,00 %
27.02.2016 02:14 -0,3 C 78 % 1007,7 hPa 0,0 l/m 13,7 km/h (3 Bft) NO 51 0 min 0,000 mm 0,0 UV-I 0 W/m -3,7 C -6,5 C 17,7 km/h (3 Bft) 96,15 %
27.02.2016 02:15 -0,3 C 78 % 1007,7 hPa 0,0 l/m 14,3 km/h (3 Bft) O-NO 74 0 min 0,000 mm 0,0 UV-I 0 W/m -3,7 C -6,9 C 20,9 km/h (4 Bft) 95,83 %
27.02.2016 02:16 -0,3 C 78 % 1007,7 hPa 0,0 l/m 13,3 km/h (3 Bft) N-NO 30 0 min 0,000 mm 0,0 UV-I 0 W/m -3,7 C -6,3 C 17,7 km/h (3 Bft) 100,00 %
27.02.2016 02:17 -0,3 C 78 % 1007,7 hPa 0,0 l/m 13,3 km/h (3 Bft) NO 42 0 min 0,000 mm 0,0 UV-I 0 W/m -3,7 C -6,3 C 17,7 km/h (3 Bft) 95,83 %
27.02.2016 02:18 -0,3 C 78 % 1007,7 hPa 0,0 l/m 15,0 km/h (3 Bft) O-NO 76 0 min 0,000 mm 0,0 UV-I 0 W/m -3,7 C -7,3 C 19,3 km/h (3 Bft) 100,00 %
27.02.2016 02:19 -0,3 C 78 % 1007,7 hPa 0,0 l/m 12,6 km/h (3 Bft) O-NO 71 0 min 0,000 mm 0,0 UV-I 0 W/m -3,7 C -5,8 C 22,5 km/h (4 Bft) 95,83 %
27.02.2016 02:20 -0,3 C 78 % 1007,7 hPa 0,0 l/m 15,5 km/h (3 Bft) O-NO 69 0 min 0,000 mm 0,0 UV-I 0 W/m -3,7 C -7,6 C 20,9 km/h (4 Bft) 100,00 %
27.02.2016 02:21 -0,3 C 78 % 1007,7 hPa 0,0 l/m 11,9 km/h (2 Bft) O-NO 59 0 min 0,000 mm 0,0 UV-I 0 W/m -3,7 C -5,3 C 16,1 km/h (3 Bft) 95,83 %
27.02.2016 02:22 -0,3 C 78 % 1007,6 hPa 0,0 l/m 11,9 km/h (2 Bft) O-NO 60 0 min 0,000 mm 0,0 UV-I 0 W/m -3,7 C -5,3 C 16,1 km/h (3 Bft) 100,00 %
27.02.2016 02:23 -0,3 C 78 % 1007,6 hPa 0,0 l/m 12,8 km/h (3 Bft) O 90 0 min 0,000 mm 0,0 UV-I 0 W/m -3,7 C -5,9 C 20,9 km/h (4 Bft) 95,83 %
27.02.2016 02:24 -0,3 C 78 % 1007,6 hPa 0,0 l/m 11,9 km/h (2 Bft) O-NO 74 0 min 0,000 mm 0,0 UV-I 0 W/m -3,7 C -5,3 C 16,1 km/h (3 Bft) 91,30 %
27.02.2016 02:25 -0,3 C 78 % 1007,6 hPa 0,0 l/m 12,9 km/h (3 Bft) NO 42 0 min 0,000 mm 0,0 UV-I 0 W/m -3,7 C -6,0 C 17,7 km/h (3 Bft) 95,83 %
27.02.2016 02:26 -0,4 C 78 % 1007,7 hPa 0,0 l/m 14,0 km/h (3 Bft) O-NO 62 0 min 0,000 mm 0,0 UV-I 0 W/m -3,8 C -6,8 C 19,3 km/h (3 Bft) 95,65 %
27.02.2016 02:27 -0,4 C 78 % 1007,7 hPa 0,0 l/m 12,3 km/h (3 Bft) NO 56 0 min 0,000 mm 0,0 UV-I 0 W/m -3,8 C -5,7 C 17,7 km/h (3 Bft) 91,67 %
27.02.2016 02:28 -0,3 C 78 % 1007,6 hPa 0,0 l/m 14,6 km/h (3 Bft) O-NO 72 0 min 0,000 mm 0,0 UV-I 0 W/m -3,7 C -7,1 C 19,3 km/h (3 Bft) 92,31 %
27.02.2016 02:29 -0,3 C 78 % 1007,6 hPa 0,0 l/m 12,0 km/h (2 Bft) NO 56 0 min 0,000 mm 0,0 UV-I 0 W/m -3,7 C -5,3 C 19,3 km/h (3 Bft) 100,00 %
27.02.2016 02:30 -0,3 C 78 % 1007,6 hPa 0,0 l/m 13,3 km/h (3 Bft) NO 49 0 min 0,000 mm 0,0 UV-I 0 W/m -3,7 C -6,3 C 20,9 km/h (4 Bft) 95,65 %
27.02.2016 02:31 -0,3 C 78 % 1007,6 hPa 0,0 l/m 13,5 km/h (3 Bft) O-NO 63 0 min 0,000 mm 0,0 UV-I 0 W/m -3,7 C -6,4 C 17,7 km/h (3 Bft) 93,33 %
27.02.2016 02:32 -0,3 C 78 % 1007,6 hPa 0,0 l/m 11,1 km/h (2 Bft) O-NO 61 0 min 0,000 mm 0,0 UV-I 0 W/m -3,7 C -4,7 C 16,1 km/h (3 Bft) 100,00 %
27.02.2016 02:33 -0,3 C 78 % 1007,6 hPa 0,0 l/m 12,2 km/h (2 Bft) O-NO 57 0 min 0,000 mm 0,0 UV-I 0 W/m -3,7 C -5,5 C 17,7 km/h (3 Bft) 100,00 %
27.02.2016 02:34 -0,3 C 78 % 1007,6 hPa 0,0 l/m 14,1 km/h (3 Bft) O-NO 67 0 min 0,000 mm 0,0 UV-I 0 W/m -3,7 C -6,8 C 17,7 km/h (3 Bft) 100,00 %
27.02.2016 02:35 -0,3 C 78 % 1007,6 hPa 0,0 l/m 13,7 km/h (3 Bft) NO 42 0 min 0,000 mm 0,0 UV-I 0 W/m -3,7 C -6,5 C 16,1 km/h (3 Bft) 95,65 %
27.02.2016 02:36 -0,3 C 78 % 1007,6 hPa 0,0 l/m 14,8 km/h (3 Bft) NO 40 0 min 0,000 mm 0,0 UV-I 0 W/m -3,7 C -7,2 C 19,3 km/h (3 Bft) 100,00 %
27.02.2016 02:37 -0,3 C 78 % 1007,6 hPa 0,0 l/m 15,9 km/h (3 Bft) O-NO 59 0 min 0,000 mm 0,0 UV-I 0 W/m -3,7 C -7,9 C 20,9 km/h (4 Bft) 95,65 %
27.02.2016 02:38 -0,3 C 78 % 1007,6 hPa 0,0 l/m 14,3 km/h (3 Bft) NO 55 0 min 0,000 mm 0,0 UV-I 0 W/m -3,7 C -6,9 C 19,3 km/h (3 Bft) 100,00 %
27.02.2016 02:39 -0,3 C 78 % 1007,6 hPa 0,0 l/m 16,3 km/h (3 Bft) NO 53 0 min 0,000 mm 0,0 UV-I 0 W/m -3,7 C -8,1 C 20,9 km/h (4 Bft) 95,65 %
27.02.2016 02:40 -0,3 C 78 % 1007,6 hPa 0,0 l/m 16,6 km/h (3 Bft) NO 42 0 min 0,000 mm 0,0 UV-I 0 W/m -3,7 C -8,3 C 20,9 km/h (4 Bft) 100,00 %
27.02.2016 02:41 -0,4 C 78 % 1007,5 hPa 0,0 l/m 14,6 km/h (3 Bft) O-NO 74 0 min 0,000 mm 0,0 UV-I 0 W/m -3,8 C -7,2 C 17,7 km/h (3 Bft) 100,00 %
27.02.2016 02:42 -0,4 C 78 % 1007,6 hPa 0,0 l/m 11,6 km/h (2 Bft) O 79 0 min 0,000 mm 0,0 UV-I 0 W/m -3,8 C -5,2 C 16,1 km/h (3 Bft) 100,00 %
27.02.2016 02:43 -0,4 C 78 % 1007,6 hPa 0,0 l/m 14,0 km/h (3 Bft) NO 40 0 min 0,000 mm 0,0 UV-I 0 W/m -3,8 C -6,8 C 19,3 km/h (3 Bft) 100,00 %
27.02.2016 02:44 -0,4 C 78 % 1007,5 hPa 0,0 l/m 12,8 km/h (3 Bft) O-NO 78 0 min 0,000 mm 0,0 UV-I 0 W/m -3,8 C -6,0 C 16,1 km/h (3 Bft) 100,00 %
27.02.2016 02:45 -0,4 C 79 % 1007,6 hPa 0,0 l/m 15,1 km/h (3 Bft) O-NO 76 0 min 0,000 mm 0,0 UV-I 0 W/m -3,6 C -7,5 C 17,7 km/h (3 Bft) 100,00 %
27.02.2016 02:46 -0,4 C 79 % 1007,5 hPa 0,0 l/m 14,1 km/h (3 Bft) O-NO 62 0 min 0,000 mm 0,0 UV-I 0 W/m -3,6 C -6,9 C 19,3 km/h (3 Bft) 100,00 %
27.02.2016 02:47 -0,4 C 79 % 1007,5 hPa 0,0 l/m 13,8 km/h (3 Bft) NO 45 0 min 0,000 mm 0,0 UV-I 0 W/m -3,6 C -6,7 C 16,1 km/h (3 Bft) 100,00 %
27.02.2016 02:48 -0,4 C 79 % 1007,5 hPa 0,0 l/m 14,0 km/h (3 Bft) O-NO 65 0 min 0,000 mm 0,0 UV-I 0 W/m -3,6 C -6,8 C 19,3 km/h (3 Bft) 100,00 %
27.02.2016 02:49 -0,4 C 78 % 1007,5 hPa 0,0 l/m 15,3 km/h (3 Bft) O-NO 65 0 min 0,000 mm 0,0 UV-I 0 W/m -3,8 C -7,6 C 19,3 km/h (3 Bft) 100,00 %
27.02.2016 02:50 -0,4 C 79 % 1007,5 hPa 0,0 l/m 12,7 km/h (3 Bft) O-NO 59 0 min 0,000 mm 0,0 UV-I 0 W/m -3,6 C -6,0 C 16,1 km/h (3 Bft) 100,00 %
27.02.2016 02:51 -0,4 C 79 % 1007,5 hPa 0,0 l/m 14,2 km/h (3 Bft) O-NO 76 0 min 0,000 mm 0,0 UV-I 0 W/m -3,6 C -7,0 C 17,7 km/h (3 Bft) 100,00 %
27.02.2016 02:52 -0,4 C 79 % 1007,5 hPa 0,0 l/m 15,1 km/h (3 Bft) NO 55 0 min 0,000 mm 0,0 UV-I 0 W/m -3,6 C -7,5 C 19,3 km/h (3 Bft) 91,30 %
27.02.2016 02:53 -0,4 C 79 % 1007,5 hPa 0,0 l/m 16,2 km/h (3 Bft) N-NO 28 0 min 0,000 mm 0,0 UV-I 0 W/m -3,6 C -8,2 C 19,3 km/h (3 Bft) 100,00 %
27.02.2016 02:54 -0,4 C 79 % 1007,5 hPa 0,0 l/m 11,5 km/h (2 Bft) O-NO 61 0 min 0,000 mm 0,0 UV-I 0 W/m -3,6 C -5,1 C 16,1 km/h (3 Bft) 91,30 %
27.02.2016 02:55 -0,4 C 79 % 1007,5 hPa 0,0 l/m 12,3 km/h (3 Bft) NO 56 0 min 0,000 mm 0,0 UV-I 0 W/m -3,6 C -5,7 C 17,7 km/h (3 Bft) 100,00 %
27.02.2016 02:56 -0,5 C 79 % 1007,5 hPa 0,0 l/m 12,4 km/h (3 Bft) NO 46 0 min 0,000 mm 0,0 UV-I 0 W/m -3,7 C -5,9 C 19,3 km/h (3 Bft) 100,00 %
27.02.2016 02:57 -0,5 C 79 % 1007,5 hPa 0,0 l/m 12,4 km/h (3 Bft) N-NO 22 0 min 0,000 mm 0,0 UV-I 0 W/m -3,7 C -5,9 C 16,1 km/h (3 Bft) 95,83 %
27.02.2016 02:58 -0,5 C 79 % 1007,5 hPa 0,0 l/m 16,7 km/h (3 Bft) O 79 0 min 0,000 mm 0,0 UV-I 0 W/m -3,7 C -8,6 C 20,9 km/h (4 Bft) 95,65 %
27.02.2016 02:59 -0,5 C 79 % 1007,5 hPa 0,0 l/m 13,7 km/h (3 Bft) O 82 0 min 0,000 mm 0,0 UV-I 0 W/m -3,7 C -6,8 C 17,7 km/h (3 Bft) 95,83 %
27.02.2016 03:00 -0,5 C 78 % 1007,5 hPa 0,0 l/m 12,1 km/h (2 Bft) O-NO 74 0 min 0,025 mm 0,0 UV-I 0 W/m -3,9 C -5,7 C 17,7 km/h (3 Bft) 100,00 %
27.02.2016 03:01 -0,5 C 79 % 1007,5 hPa 0,0 l/m 12,7 km/h (3 Bft) O-NO 69 0 min 0,000 mm 0,0 UV-I 0 W/m -3,7 C -6,1 C 17,7 km/h (3 Bft) 100,00 %
27.02.2016 03:02 -0,5 C 79 % 1007,4 hPa 0,0 l/m 12,5 km/h (3 Bft) NO 43 0 min 0,000 mm 0,0 UV-I 0 W/m -3,7 C -5,9 C 16,1 km/h (3 Bft) 95,65 %
27.02.2016 03:03 -0,5 C 79 % 1007,4 hPa 0,0 l/m 12,9 km/h (3 Bft) O-NO 68 0 min 0,000 mm 0,0 UV-I 0 W/m -3,7 C -6,2 C 17,7 km/h (3 Bft) 100,00 %
27.02.2016 03:04 -0,5 C 79 % 1007,4 hPa 0,0 l/m 12,1 km/h (2 Bft) NO 53 0 min 0,000 mm 0,0 UV-I 0 W/m -3,7 C -5,7 C 19,3 km/h (3 Bft) 100,00 %
27.02.2016 03:05 -0,5 C 79 % 1007,4 hPa 0,0 l/m 10,0 km/h (2 Bft) NO 46 0 min 0,000 mm 0,0 UV-I 0 W/m -3,7 C -4,0 C 14,5 km/h (3 Bft) 100,00 %
27.02.2016 03:06 -0,6 C 79 % 1007,4 hPa 0,0 l/m 11,3 km/h (2 Bft) O-NO 60 0 min 0,000 mm 0,0 UV-I 0 W/m -3,8 C -5,2 C 14,5 km/h (3 Bft) 100,00 %
27.02.2016 03:07 -0,6 C 79 % 1007,4 hPa 0,0 l/m 10,7 km/h (2 Bft) NO 51 0 min 0,000 mm 0,0 UV-I 0 W/m -3,8 C -4,7 C 14,5 km/h (3 Bft) 95,65 %
27.02.2016 03:08 -0,6 C 79 % 1007,4 hPa 0,0 l/m 13,0 km/h (3 Bft) O-NO 77 0 min 0,000 mm 0,0 UV-I 0 W/m -3,8 C -6,4 C 19,3 km/h (3 Bft) 100,00 %
27.02.2016 03:09 -0,6 C 79 % 1007,3 hPa 0,0 l/m 12,3 km/h (3 Bft) O-NO 60 0 min 0,000 mm 0,0 UV-I 0 W/m -3,8 C -5,9 C 16,1 km/h (3 Bft) 100,00 %
27.02.2016 03:10 -0,6 C 79 % 1007,3 hPa 0,0 l/m 10,3 km/h (2 Bft) O-NO 75 0 min 0,000 mm 0,0 UV-I 0 W/m -3,8 C -4,4 C 16,1 km/h (3 Bft) 100,00 %
27.02.2016 03:11 -0,6 C 79 % 1007,3 hPa 0,0 l/m 13,7 km/h (3 Bft) O-NO 69 0 min 0,000 mm 0,0 UV-I 0 W/m -3,8 C -6,9 C 17,7 km/h (3 Bft) 100,00 %
27.02.2016 03:12 -0,6 C 79 % 1007,3 hPa 0,0 l/m 11,2 km/h (2 Bft) O-NO 63 0 min 0,000 mm 0,0 UV-I 0 W/m -3,8 C -5,1 C 14,5 km/h (3 Bft) 100,00 %
27.02.2016 03:13 -0,6 C 79 % 1007,3 hPa 0,0 l/m 11,1 km/h (2 Bft) NO 44 0 min 0,000 mm 0,0 UV-I 0 W/m -3,8 C -5,0 C 14,5 km/h (3 Bft) 100,00 %
27.02.2016 03:14 -0,7 C 79 % 1007,3 hPa 0,0 l/m 11,4 km/h (2 Bft) O-NO 77 0 min 0,000 mm 0,0 UV-I 0 W/m -3,9 C -5,4 C 14,5 km/h (3 Bft) 100,00 %
27.02.2016 03:15 -0,7 C 79 % 1007,3 hPa 0,0 l/m 10,5 km/h (2 Bft) O-NO 59 0 min 0,000 mm 0,0 UV-I 0 W/m -3,9 C -4,6 C 16,1 km/h (3 Bft) 96,15 %
27.02.2016 03:16 -0,7 C 80 % 1007,3 hPa 0,0 l/m 11,6 km/h (2 Bft) NO 55 0 min 0,000 mm 0,0 UV-I 0 W/m -3,7 C -5,5 C 17,7 km/h (3 Bft) 100,00 %
27.02.2016 03:17 -0,7 C 80 % 1007,2 hPa 0,0 l/m 12,1 km/h (2 Bft) O-NO 68 0 min 0,000 mm 0,0 UV-I 0 W/m -3,7 C -5,9 C 16,1 km/h (3 Bft) 100,00 %
27.02.2016 03:18 -0,7 C 80 % 1007,3 hPa 0,0 l/m 12,3 km/h (3 Bft) O-NO 71 0 min 0,000 mm 0,0 UV-I 0 W/m -3,7 C -6,0 C 14,5 km/h (3 Bft) 100,00 %
27.02.2016 03:19 -0,7 C 80 % 1007,3 hPa 0,0 l/m 13,5 km/h (3 Bft) O-NO 69 0 min 0,000 mm 0,0 UV-I 0 W/m -3,7 C -6,9 C 19,3 km/h (3 Bft) 100,00 %
27.02.2016 03:20 -0,7 C 80 % 1007,3 hPa 0,0 l/m 8,9 km/h (2 Bft) O-NO 65 0 min 0,000 mm 0,0 UV-I 0 W/m -3,7 C -3,2 C 12,9 km/h (3 Bft) 100,00 %
27.02.2016 03:21 -0,7 C 80 % 1007,3 hPa 0,0 l/m 11,7 km/h (2 Bft) O-NO 71 0 min 0,000 mm 0,0 UV-I 0 W/m -3,7 C -5,6 C 14,5 km/h (3 Bft) 100,00 %
27.02.2016 03:22 -0,7 C 80 % 1007,3 hPa 0,0 l/m 13,8 km/h (3 Bft) O-NO 77 0 min 0,000 mm 0,0 UV-I 0 W/m -3,7 C -7,1 C 17,7 km/h (3 Bft) 100,00 %
27.02.2016 03:23 -0,7 C 80 % 1007,3 hPa 0,0 l/m 13,7 km/h (3 Bft) O 85 0 min 0,000 mm 0,0 UV-I 0 W/m -3,7 C -7,0 C 17,7 km/h (3 Bft) 100,00 %
27.02.2016 03:24 -0,7 C 80 % 1007,3 hPa 0,0 l/m 13,6 km/h (3 Bft) O-NO 69 0 min 0,000 mm 0,0 UV-I 0 W/m -3,7 C -6,9 C 17,7 km/h (3 Bft) 100,00 %
27.02.2016 03:25 -0,7 C 79 % 1007,3 hPa 0,0 l/m 15,6 km/h (3 Bft) O-NO 68 0 min 0,000 mm 0,0 UV-I 0 W/m -3,9 C -8,2 C 19,3 km/h (3 Bft) 95,65 %
27.02.2016 03:26 -0,7 C 79 % 1007,2 hPa 0,0 l/m 12,7 km/h (3 Bft) O 91 0 min 0,000 mm 0,0 UV-I 0 W/m -3,9 C -6,3 C 17,7 km/h (3 Bft) 100,00 %
27.02.2016 03:27 -0,7 C 79 % 1007,2 hPa 0,0 l/m 15,0 km/h (3 Bft) O-NO 63 0 min 0,000 mm 0,0 UV-I 0 W/m -3,9 C -7,8 C 20,9 km/h (4 Bft) 96,15 %
27.02.2016 03:28 -0,7 C 79 % 1007,2 hPa 0,0 l/m 13,8 km/h (3 Bft) O-NO 74 0 min 0,000 mm 0,0 UV-I 0 W/m -3,9 C -7,1 C 20,9 km/h (4 Bft) 100,00 %
27.02.2016 03:29 -0,7 C 80 % 1007,3 hPa 0,0 l/m 10,1 km/h (2 Bft) NO 55 0 min 0,000 mm 0,0 UV-I 0 W/m -3,7 C -4,3 C 16,1 km/h (3 Bft) 100,00 %
27.02.2016 03:30 -0,7 C 80 % 1007,3 hPa 0,0 l/m 12,6 km/h (3 Bft) O 87 0 min 0,000 mm 0,0 UV-I 0 W/m -3,7 C -6,2 C 16,1 km/h (3 Bft) 100,00 %
27.02.2016 03:31 -0,7 C 80 % 1007,3 hPa 0,0 l/m 14,9 km/h (3 Bft) O-NO 74 0 min 0,000 mm 0,0 UV-I 0 W/m -3,7 C -7,8 C 17,7 km/h (3 Bft) 100,00 %
27.02.2016 03:32 -0,7 C 80 % 1007,2 hPa 0,0 l/m 14,2 km/h (3 Bft) O-NO 74 0 min 0,000 mm 0,0 UV-I 0 W/m -3,7 C -7,3 C 17,7 km/h (3 Bft) 100,00 %
27.02.2016 03:33 -0,7 C 80 % 1007,2 hPa 0,0 l/m 12,4 km/h (3 Bft) O-NO 65 0 min 0,000 mm 0,0 UV-I 0 W/m -3,7 C -6,1 C 19,3 km/h (3 Bft) 100,00 %
27.02.2016 03:34 -0,7 C 80 % 1007,2 hPa 0,0 l/m 10,6 km/h (2 Bft) O 86 0 min 0,000 mm 0,0 UV-I 0 W/m -3,7 C -4,7 C 17,7 km/h (3 Bft) 100,00 %
27.02.2016 03:35 -0,7 C 80 % 1007,2 hPa 0,0 l/m 11,1 km/h (2 Bft) NO 53 0 min 0,000 mm 0,0 UV-I 0 W/m -3,7 C -5,1 C 14,5 km/h (3 Bft) 100,00 %
27.02.2016 03:36 -0,7 C 80 % 1007,1 hPa 0,0 l/m 15,4 km/h (3 Bft) O-NO 67 0 min 0,000 mm 0,0 UV-I 0 W/m -3,7 C -8,1 C 20,9 km/h (4 Bft) 100,00 %
27.02.2016 03:37 -0,7 C 80 % 1007,1 hPa 0,0 l/m 14,3 km/h (3 Bft) O 84 0 min 0,000 mm 0,0 UV-I 0 W/m -3,7 C -7,4 C 20,9 km/h (4 Bft) 100,00 %
27.02.2016 03:38 -0,7 C 80 % 1007,1 hPa 0,0 l/m 13,2 km/h (3 Bft) O-NO 65 0 min 0,000 mm 0,0 UV-I 0 W/m -3,7 C -6,7 C 19,3 km/h (3 Bft) 91,30 %
27.02.2016 03:39 -0,7 C 80 % 1007,1 hPa 0,0 l/m 13,6 km/h (3 Bft) O 90 0 min 0,000 mm 0,0 UV-I 0 W/m -3,7 C -6,9 C 19,3 km/h (3 Bft) 100,00 %
27.02.2016 03:40 -0,7 C 80 % 1007,1 hPa 0,0 l/m 13,5 km/h (3 Bft) O-NO 71 0 min 0,000 mm 0,0 UV-I 0 W/m -3,7 C -6,9 C 19,3 km/h (3 Bft) 100,00 %
27.02.2016 03:41 -0,8 C 80 % 1007,1 hPa 0,0 l/m 11,7 km/h (2 Bft) O 79 0 min 0,000 mm 0,0 UV-I 0 W/m -3,8 C -5,7 C 14,5 km/h (3 Bft) 100,00 %
27.02.2016 03:42 -0,8 C 80 % 1007,1 hPa 0,0 l/m 11,7 km/h (2 Bft) O 82 0 min 0,000 mm 0,0 UV-I 0 W/m -3,8 C -5,7 C 16,1 km/h (3 Bft) 92,86 %
27.02.2016 03:43 -0,8 C 80 % 1007,1 hPa 0,0 l/m 13,8 km/h (3 Bft) O-NO 71 0 min 0,000 mm 0,0 UV-I 0 W/m -3,8 C -7,2 C 20,9 km/h (4 Bft) 100,00 %
27.02.2016 03:44 -0,8 C 80 % 1007,1 hPa 0,0 l/m 15,6 km/h (3 Bft) O-NO 59 0 min 0,000 mm 0,0 UV-I 0 W/m -3,8 C -8,3 C 19,3 km/h (3 Bft) 100,00 %
27.02.2016 03:45 -0,8 C 80 % 1007,1 hPa 0,0 l/m 14,8 km/h (3 Bft) O-NO 66 0 min 0,000 mm 0,0 UV-I 0 W/m -3,8 C -7,8 C 19,3 km/h (3 Bft) 95,65 %
27.02.2016 03:46 -0,8 C 80 % 1007,1 hPa 0,0 l/m 13,5 km/h (3 Bft) O 86 0 min 0,000 mm 0,0 UV-I 0 W/m -3,8 C -7,0 C 19,3 km/h (3 Bft) 100,00 %
27.02.2016 03:47 -0,8 C 80 % 1007,2 hPa 0,0 l/m 10,4 km/h (2 Bft) O-NO 71 0 min 0,000 mm 0,0 UV-I 0 W/m -3,8 C -4,7 C 14,5 km/h (3 Bft) 100,00 %
27.02.2016 03:48 -0,7 C 80 % 1007,1 hPa 0,0 l/m 13,5 km/h (3 Bft) O-NO 71 0 min 0,000 mm 0,0 UV-I 0 W/m -3,7 C -6,9 C 17,7 km/h (3 Bft) 100,00 %
27.02.2016 03:49 -0,8 C 80 % 1007,1 hPa 0,0 l/m 13,6 km/h (3 Bft) O-NO 59 0 min 0,000 mm 0,0 UV-I 0 W/m -3,8 C -7,0 C 17,7 km/h (3 Bft) 100,00 %
27.02.2016 03:50 -0,8 C 80 % 1007,2 hPa 0,0 l/m 14,4 km/h (3 Bft) O-NO 72 0 min 0,000 mm 0,0 UV-I 0 W/m -3,8 C -7,6 C 19,3 km/h (3 Bft) 100,00 %
27.02.2016 03:51 -0,7 C 80 % 1007,2 hPa 0,0 l/m 15,9 km/h (3 Bft) O 84 0 min 0,000 mm 0,0 UV-I 0 W/m -3,7 C -8,4 C 19,3 km/h (3 Bft) 100,00 %
27.02.2016 03:52 -0,8 C 80 % 1007,1 hPa 0,0 l/m 10,8 km/h (2 Bft) O-NO 64 0 min 0,000 mm 0,0 UV-I 0 W/m -3,8 C -5,0 C 14,5 km/h (3 Bft) 100,00 %
27.02.2016 03:53 -0,7 C 80 % 1007,1 hPa 0,0 l/m 10,9 km/h (2 Bft) O-NO 67 0 min 0,000 mm 0,0 UV-I 0 W/m -3,7 C -5,0 C 16,1 km/h (3 Bft) 100,00 %
27.02.2016 03:54 -0,8 C 80 % 1007,2 hPa 0,0 l/m 12,2 km/h (2 Bft) NO 53 0 min 0,000 mm 0,0 UV-I 0 W/m -3,8 C -6,1 C 16,1 km/h (3 Bft) 100,00 %
27.02.2016 03:55 -0,8 C 80 % 1007,1 hPa 0,0 l/m 11,0 km/h (2 Bft) O-NO 58 0 min 0,000 mm 0,0 UV-I 0 W/m -3,8 C -5,2 C 14,5 km/h (3 Bft) 100,00 %
27.02.2016 03:56 -0,8 C 80 % 1007,1 hPa 0,0 l/m 9,7 km/h (2 Bft) NO 53 0 min 0,000 mm 0,0 UV-I 0 W/m -3,8 C -4,1 C 12,9 km/h (3 Bft) 100,00 %
27.02.2016 03:57 -0,8 C 80 % 1007,2 hPa 0,0 l/m 10,4 km/h (2 Bft) O-NO 74 0 min 0,000 mm 0,0 UV-I 0 W/m -3,8 C -4,7 C 17,7 km/h (3 Bft) 100,00 %
27.02.2016 03:58 -0,8 C 80 % 1007,1 hPa 0,0 l/m 14,6 km/h (3 Bft) NO 56 0 min 0,000 mm 0,0 UV-I 0 W/m -3,8 C -7,7 C 20,9 km/h (4 Bft) 92,59 %
27.02.2016 03:59 -0,8 C 80 % 1007,1 hPa 0,0 l/m 12,6 km/h (3 Bft) O-NO 70 0 min 0,000 mm 0,0 UV-I 0 W/m -3,8 C -6,4 C 16,1 km/h (3 Bft) 100,00 %
27.02.2016 04:00 -0,8 C 80 % 1007,1 hPa 0,0 l/m 14,2 km/h (3 Bft) O-NO 74 0 min 0,026 mm 0,0 UV-I 0 W/m -3,8 C -7,4 C 17,7 km/h (3 Bft) 95,83 %
27.02.2016 04:01 -0,8 C 80 % 1007,1 hPa 0,0 l/m 12,4 km/h (3 Bft) O-NO 65 0 min 0,000 mm 0,0 UV-I 0 W/m -3,8 C -6,2 C 17,7 km/h (3 Bft) 87,50 %
27.02.2016 04:02 -0,8 C 80 % 1007,1 hPa 0,0 l/m 11,7 km/h (2 Bft) O-NO 61 0 min 0,000 mm 0,0 UV-I 0 W/m -3,8 C -5,7 C 16,1 km/h (3 Bft) 100,00 %
27.02.2016 04:03 -0,8 C 80 % 1007,1 hPa 0,0 l/m 10,5 km/h (2 Bft) O-NO 76 0 min 0,000 mm 0,0 UV-I 0 W/m -3,8 C -4,8 C 16,1 km/h (3 Bft) 91,30 %
27.02.2016 04:04 -0,8 C 80 % 1007,1 hPa 0,0 l/m 10,1 km/h (2 Bft) O-NO 60 0 min 0,000 mm 0,0 UV-I 0 W/m -3,8 C -4,4 C 16,1 km/h (3 Bft) 100,00 %
27.02.2016 04:05 -0,8 C 80 % 1007,1 hPa 0,0 l/m 11,7 km/h (2 Bft) O-NO 65 0 min 0,000 mm 0,0 UV-I 0 W/m -3,8 C -5,7 C 14,5 km/h (3 Bft) 95,65 %
27.02.2016 04:06 -0,8 C 80 % 1007,1 hPa 0,0 l/m 11,9 km/h (2 Bft) NO 56 0 min 0,000 mm 0,0 UV-I 0 W/m -3,8 C -5,8 C 17,7 km/h (3 Bft) 100,00 %
27.02.2016 04:07 -0,8 C 80 % 1007,1 hPa 0,0 l/m 13,6 km/h (3 Bft) O-NO 71 0 min 0,000 mm 0,0 UV-I 0 W/m -3,8 C -7,0 C 17,7 km/h (3 Bft) 91,30 %
27.02.2016 04:08 -0,8 C 80 % 1007,1 hPa 0,0 l/m 11,3 km/h (2 Bft) O-NO 76 0 min 0,000 mm 0,0 UV-I 0 W/m -3,8 C -5,4 C 14,5 km/h (3 Bft) 95,83 %
27.02.2016 04:09 -0,8 C 80 % 1007,1 hPa 0,0 l/m 10,5 km/h (2 Bft) O 80 0 min 0,000 mm 0,0 UV-I 0 W/m -3,8 C -4,8 C 16,1 km/h (3 Bft) 100,00 %
27.02.2016 04:10 -0,8 C 80 % 1007,1 hPa 0,0 l/m 11,3 km/h (2 Bft) O-NO 65 0 min 0,000 mm 0,0 UV-I 0 W/m -3,8 C -5,4 C 16,1 km/h (3 Bft) 95,65 %
27.02.2016 04:11 -0,8 C 80 % 1007,1 hPa 0,0 l/m 13,2 km/h (3 Bft) O-NO 73 0 min 0,000 mm 0,0 UV-I 0 W/m -3,8 C -6,8 C 17,7 km/h (3 Bft) 100,00 %
27.02.2016 04:12 -0,8 C 80 % 1007,0 hPa 0,0 l/m 10,1 km/h (2 Bft) O-NO 63 0 min 0,000 mm 0,0 UV-I 0 W/m -3,8 C -4,4 C 14,5 km/h (3 Bft) 91,30 %
27.02.2016 04:13 -0,8 C 80 % 1007,0 hPa 0,0 l/m 11,1 km/h (2 Bft) NO 56 0 min 0,000 mm 0,0 UV-I 0 W/m -3,8 C -5,2 C 17,7 km/h (3 Bft) 100,00 %
27.02.2016 04:14 -0,8 C 80 % 1006,9 hPa 0,0 l/m 11,9 km/h (2 Bft) O-NO 71 0 min 0,000 mm 0,0 UV-I 0 W/m -3,8 C -5,8 C 16,1 km/h (3 Bft) 95,65 %
27.02.2016 04:15 -0,8 C 80 % 1006,9 hPa 0,0 l/m 15,4 km/h (3 Bft) O 82 0 min 0,000 mm 0,0 UV-I 0 W/m -3,8 C -8,2 C 20,9 km/h (4 Bft) 95,83 %
27.02.2016 04:16 -0,8 C 80 % 1006,9 hPa 0,0 l/m 13,5 km/h (3 Bft) NO 51 0 min 0,000 mm 0,0 UV-I 0 W/m -3,8 C -7,0 C 19,3 km/h (3 Bft) 100,00 %
27.02.2016 04:17 -0,8 C 80 % 1006,9 hPa 0,0 l/m 11,5 km/h (2 Bft) O-NO 71 0 min 0,000 mm 0,0 UV-I 0 W/m -3,8 C -5,5 C 16,1 km/h (3 Bft) 95,83 %
27.02.2016 04:18 -0,8 C 80 % 1006,9 hPa 0,0 l/m 15,0 km/h (3 Bft) O-NO 61 0 min 0,000 mm 0,0 UV-I 0 W/m -3,8 C -8,0 C 20,9 km/h (4 Bft) 100,00 %
27.02.2016 04:19 -0,8 C 80 % 1006,9 hPa 0,0 l/m 14,6 km/h (3 Bft) O-NO 71 0 min 0,000 mm 0,0 UV-I 0 W/m -3,8 C -7,7 C 16,1 km/h (3 Bft) 92,59 %
27.02.2016 04:20 -0,8 C 80 % 1006,9 hPa 0,0 l/m 12,6 km/h (3 Bft) O 92 0 min 0,000 mm 0,0 UV-I 0 W/m -3,8 C -6,4 C 17,7 km/h (3 Bft) 100,00 %
27.02.2016 04:21 -0,8 C 80 % 1006,9 hPa 0,0 l/m 16,5 km/h (3 Bft) O-NO 62 0 min 0,000 mm 0,0 UV-I 0 W/m -3,8 C -8,8 C 20,9 km/h (4 Bft) 95,83 %
27.02.2016 04:22 -0,8 C 80 % 1007,0 hPa 0,0 l/m 14,7 km/h (3 Bft) O-NO 66 0 min 0,000 mm 0,0 UV-I 0 W/m -3,8 C -7,8 C 17,7 km/h (3 Bft) 100,00 %
27.02.2016 04:23 -0,8 C 80 % 1007,0 hPa 0,0 l/m 9,8 km/h (2 Bft) O 82 0 min 0,000 mm 0,0 UV-I 0 W/m -3,8 C -4,2 C 14,5 km/h (3 Bft) 91,67 %
27.02.2016 04:24 -0,8 C 80 % 1007,0 hPa 0,0 l/m 12,5 km/h (3 Bft) NO 36 0 min 0,000 mm 0,0 UV-I 0 W/m -3,8 C -6,3 C 17,7 km/h (3 Bft) 100,00 %
27.02.2016 04:25 -0,8 C 80 % 1007,0 hPa 0,0 l/m 15,2 km/h (3 Bft) O-NO 61 0 min 0,000 mm 0,0 UV-I 0 W/m -3,8 C -8,1 C 22,5 km/h (4 Bft) 95,83 %
27.02.2016 04:26 -0,8 C 80 % 1006,9 hPa 0,0 l/m 12,5 km/h (3 Bft) O 84 0 min 0,000 mm 0,0 UV-I 0 W/m -3,8 C -6,3 C 22,5 km/h (4 Bft) 95,83 %
27.02.2016 04:27 -0,8 C 80 % 1006,9 hPa 0,0 l/m 13,5 km/h (3 Bft) O 85 0 min 0,000 mm 0,0 UV-I 0 W/m -3,8 C -7,0 C 16,1 km/h (3 Bft) 100,00 %
27.02.2016 04:28 -0,8 C 80 % 1006,9 hPa 0,0 l/m 10,8 km/h (2 Bft) O 79 0 min 0,000 mm 0,0 UV-I 0 W/m -3,8 C -5,0 C 14,5 km/h (3 Bft) 95,83 %
27.02.2016 04:29 -0,8 C 80 % 1006,9 hPa 0,0 l/m 11,7 km/h (2 Bft) O-NO 70 0 min 0,000 mm 0,0 UV-I 0 W/m -3,8 C -5,7 C 16,1 km/h (3 Bft) 100,00 %
27.02.2016 04:30 -0,9 C 80 % 1007,0 hPa 0,0 l/m 13,1 km/h (3 Bft) O 88 0 min 0,000 mm 0,0 UV-I 0 W/m -3,9 C -6,8 C 17,7 km/h (3 Bft) 95,83 %
27.02.2016 04:31 -0,9 C 80 % 1006,9 hPa 0,0 l/m 10,9 km/h (2 Bft) O 85 0 min 0,000 mm 0,0 UV-I 0 W/m -3,9 C -5,2 C 16,1 km/h (3 Bft) 100,00 %
27.02.2016 04:32 -0,9 C 80 % 1006,9 hPa 0,0 l/m 9,8 km/h (2 Bft) O-NO 61 0 min 0,000 mm 0,0 UV-I 0 W/m -3,9 C -4,3 C 14,5 km/h (3 Bft) 95,83 %
27.02.2016 04:33 -0,9 C 80 % 1006,9 hPa 0,0 l/m 12,6 km/h (3 Bft) O-NO 63 0 min 0,000 mm 0,0 UV-I 0 W/m -3,9 C -6,5 C 17,7 km/h (3 Bft) 95,65 %
27.02.2016 04:34 -0,9 C 80 % 1006,9 hPa 0,0 l/m 15,1 km/h (3 Bft) O-NO 65 0 min 0,000 mm 0,0 UV-I 0 W/m -3,9 C -8,1 C 19,3 km/h (3 Bft) 95,83 %
27.02.2016 04:35 -0,9 C 80 % 1006,9 hPa 0,0 l/m 10,3 km/h (2 Bft) NO 55 0 min 0,000 mm 0,0 UV-I 0 W/m -3,9 C -4,7 C 16,1 km/h (3 Bft) 100,00 %
27.02.2016 04:36 -0,9 C 80 % 1006,9 hPa 0,0 l/m 11,7 km/h (2 Bft) O-NO 78 0 min 0,000 mm 0,0 UV-I 0 W/m -3,9 C -5,8 C 17,7 km/h (3 Bft) 100,00 %
27.02.2016 04:37 -0,9 C 81 % 1006,9 hPa 0,0 l/m 9,3 km/h (2 Bft) O-NO 72 0 min 0,000 mm 0,0 UV-I 0 W/m -3,7 C -3,8 C 14,5 km/h (3 Bft) 95,65 %
27.02.2016 04:38 -0,9 C 81 % 1006,9 hPa 0,0 l/m 14,9 km/h (3 Bft) O-NO 61 0 min 0,000 mm 0,0 UV-I 0 W/m -3,7 C -8,0 C 20,9 km/h (4 Bft) 100,00 %
27.02.2016 04:39 -0,9 C 81 % 1006,9 hPa 0,0 l/m 11,6 km/h (2 Bft) NO 48 0 min 0,000 mm 0,0 UV-I 0 W/m -3,7 C -5,7 C 16,1 km/h (3 Bft) 100,00 %
27.02.2016 04:40 -0,9 C 81 % 1006,9 hPa 0,0 l/m 12,2 km/h (2 Bft) NO 46 0 min 0,000 mm 0,0 UV-I 0 W/m -3,7 C -6,2 C 16,1 km/h (3 Bft) 100,00 %
27.02.2016 04:41 -0,9 C 81 % 1007,0 hPa 0,0 l/m 13,3 km/h (3 Bft) NO 48 0 min 0,000 mm 0,0 UV-I 0 W/m -3,7 C -7,0 C 19,3 km/h (3 Bft) 100,00 %
27.02.2016 04:42 -0,9 C 81 % 1007,0 hPa 0,0 l/m 12,0 km/h (2 Bft) O-NO 66 0 min 0,000 mm 0,0 UV-I 0 W/m -3,7 C -6,0 C 16,1 km/h (3 Bft) 96,30 %
27.02.2016 04:43 -0,9 C 81 % 1006,9 hPa 0,0 l/m 9,4 km/h (2 Bft) N-NO 18 0 min 0,000 mm 0,0 UV-I 0 W/m -3,7 C -3,9 C 12,9 km/h (3 Bft) 100,00 %
27.02.2016 04:44 -0,9 C 81 % 1006,9 hPa 0,0 l/m 8,9 km/h (2 Bft) NO 53 0 min 0,000 mm 0,0 UV-I 0 W/m -3,7 C -3,5 C 14,5 km/h (3 Bft) 100,00 %
27.02.2016 04:45 -0,9 C 81 % 1006,9 hPa 0,0 l/m 9,0 km/h (2 Bft) O-NO 65 0 min 0,000 mm 0,0 UV-I 0 W/m -3,7 C -3,6 C 14,5 km/h (3 Bft) 95,65 %
27.02.2016 04:46 -0,9 C 81 % 1006,9 hPa 0,0 l/m 9,1 km/h (2 Bft) O-NO 59 0 min 0,000 mm 0,0 UV-I 0 W/m -3,7 C -3,6 C 14,5 km/h (3 Bft) 100,00 %
27.02.2016 04:47 -0,9 C 81 % 1006,9 hPa 0,0 l/m 10,8 km/h (2 Bft) NO 42 0 min 0,000 mm 0,0 UV-I 0 W/m -3,7 C -5,1 C 14,5 km/h (3 Bft) 100,00 %
27.02.2016 04:48 -0,9 C 81 % 1006,9 hPa 0,0 l/m 12,0 km/h (2 Bft) O-NO 63 0 min 0,000 mm 0,0 UV-I 0 W/m -3,7 C -6,0 C 16,1 km/h (3 Bft) 100,00 %
27.02.2016 04:49 -0,9 C 81 % 1006,9 hPa 0,0 l/m 11,5 km/h (2 Bft) NO 50 0 min 0,000 mm 0,0 UV-I 0 W/m -3,7 C -5,7 C 16,1 km/h (3 Bft) 100,00 %
27.02.2016 04:50 -0,9 C 81 % 1006,9 hPa 0,0 l/m 9,8 km/h (2 Bft) NO 45 0 min 0,000 mm 0,0 UV-I 0 W/m -3,7 C -4,3 C 14,5 km/h (3 Bft) 100,00 %
27.02.2016 04:51 -0,9 C 81 % 1006,9 hPa 0,0 l/m 8,2 km/h (2 Bft) O-NO 61 0 min 0,000 mm 0,0 UV-I 0 W/m -3,7 C -2,8 C 12,9 km/h (3 Bft) 100,00 %
27.02.2016 04:52 -0,9 C 81 % 1006,9 hPa 0,0 l/m 6,8 km/h (2 Bft) O-NO 62 0 min 0,000 mm 0,0 UV-I 0 W/m -3,7 C -1,3 C 9,7 km/h (2 Bft) 95,65 %
27.02.2016 04:53 -0,9 C 81 % 1006,9 hPa 0,0 l/m 11,5 km/h (2 Bft) NO 55 0 min 0,000 mm 0,0 UV-I 0 W/m -3,7 C -5,7 C 14,5 km/h (3 Bft) 100,00 %
27.02.2016 04:54 -0,9 C 81 % 1006,9 hPa 0,0 l/m 11,7 km/h (2 Bft) NO 55 0 min 0,000 mm 0,0 UV-I 0 W/m -3,7 C -5,8 C 16,1 km/h (3 Bft) 100,00 %
27.02.2016 04:55 -0,9 C 81 % 1006,9 hPa 0,0 l/m 8,4 km/h (2 Bft) O-NO 65 0 min 0,000 mm 0,0 UV-I 0 W/m -3,7 C -3,0 C 16,1 km/h (3 Bft) 100,00 %
27.02.2016 04:56 -1,0 C 81 % 1006,9 hPa 0,0 l/m 7,9 km/h (2 Bft) NO 50 0 min 0,000 mm 0,0 UV-I 0 W/m -3,8 C -2,6 C 12,9 km/h (3 Bft) 100,00 %
27.02.2016 04:57 -1,0 C 81 % 1006,9 hPa 0,0 l/m 9,3 km/h (2 Bft) O-NO 63 0 min 0,000 mm 0,0 UV-I 0 W/m -3,8 C -3,9 C 14,5 km/h (3 Bft) 100,00 %
27.02.2016 04:58 -1,0 C 81 % 1006,9 hPa 0,0 l/m 6,4 km/h (2 Bft) NO 53 0 min 0,000 mm 0,0 UV-I 0 W/m -3,8 C -1,0 C 8,0 km/h (2 Bft) 100,00 %
27.02.2016 04:59 -1,1 C 81 % 1006,9 hPa 0,0 l/m 6,9 km/h (2 Bft) O-NO 61 0 min 0,000 mm 0,0 UV-I 0 W/m -3,9 C -1,6 C 8,0 km/h (2 Bft) 100,00 %
27.02.2016 05:00 -1,1 C 81 % 1006,9 hPa 0,0 l/m 5,5 km/h (1 Bft) O-NO 57 0 min 0,000 mm 0,0 UV-I 0 W/m -3,9 C -1,1 C 6,4 km/h (2 Bft) 100,00 %
27.02.2016 05:01 -1,1 C 81 % 1006,8 hPa 0,0 l/m 8,1 km/h (2 Bft) O-NO 67 0 min 0,025 mm 0,0 UV-I 0 W/m -3,9 C -2,9 C 14,5 km/h (3 Bft) 95,83 %
27.02.2016 05:02 -1,1 C 82 % 1006,8 hPa 0,0 l/m 6,4 km/h (2 Bft) NO 46 0 min 0,000 mm 0,0 UV-I 0 W/m -3,8 C -1,1 C 9,7 km/h (2 Bft) 95,65 %
27.02.2016 05:03 -1,1 C 82 % 1006,8 hPa 0,0 l/m 8,1 km/h (2 Bft) NO 55 0 min 0,000 mm 0,0 UV-I 0 W/m -3,8 C -2,9 C 12,9 km/h (3 Bft) 100,00 %
27.02.2016 05:04 -1,2 C 82 % 1006,8 hPa 0,0 l/m 10,5 km/h (2 Bft) NO 41 0 min 0,000 mm 0,0 UV-I 0 W/m -3,9 C -5,2 C 14,5 km/h (3 Bft) 100,00 %
27.02.2016 05:05 -1,2 C 82 % 1006,8 hPa 0,0 l/m 5,5 km/h (1 Bft) NO 37 0 min 0,000 mm 0,0 UV-I 0 W/m -3,9 C -1,2 C 6,4 km/h (2 Bft) 100,00 %
27.02.2016 05:06 -1,2 C 82 % 1006,8 hPa 0,0 l/m 6,5 km/h (2 Bft) NO 50 0 min 0,000 mm 0,0 UV-I 0 W/m -3,9 C -1,3 C 9,7 km/h (2 Bft) 95,83 %
27.02.2016 05:07 -1,2 C 82 % 1006,8 hPa 0,0 l/m 7,6 km/h (2 Bft) NO 34 0 min 0,000 mm 0,0 UV-I 0 W/m -3,9 C -2,5 C 12,9 km/h (3 Bft) 100,00 %
27.02.2016 05:08 -1,2 C 82 % 1006,8 hPa 0,0 l/m 6,9 km/h (2 Bft) NO 44 0 min 0,000 mm 0,0 UV-I 0 W/m -3,9 C -1,7 C 9,7 km/h (2 Bft) 100,00 %
27.02.2016 05:09 -1,3 C 82 % 1006,8 hPa 0,0 l/m 6,6 km/h (2 Bft) NO 37 0 min 0,000 mm 0,0 UV-I 0 W/m -4,0 C -1,5 C 9,7 km/h (2 Bft) 100,00 %
27.02.2016 05:10 -1,3 C 82 % 1006,8 hPa 0,0 l/m 8,0 km/h (2 Bft) O-NO 61 0 min 0,000 mm 0,0 UV-I 0 W/m -4,0 C -3,0 C 12,9 km/h (3 Bft) 100,00 %
27.02.2016 05:11 -1,3 C 82 % 1006,7 hPa 0,0 l/m 6,7 km/h (2 Bft) O-NO 58 0 min 0,000 mm 0,0 UV-I 0 W/m -4,0 C -1,6 C 9,7 km/h (2 Bft) 100,00 %
27.02.2016 05:12 -1,3 C 82 % 1006,8 hPa 0,0 l/m 8,9 km/h (2 Bft) O-NO 59 0 min 0,000 mm 0,0 UV-I 0 W/m -4,0 C -3,9 C 12,9 km/h (3 Bft) 100,00 %
27.02.2016 05:13 -1,3 C 82 % 1006,8 hPa 0,0 l/m 9,7 km/h (2 Bft) O-NO 66 0 min 0,000 mm 0,0 UV-I 0 W/m -4,0 C -4,6 C 14,5 km/h (3 Bft) 95,65 %
27.02.2016 05:14 -1,3 C 82 % 1006,8 hPa 0,0 l/m 7,1 km/h (2 Bft) O-NO 71 0 min 0,000 mm 0,0 UV-I 0 W/m -4,0 C -2,1 C 9,7 km/h (2 Bft) 95,83 %
27.02.2016 05:15 -1,3 C 82 % 1006,8 hPa 0,0 l/m 11,7 km/h (2 Bft) O-NO 57 0 min 0,000 mm 0,0 UV-I 0 W/m -4,0 C -6,3 C 16,1 km/h (3 Bft) 100,00 %
27.02.2016 05:16 -1,3 C 82 % 1006,8 hPa 0,0 l/m 10,1 km/h (2 Bft) O-NO 58 0 min 0,000 mm 0,0 UV-I 0 W/m -4,0 C -5,0 C 14,5 km/h (3 Bft) 95,83 %
27.02.2016 05:17 -1,3 C 82 % 1006,8 hPa 0,0 l/m 9,5 km/h (2 Bft) O-NO 61 0 min 0,000 mm 0,0 UV-I 0 W/m -4,0 C -4,4 C 14,5 km/h (3 Bft) 91,30 %
27.02.2016 05:18 -1,3 C 82 % 1006,8 hPa 0,0 l/m 12,1 km/h (2 Bft) O-NO 57 0 min 0,000 mm 0,0 UV-I 0 W/m -4,0 C -6,6 C 16,1 km/h (3 Bft) 100,00 %
27.02.2016 05:19 -1,3 C 82 % 1006,8 hPa 0,0 l/m 9,9 km/h (2 Bft) NO 44 0 min 0,000 mm 0,0 UV-I 0 W/m -4,0 C -4,8 C 11,3 km/h (2 Bft) 95,65 %
27.02.2016 05:20 -1,3 C 82 % 1006,8 hPa 0,0 l/m 9,7 km/h (2 Bft) O-NO 62 0 min 0,000 mm 0,0 UV-I 0 W/m -4,0 C -4,6 C 12,9 km/h (3 Bft) 100,00 %
27.02.2016 05:21 -1,3 C 83 % 1006,8 hPa 0,0 l/m 10,3 km/h (2 Bft) O-NO 61 0 min 0,000 mm 0,0 UV-I 0 W/m -3,8 C -5,1 C 14,5 km/h (3 Bft) 100,00 %
27.02.2016 05:22 -1,3 C 83 % 1006,8 hPa 0,0 l/m 10,4 km/h (2 Bft) O-NO 70 0 min 0,000 mm 0,0 UV-I 0 W/m -3,8 C -5,2 C 12,9 km/h (3 Bft) 100,00 %
27.02.2016 05:23 -1,3 C 83 % 1006,7 hPa 0,0 l/m 10,3 km/h (2 Bft) O-NO 60 0 min 0,000 mm 0,0 UV-I 0 W/m -3,8 C -5,1 C 14,5 km/h (3 Bft) 100,00 %
27.02.2016 05:24 -1,3 C 83 % 1006,7 hPa 0,0 l/m 9,9 km/h (2 Bft) O-NO 70 0 min 0,000 mm 0,0 UV-I 0 W/m -3,8 C -4,8 C 14,5 km/h (3 Bft) 100,00 %
27.02.2016 05:25 -1,3 C 83 % 1006,7 hPa 0,0 l/m 10,1 km/h (2 Bft) O-NO 58 0 min 0,000 mm 0,0 UV-I 0 W/m -3,8 C -5,0 C 14,5 km/h (3 Bft) 100,00 %
27.02.2016 05:26 -1,3 C 83 % 1006,7 hPa 0,0 l/m 9,9 km/h (2 Bft) O-NO 60 0 min 0,000 mm 0,0 UV-I 0 W/m -3,8 C -4,8 C 14,5 km/h (3 Bft) 100,00 %
27.02.2016 05:27 -1,3 C 83 % 1006,7 hPa 0,0 l/m 9,1 km/h (2 Bft) O-NO 62 0 min 0,000 mm 0,0 UV-I 0 W/m -3,8 C -4,1 C 14,5 km/h (3 Bft) 100,00 %
27.02.2016 05:28 -1,3 C 83 % 1006,7 hPa 0,0 l/m 7,5 km/h (2 Bft) NO 55 0 min 0,000 mm 0,0 UV-I 0 W/m -3,8 C -2,5 C 9,7 km/h (2 Bft) 96,30 %
27.02.2016 05:29 -1,4 C 83 % 1006,6 hPa 0,0 l/m 7,6 km/h (2 Bft) NO 56 0 min 0,000 mm 0,0 UV-I 0 W/m -3,9 C -2,7 C 9,7 km/h (2 Bft) 91,30 %
27.02.2016 05:30 -1,4 C 83 % 1006,6 hPa 0,0 l/m 8,2 km/h (2 Bft) O-NO 62 0 min 0,000 mm 0,0 UV-I 0 W/m -3,9 C -3,3 C 12,9 km/h (3 Bft) 95,83 %
27.02.2016 05:31 -1,4 C 83 % 1006,6 hPa 0,0 l/m 8,4 km/h (2 Bft) O 80 0 min 0,000 mm 0,0 UV-I 0 W/m -3,9 C -3,5 C 14,5 km/h (3 Bft) 100,00 %
27.02.2016 05:32 -1,4 C 83 % 1006,6 hPa 0,0 l/m 4,8 km/h (1 Bft) NO 40 0 min 0,000 mm 0,0 UV-I 0 W/m -3,9 C -1,4 C 6,4 km/h (2 Bft) 100,00 %
27.02.2016 05:33 -1,4 C 83 % 1006,6 hPa 0,0 l/m 5,4 km/h (1 Bft) NO 45 0 min 0,000 mm 0,0 UV-I 0 W/m -3,9 C -1,4 C 8,0 km/h (2 Bft) 100,00 %
27.02.2016 05:34 -1,4 C 83 % 1006,6 hPa 0,0 l/m 7,1 km/h (2 Bft) NO 40 0 min 0,000 mm 0,0 UV-I 0 W/m -3,9 C -2,2 C 11,3 km/h (2 Bft) 100,00 %
27.02.2016 05:35 -1,4 C 83 % 1006,6 hPa 0,0 l/m 9,3 km/h (2 Bft) NO 44 0 min 0,000 mm 0,0 UV-I 0 W/m -3,9 C -4,4 C 14,5 km/h (3 Bft) 100,00 %
27.02.2016 05:36 -1,4 C 83 % 1006,6 hPa 0,0 l/m 7,9 km/h (2 Bft) NO 53 0 min 0,000 mm 0,0 UV-I 0 W/m -3,9 C -3,0 C 9,7 km/h (2 Bft) 100,00 %
27.02.2016 05:37 -1,4 C 83 % 1006,6 hPa 0,0 l/m 8,6 km/h (2 Bft) NO 43 0 min 0,000 mm 0,0 UV-I 0 W/m -3,9 C -3,7 C 11,3 km/h (2 Bft) 100,00 %
27.02.2016 05:38 -1,4 C 83 % 1006,6 hPa 0,0 l/m 10,6 km/h (2 Bft) NO 47 0 min 0,000 mm 0,0 UV-I 0 W/m -3,9 C -5,5 C 14,5 km/h (3 Bft) 100,00 %
27.02.2016 05:39 -1,4 C 83 % 1006,6 hPa 0,0 l/m 12,4 km/h (3 Bft) O-NO 63 0 min 0,000 mm 0,0 UV-I 0 W/m -3,9 C -6,9 C 14,5 km/h (3 Bft) 100,00 %
27.02.2016 05:40 -1,4 C 83 % 1006,6 hPa 0,0 l/m 10,5 km/h (2 Bft) NO 56 0 min 0,000 mm 0,0 UV-I 0 W/m -3,9 C -5,4 C 12,9 km/h (3 Bft) 96,15 %
27.02.2016 05:41 -1,4 C 83 % 1006,6 hPa 0,0 l/m 11,3 km/h (2 Bft) O-NO 58 0 min 0,000 mm 0,0 UV-I 0 W/m -3,9 C -6,1 C 14,5 km/h (3 Bft) 100,00 %
27.02.2016 05:42 -1,4 C 83 % 1006,6 hPa 0,0 l/m 14,2 km/h (3 Bft) O-NO 61 0 min 0,000 mm 0,0 UV-I 0 W/m -3,9 C -8,2 C 17,7 km/h (3 Bft) 100,00 %
27.02.2016 05:43 -1,5 C 83 % 1006,6 hPa 0,0 l/m 13,3 km/h (3 Bft) O-NO 67 0 min 0,000 mm 0,0 UV-I 0 W/m -4,0 C -7,7 C 16,1 km/h (3 Bft) 95,83 %
27.02.2016 05:44 -1,4 C 83 % 1006,6 hPa 0,0 l/m 14,0 km/h (3 Bft) O-NO 62 0 min 0,000 mm 0,0 UV-I 0 W/m -3,9 C -8,0 C 17,7 km/h (3 Bft) 91,30 %
27.02.2016 05:45 -1,4 C 83 % 1006,6 hPa 0,0 l/m 11,1 km/h (2 Bft) O-NO 57 0 min 0,000 mm 0,0 UV-I 0 W/m -3,9 C -5,9 C 16,1 km/h (3 Bft) 100,00 %
27.02.2016 05:46 -1,4 C 83 % 1006,6 hPa 0,0 l/m 10,8 km/h (2 Bft) O-NO 63 0 min 0,000 mm 0,0 UV-I 0 W/m -3,9 C -5,7 C 16,1 km/h (3 Bft) 100,00 %
27.02.2016 05:47 -1,4 C 83 % 1006,6 hPa 0,0 l/m 10,0 km/h (2 Bft) O-NO 66 0 min 0,000 mm 0,0 UV-I 0 W/m -3,9 C -5,0 C 14,5 km/h (3 Bft) 100,00 %
27.02.2016 05:48 -1,4 C 83 % 1006,7 hPa 0,0 l/m 9,4 km/h (2 Bft) NO 51 0 min 0,000 mm 0,0 UV-I 0 W/m -3,9 C -4,5 C 14,5 km/h (3 Bft) 100,00 %
27.02.2016 05:49 -1,4 C 83 % 1006,6 hPa 0,0 l/m 9,9 km/h (2 Bft) O-NO 63 0 min 0,000 mm 0,0 UV-I 0 W/m -3,9 C -4,9 C 14,5 km/h (3 Bft) 100,00 %
27.02.2016 05:50 -1,4 C 83 % 1006,7 hPa 0,0 l/m 7,1 km/h (2 Bft) N-NO 32 0 min 0,000 mm 0,0 UV-I 0 W/m -3,9 C -2,2 C 8,0 km/h (2 Bft) 100,00 %
27.02.2016 05:51 -1,4 C 83 % 1006,6 hPa 0,0 l/m 6,8 km/h (2 Bft) NO 41 0 min 0,000 mm 0,0 UV-I 0 W/m -3,9 C -1,8 C 8,0 km/h (2 Bft) 95,65 %
27.02.2016 05:52 -1,4 C 83 % 1006,6 hPa 0,0 l/m 8,9 km/h (2 Bft) NO 49 0 min 0,000 mm 0,0 UV-I 0 W/m -3,9 C -4,0 C 14,5 km/h (3 Bft) 100,00 %
27.02.2016 05:53 -1,4 C 83 % 1006,6 hPa 0,0 l/m 8,0 km/h (2 Bft) NO 49 0 min 0,000 mm 0,0 UV-I 0 W/m -3,9 C -3,1 C 12,9 km/h (3 Bft) 95,65 %
27.02.2016 05:54 -1,4 C 83 % 1006,6 hPa 0,0 l/m 7,7 km/h (2 Bft) NO 55 0 min 0,000 mm 0,0 UV-I 0 W/m -3,9 C -2,8 C 14,5 km/h (3 Bft) 100,00 %
27.02.2016 05:55 -1,4 C 83 % 1006,6 hPa 0,0 l/m 8,2 km/h (2 Bft) NO 48 0 min 0,000 mm 0,0 UV-I 0 W/m -3,9 C -3,3 C 12,9 km/h (3 Bft) 100,00 %
27.02.2016 05:56 -1,5 C 83 % 1006,6 hPa 0,0 l/m 10,4 km/h (2 Bft) O-NO 78 0 min 0,000 mm 0,0 UV-I 0 W/m -4,0 C -5,5 C 14,5 km/h (3 Bft) 100,00 %
27.02.2016 05:57 -1,5 C 83 % 1006,6 hPa 0,0 l/m 8,6 km/h (2 Bft) O-NO 70 0 min 0,000 mm 0,0 UV-I 0 W/m -4,0 C -3,8 C 9,7 km/h (2 Bft) 92,31 %
27.02.2016 05:58 -1,5 C 83 % 1006,6 hPa 0,0 l/m 11,1 km/h (2 Bft) O-NO 58 0 min 0,000 mm 0,0 UV-I 0 W/m -4,0 C -6,0 C 14,5 km/h (3 Bft) 100,00 %
27.02.2016 05:59 -1,5 C 83 % 1006,6 hPa 0,0 l/m 9,1 km/h (2 Bft) O-NO 67 0 min 0,000 mm 0,0 UV-I 0 W/m -4,0 C -4,3 C 14,5 km/h (3 Bft) 100,00 %
27.02.2016 06:00 -1,5 C 83 % 1006,6 hPa 0,0 l/m 9,1 km/h (2 Bft) NO 50 0 min 0,000 mm 0,0 UV-I 0 W/m -4,0 C -4,3 C 12,9 km/h (3 Bft) 100,00 %
27.02.2016 06:01 -1,5 C 84 % 1006,6 hPa 0,0 l/m 10,4 km/h (2 Bft) O-NO 62 0 min 0,000 mm 0,0 UV-I 0 W/m -3,8 C -5,5 C 12,9 km/h (3 Bft) 95,65 %
27.02.2016 06:02 -1,5 C 84 % 1006,5 hPa 0,0 l/m 9,0 km/h (2 Bft) O-NO 71 0 min 0,000 mm 0,0 UV-I 0 W/m -3,8 C -4,2 C 14,5 km/h (3 Bft) 100,00 %
27.02.2016 06:03 -1,6 C 83 % 1006,5 hPa 0,0 l/m 9,0 km/h (2 Bft) O-NO 71 0 min 0,000 mm 0,0 UV-I 0 W/m -4,1 C -4,3 C 14,5 km/h (3 Bft) 95,65 %
27.02.2016 06:04 -1,6 C 84 % 1006,5 hPa 0,0 l/m 10,1 km/h (2 Bft) NO 49 0 min 0,000 mm 0,0 UV-I 0 W/m -3,9 C -5,3 C 12,9 km/h (3 Bft) 100,00 %
27.02.2016 06:05 -1,6 C 84 % 1006,4 hPa 0,0 l/m 11,9 km/h (2 Bft) NO 46 0 min 0,000 mm 0,0 UV-I 0 W/m -3,9 C -6,8 C 16,1 km/h (3 Bft) 95,65 %
27.02.2016 06:06 -1,6 C 84 % 1006,4 hPa 0,0 l/m 11,1 km/h (2 Bft) O-NO 59 0 min 0,000 mm 0,0 UV-I 0 W/m -3,9 C -6,1 C 14,5 km/h (3 Bft) 100,00 %
27.02.2016 06:07 -1,6 C 84 % 1006,4 hPa 0,0 l/m 11,2 km/h (2 Bft) NO 54 0 min 0,000 mm 0,0 UV-I 0 W/m -3,9 C -6,2 C 16,1 km/h (3 Bft) 95,83 %
27.02.2016 06:08 -1,6 C 84 % 1006,4 hPa 0,0 l/m 10,9 km/h (2 Bft) NO 42 0 min 0,000 mm 0,0 UV-I 0 W/m -3,9 C -6,0 C 14,5 km/h (3 Bft) 100,00 %
27.02.2016 06:09 -1,6 C 84 % 1006,4 hPa 0,0 l/m 9,7 km/h (2 Bft) O-NO 61 0 min 0,000 mm 0,0 UV-I 0 W/m -3,9 C -5,0 C 14,5 km/h (3 Bft) 95,83 %
27.02.2016 06:10 -1,6 C 84 % 1006,4 hPa 0,0 l/m 10,6 km/h (2 Bft) O-NO 74 0 min 0,000 mm 0,0 UV-I 0 W/m -3,9 C -5,7 C 14,5 km/h (3 Bft) 95,65 %
27.02.2016 06:11 -1,6 C 84 % 1006,4 hPa 0,0 l/m 8,9 km/h (2 Bft) O-NO 61 0 min 0,000 mm 0,0 UV-I 0 W/m -3,9 C -4,2 C 11,3 km/h (2 Bft) 100,00 %
27.02.2016 06:12 -1,6 C 84 % 1006,5 hPa 0,0 l/m 8,1 km/h (2 Bft) O-NO 67 0 min 0,000 mm 0,0 UV-I 0 W/m -3,9 C -3,4 C 12,9 km/h (3 Bft) 91,30 %
27.02.2016 06:13 -1,6 C 84 % 1006,5 hPa 0,0 l/m 6,2 km/h (2 Bft) NO 49 0 min 0,000 mm 0,0 UV-I 0 W/m -3,9 C -1,6 C 9,7 km/h (2 Bft) 100,00 %
27.02.2016 06:14 -1,6 C 84 % 1006,5 hPa 0,0 l/m 5,6 km/h (1 Bft) NO 55 0 min 0,000 mm 0,0 UV-I 0 W/m -3,9 C -1,6 C 8,0 km/h (2 Bft) 95,65 %
27.02.2016 06:15 -1,6 C 84 % 1006,5 hPa 0,0 l/m 6,4 km/h (2 Bft) O-NO 57 0 min 0,000 mm 0,0 UV-I 0 W/m -3,9 C -1,6 C 8,0 km/h (2 Bft) 100,00 %
27.02.2016 06:16 -1,7 C 84 % 1006,5 hPa 0,0 l/m 7,8 km/h (2 Bft) O-NO 65 0 min 0,000 mm 0,0 UV-I 0 W/m -4,0 C -3,2 C 9,7 km/h (2 Bft) 95,65 %
27.02.2016 06:17 -1,7 C 84 % 1006,5 hPa 0,0 l/m 6,9 km/h (2 Bft) O-NO 62 0 min 0,000 mm 0,0 UV-I 0 W/m -4,0 C -2,2 C 8,0 km/h (2 Bft) 95,83 %
27.02.2016 06:18 -1,7 C 84 % 1006,5 hPa 0,0 l/m 8,3 km/h (2 Bft) NO 51 0 min 0,000 mm 0,0 UV-I 0 W/m -4,0 C -3,7 C 12,9 km/h (3 Bft) 100,00 %
27.02.2016 06:19 -1,7 C 84 % 1006,5 hPa 0,0 l/m 7,2 km/h (2 Bft) O-NO 61 0 min 0,000 mm 0,0 UV-I 0 W/m -4,0 C -2,6 C 9,7 km/h (2 Bft) 95,83 %
27.02.2016 06:20 -1,7 C 84 % 1006,5 hPa 0,0 l/m 6,0 km/h (2 Bft) O-NO 69 0 min 0,000 mm 0,0 UV-I 0 W/m -4,0 C -1,7 C 8,0 km/h (2 Bft) 95,65 %
27.02.2016 06:21 -1,7 C 84 % 1006,5 hPa 0,0 l/m 6,6 km/h (2 Bft) O-NO 63 0 min 0,000 mm 0,0 UV-I 0 W/m -4,0 C -1,9 C 9,7 km/h (2 Bft) 95,83 %
27.02.2016 06:22 -1,7 C 84 % 1006,5 hPa 0,0 l/m 8,1 km/h (2 Bft) NO 55 0 min 0,000 mm 0,0 UV-I 0 W/m -4,0 C -3,5 C 11,3 km/h (2 Bft) 95,65 %
27.02.2016 06:23 -1,7 C 84 % 1006,5 hPa 0,0 l/m 8,2 km/h (2 Bft) NO 53 0 min 0,000 mm 0,0 UV-I 0 W/m -4,0 C -3,6 C 9,7 km/h (2 Bft) 95,83 %
27.02.2016 06:24 -1,7 C 84 % 1006,5 hPa 0,0 l/m 9,1 km/h (2 Bft) NO 44 0 min 0,000 mm 0,0 UV-I 0 W/m -4,0 C -4,5 C 12,9 km/h (3 Bft) 100,00 %
27.02.2016 06:25 -1,7 C 84 % 1006,5 hPa 0,0 l/m 7,0 km/h (2 Bft) NO 56 0 min 0,000 mm 0,0 UV-I 0 W/m -4,0 C -2,4 C 11,3 km/h (2 Bft) 95,83 %
27.02.2016 06:26 -1,7 C 84 % 1006,5 hPa 0,0 l/m 9,4 km/h (2 Bft) O-NO 61 0 min 0,000 mm 0,0 UV-I 0 W/m -4,0 C -4,8 C 12,9 km/h (3 Bft) 100,00 %
27.02.2016 06:27 -1,7 C 84 % 1006,5 hPa 0,0 l/m 10,1 km/h (2 Bft) O-NO 58 0 min 0,000 mm 0,0 UV-I 0 W/m -4,0 C -5,4 C 14,5 km/h (3 Bft) 96,15 %
27.02.2016 06:28 -1,7 C 84 % 1006,6 hPa 0,0 l/m 7,6 km/h (2 Bft) NO 51 0 min 0,000 mm 0,0 UV-I 0 W/m -4,0 C -3,0 C 11,3 km/h (2 Bft) 95,83 %
27.02.2016 06:29 -1,6 C 84 % 1006,6 hPa 0,0 l/m 9,3 km/h (2 Bft) O 87 0 min 0,000 mm 0,0 UV-I 0 W/m -3,9 C -4,6 C 12,9 km/h (3 Bft) 100,00 %
27.02.2016 06:30 -1,6 C 84 % 1006,5 hPa 0,0 l/m 9,5 km/h (2 Bft) O-NO 69 0 min 0,000 mm 0,0 UV-I 0 W/m -3,9 C -4,8 C 14,5 km/h (3 Bft) 95,83 %
27.02.2016 06:31 -1,6 C 84 % 1006,6 hPa 0,0 l/m 9,5 km/h (2 Bft) O-NO 68 0 min 0,000 mm 0,0 UV-I 0 W/m -3,9 C -4,8 C 12,9 km/h (3 Bft) 100,00 %
27.02.2016 06:32 -1,6 C 84 % 1006,6 hPa 0,0 l/m 10,5 km/h (2 Bft) O-NO 61 0 min 0,000 mm 0,0 UV-I 0 W/m -3,9 C -5,6 C 14,5 km/h (3 Bft) 95,83 %
27.02.2016 06:33 -1,6 C 84 % 1006,6 hPa 0,0 l/m 8,0 km/h (2 Bft) O-NO 61 0 min 0,000 mm 0,0 UV-I 0 W/m -3,9 C -3,3 C 12,9 km/h (3 Bft) 95,65 %
27.02.2016 06:34 -1,6 C 84 % 1006,6 hPa 0,0 l/m 9,3 km/h (2 Bft) NO 40 0 min 0,000 mm 0,0 UV-I 0 W/m -3,9 C -4,6 C 11,3 km/h (2 Bft) 95,83 %
27.02.2016 06:35 -1,6 C 84 % 1006,6 hPa 0,0 l/m 9,9 km/h (2 Bft) NO 46 0 min 0,000 mm 0,0 UV-I 0 W/m -3,9 C -5,1 C 14,5 km/h (3 Bft) 95,65 %
27.02.2016 06:36 -1,6 C 84 % 1006,6 hPa 0,0 l/m 8,2 km/h (2 Bft) O-NO 62 0 min 0,000 mm 0,0 UV-I 0 W/m -3,9 C -3,5 C 12,9 km/h (3 Bft) 96,30 %
27.02.2016 06:37 -1,6 C 84 % 1006,6 hPa 0,0 l/m 9,7 km/h (2 Bft) NO 51 0 min 0,000 mm 0,0 UV-I 0 W/m -3,9 C -5,0 C 12,9 km/h (3 Bft) 100,00 %
27.02.2016 06:38 -1,6 C 84 % 1006,6 hPa 0,0 l/m 8,1 km/h (2 Bft) O-NO 69 0 min 0,000 mm 0,0 UV-I 0 W/m -3,9 C -3,4 C 9,7 km/h (2 Bft) 100,00 %
27.02.2016 06:39 -1,6 C 84 % 1006,6 hPa 0,0 l/m 7,1 km/h (2 Bft) NO 53 0 min 0,000 mm 0,0 UV-I 0 W/m -3,9 C -2,4 C 11,3 km/h (2 Bft) 95,65 %
27.02.2016 06:40 -1,6 C 84 % 1006,6 hPa 0,0 l/m 6,9 km/h (2 Bft) O-NO 67 0 min 0,000 mm 0,0 UV-I 0 W/m -3,9 C -2,1 C 8,0 km/h (2 Bft) 100,00 %
27.02.2016 06:41 -1,6 C 84 % 1006,6 hPa 0,0 l/m 7,8 km/h (2 Bft) O-NO 67 0 min 0,000 mm 0,0 UV-I 0 W/m -3,9 C -3,1 C 12,9 km/h (3 Bft) 100,00 %
27.02.2016 06:42 -1,6 C 84 % 1006,6 hPa 0,0 l/m 6,4 km/h (2 Bft) O-NO 63 0 min 0,000 mm 0,0 UV-I 0 W/m -3,9 C -1,6 C 9,7 km/h (2 Bft) 95,83 %
27.02.2016 06:43 -1,6 C 84 % 1006,6 hPa 0,0 l/m 6,5 km/h (2 Bft) NO 51 0 min 0,000 mm 0,0 UV-I 0 W/m -3,9 C -1,7 C 8,0 km/h (2 Bft) 100,00 %
27.02.2016 06:44 -1,6 C 84 % 1006,7 hPa 0,0 l/m 5,7 km/h (1 Bft) O 79 0 min 0,000 mm 0,0 UV-I 0 W/m -3,9 C -1,6 C 9,7 km/h (2 Bft) 100,00 %
27.02.2016 06:45 -1,6 C 84 % 1006,6 hPa 0,0 l/m 5,4 km/h (1 Bft) O-NO 75 0 min 0,000 mm 0,0 UV-I 0 W/m -3,9 C -1,6 C 8,0 km/h (2 Bft) 95,83 %
27.02.2016 06:46 -1,6 C 84 % 1006,7 hPa 0,0 l/m 7,8 km/h (2 Bft) O 79 0 min 0,000 mm 0,0 UV-I 0 W/m -3,9 C -3,1 C 11,3 km/h (2 Bft) 95,65 %
27.02.2016 06:47 -1,6 C 84 % 1006,6 hPa 0,0 l/m 7,1 km/h (2 Bft) O-NO 74 0 min 0,000 mm 0,0 UV-I 0 W/m -3,9 C -2,4 C 9,7 km/h (2 Bft) 100,00 %
27.02.2016 06:48 -1,7 C 84 % 1006,6 hPa 0,0 l/m 6,7 km/h (2 Bft) NO 52 0 min 0,000 mm 0,0 UV-I 0 W/m -4,0 C -2,0 C 11,3 km/h (2 Bft) 100,00 %
27.02.2016 06:49 -1,7 C 84 % 1006,6 hPa 0,0 l/m 8,4 km/h (2 Bft) O 82 0 min 0,000 mm 0,0 UV-I 0 W/m -4,0 C -3,8 C 9,7 km/h (2 Bft) 100,00 %
27.02.2016 06:50 -1,7 C 84 % 1006,6 hPa 0,0 l/m 7,2 km/h (2 Bft) O 80 0 min 0,000 mm 0,0 UV-I 0 W/m -4,0 C -2,6 C 9,7 km/h (2 Bft) 96,15 %
27.02.2016 06:51 -1,7 C 84 % 1006,6 hPa 0,0 l/m 8,9 km/h (2 Bft) O-NO 69 0 min 0,000 mm 0,0 UV-I 3 W/m -4,0 C -4,3 C 11,3 km/h (2 Bft) 100,00 %
27.02.2016 06:52 -1,6 C 84 % 1006,6 hPa 0,0 l/m 8,7 km/h (2 Bft) O-NO 59 0 min 0,000 mm 0,0 UV-I 5 W/m -3,9 C -4,0 C 11,3 km/h (2 Bft) 95,65 %
27.02.2016 06:53 -1,6 C 84 % 1006,6 hPa 0,0 l/m 9,8 km/h (2 Bft) O-NO 74 0 min 0,000 mm 0,0 UV-I 5 W/m -3,9 C -5,0 C 12,9 km/h (3 Bft) 100,00 %
27.02.2016 06:54 -1,6 C 84 % 1006,6 hPa 0,0 l/m 8,4 km/h (2 Bft) O-NO 66 0 min 0,000 mm 0,0 UV-I 5 W/m -3,9 C -3,7 C 11,3 km/h (2 Bft) 100,00 %
27.02.2016 06:55 -1,6 C 84 % 1006,6 hPa 0,0 l/m 6,9 km/h (2 Bft) O-NO 71 0 min 0,000 mm 0,0 UV-I 6 W/m -3,9 C -2,1 C 9,7 km/h (2 Bft) 100,00 %
27.02.2016 06:56 -1,6 C 84 % 1006,5 hPa 0,0 l/m 5,9 km/h (2 Bft) NO 40 0 min 0,000 mm 0,0 UV-I 7 W/m -3,9 C -1,6 C 8,0 km/h (2 Bft) 95,65 %
27.02.2016 06:57 -1,6 C 84 % 1006,5 hPa 0,0 l/m 7,3 km/h (2 Bft) NO 38 0 min 0,000 mm 0,0 UV-I 7 W/m -3,9 C -2,6 C 11,3 km/h (2 Bft) 100,00 %
27.02.2016 06:58 -1,7 C 85 % 1006,5 hPa 0,0 l/m 8,9 km/h (2 Bft) NO 36 0 min 0,000 mm 0,0 UV-I 8 W/m -3,9 C -4,3 C 12,9 km/h (3 Bft) 100,00 %
27.02.2016 06:59 -1,7 C 85 % 1006,5 hPa 0,0 l/m 8,7 km/h (2 Bft) NO 34 0 min 0,000 mm 0,0 UV-I 9 W/m -3,9 C -4,1 C 11,3 km/h (2 Bft) 100,00 %
27.02.2016 07:00 -1,7 C 85 % 1006,5 hPa 0,0 l/m 9,1 km/h (2 Bft) NO 37 0 min 0,000 mm 0,0 UV-I 9 W/m -3,9 C -4,5 C 12,9 km/h (3 Bft) 100,00 %
27.02.2016 07:01 -1,7 C 85 % 1006,5 hPa 0,0 l/m 7,9 km/h (2 Bft) N-NO 30 1 min 0,000 mm 0,0 UV-I 11 W/m -3,9 C -3,3 C 11,3 km/h (2 Bft) 100,00 %
27.02.2016 07:02 -1,8 C 85 % 1006,5 hPa 0,0 l/m 10,6 km/h (2 Bft) NO 45 0 min 0,000 mm 0,0 UV-I 11 W/m -4,0 C -6,0 C 14,5 km/h (3 Bft) 95,65 %
27.02.2016 07:03 -1,8 C 85 % 1006,5 hPa 0,0 l/m 8,0 km/h (2 Bft) NO 42 0 min 0,000 mm 0,0 UV-I 12 W/m -4,0 C -3,5 C 12,9 km/h (3 Bft) 96,30 %
27.02.2016 07:04 -1,8 C 85 % 1006,5 hPa 0,0 l/m 6,0 km/h (2 Bft) O-NO 61 0 min 0,000 mm 0,0 UV-I 12 W/m -4,0 C -1,8 C 11,3 km/h (2 Bft) 100,00 %
27.02.2016 07:05 -1,8 C 85 % 1006,5 hPa 0,0 l/m 5,9 km/h (2 Bft) O-NO 61 0 min 0,000 mm 0,0 UV-I 14 W/m -4,0 C -1,8 C 8,0 km/h (2 Bft) 100,00 %
27.02.2016 07:06 -1,8 C 85 % 1006,6 hPa 0,0 l/m 6,3 km/h (2 Bft) O-NO 61 0 min 0,000 mm 0,0 UV-I 14 W/m -4,0 C -1,8 C 12,9 km/h (3 Bft) 100,00 %
27.02.2016 07:07 -1,7 C 85 % 1006,5 hPa 0,0 l/m 9,1 km/h (2 Bft) O-NO 68 0 min 0,000 mm 0,0 UV-I 15 W/m -3,9 C -4,5 C 14,5 km/h (3 Bft) 100,00 %
27.02.2016 07:08 -1,7 C 85 % 1006,6 hPa 0,0 l/m 8,0 km/h (2 Bft) NO 56 0 min 0,000 mm 0,0 UV-I 16 W/m -3,9 C -3,4 C 9,7 km/h (2 Bft) 100,00 %
27.02.2016 07:09 -1,7 C 85 % 1006,6 hPa 0,0 l/m 5,9 km/h (2 Bft) O-NO 57 0 min 0,000 mm 0,0 UV-I 17 W/m -3,9 C -1,7 C 8,0 km/h (2 Bft) 100,00 %
27.02.2016 07:10 -1,7 C 85 % 1006,6 hPa 0,0 l/m 8,1 km/h (2 Bft) N-NO 22 0 min 0,000 mm 0,0 UV-I 18 W/m -3,9 C -3,5 C 11,3 km/h (2 Bft) 100,00 %
27.02.2016 07:11 -1,7 C 85 % 1006,6 hPa 0,0 l/m 8,5 km/h (2 Bft) N-NO 22 0 min 0,000 mm 0,0 UV-I 19 W/m -3,9 C -3,9 C 14,5 km/h (3 Bft) 91,67 %
27.02.2016 07:12 -1,7 C 85 % 1006,6 hPa 0,0 l/m 7,0 km/h (2 Bft) NO 51 0 min 0,000 mm 0,0 UV-I 19 W/m -3,9 C -2,4 C 9,7 km/h (2 Bft) 96,43 %
27.02.2016 07:13 -1,7 C 85 % 1006,6 hPa 0,0 l/m 7,4 km/h (2 Bft) NO 36 0 min 0,000 mm 0,0 UV-I 21 W/m -3,9 C -2,8 C 14,5 km/h (3 Bft) 91,30 %
27.02.2016 07:14 -1,7 C 85 % 1006,7 hPa 0,0 l/m 6,7 km/h (2 Bft) NO 53 0 min 0,000 mm 0,0 UV-I 22 W/m -3,9 C -2,0 C 8,0 km/h (2 Bft) 100,00 %
27.02.2016 07:15 -1,6 C 85 % 1006,7 hPa 0,0 l/m 6,6 km/h (2 Bft) O-NO 60 0 min 0,000 mm 0,0 UV-I 24 W/m -3,8 C -1,8 C 9,7 km/h (2 Bft) 100,00 %
27.02.2016 07:16 -1,6 C 85 % 1006,7 hPa 0,0 l/m 8,2 km/h (2 Bft) O 81 0 min 0,000 mm 0,0 UV-I 25 W/m -3,8 C -3,5 C 12,9 km/h (3 Bft) 100,00 %
27.02.2016 07:17 -1,6 C 85 % 1006,7 hPa 0,0 l/m 6,7 km/h (2 Bft) O-NO 61 0 min 0,000 mm 0,0 UV-I 26 W/m -3,8 C -1,9 C 8,0 km/h (2 Bft) 95,65 %
27.02.2016 07:18 -1,6 C 85 % 1006,7 hPa 0,0 l/m 9,0 km/h (2 Bft) O-NO 58 0 min 0,000 mm 0,0 UV-I 26 W/m -3,8 C -4,3 C 12,9 km/h (3 Bft) 100,00 %
27.02.2016 07:19 -1,6 C 85 % 1006,8 hPa 0,0 l/m 8,8 km/h (2 Bft) NO 42 0 min 0,000 mm 0,0 UV-I 28 W/m -3,8 C -4,1 C 12,9 km/h (3 Bft) 100,00 %
27.02.2016 07:20 -1,6 C 85 % 1006,8 hPa 0,0 l/m 8,1 km/h (2 Bft) O-NO 68 0 min 0,000 mm 0,0 UV-I 29 W/m -3,8 C -3,4 C 9,7 km/h (2 Bft) 100,00 %
27.02.2016 07:21 -1,6 C 85 % 1006,8 hPa 0,0 l/m 7,0 km/h (2 Bft) O-NO 59 0 min 0,000 mm 0,0 UV-I 30 W/m -3,8 C -2,3 C 9,7 km/h (2 Bft) 100,00 %
27.02.2016 07:22 -1,6 C 85 % 1006,9 hPa 0,0 l/m 7,0 km/h (2 Bft) O-NO 60 0 min 0,000 mm 0,0 UV-I 32 W/m -3,8 C -2,3 C 11,3 km/h (2 Bft) 100,00 %
27.02.2016 07:23 -1,6 C 85 % 1006,9 hPa 0,0 l/m 5,3 km/h (1 Bft) NO 44 0 min 0,000 mm 0,0 UV-I 32 W/m -3,8 C -1,6 C 8,0 km/h (2 Bft) 100,00 %
27.02.2016 07:24 -1,6 C 85 % 1006,9 hPa 0,0 l/m 6,3 km/h (2 Bft) NO 44 0 min 0,000 mm 0,0 UV-I 33 W/m -3,8 C -1,6 C 8,0 km/h (2 Bft) 100,00 %
27.02.2016 07:25 -1,6 C 85 % 1006,9 hPa 0,0 l/m 5,4 km/h (1 Bft) O-NO 58 0 min 0,000 mm 0,0 UV-I 33 W/m -3,8 C -1,6 C 8,0 km/h (2 Bft) 95,65 %
27.02.2016 07:26 -1,6 C 85 % 1006,9 hPa 0,0 l/m 4,8 km/h (1 Bft) O-NO 67 0 min 0,000 mm 0,0 UV-I 34 W/m -3,8 C -1,6 C 8,0 km/h (2 Bft) 100,00 %
27.02.2016 07:27 -1,6 C 85 % 1007,0 hPa 0,0 l/m 3,6 km/h (1 Bft) O-NO 59 0 min 0,000 mm 0,0 UV-I 36 W/m -3,8 C -1,6 C 4,8 km/h (1 Bft) 100,00 %
27.02.2016 07:28 -1,6 C 85 % 1007,0 hPa 0,0 l/m 5,7 km/h (1 Bft) O-NO 69 0 min 0,000 mm 0,0 UV-I 37 W/m -3,8 C -1,6 C 6,4 km/h (2 Bft) 100,00 %
27.02.2016 07:29 -1,6 C 85 % 1007,1 hPa 0,0 l/m 5,6 km/h (1 Bft) NO 47 0 min 0,000 mm 0,0 UV-I 39 W/m -3,8 C -1,6 C 6,4 km/h (2 Bft) 95,83 %
27.02.2016 07:30 -1,6 C 85 % 1007,1 hPa 0,0 l/m 6,4 km/h (2 Bft) NO 55 0 min 0,000 mm 0,0 UV-I 39 W/m -3,8 C -1,6 C 8,0 km/h (2 Bft) 100,00 %
27.02.2016 07:31 -1,6 C 85 % 1007,1 hPa 0,0 l/m 5,6 km/h (1 Bft) NO 55 0 min 0,000 mm 0,0 UV-I 40 W/m -3,8 C -1,6 C 6,4 km/h (2 Bft) 100,00 %
27.02.2016 07:32 -1,6 C 85 % 1007,1 hPa 0,0 l/m 4,1 km/h (1 Bft) NO 48 0 min 0,000 mm 0,0 UV-I 41 W/m -3,8 C -1,6 C 6,4 km/h (2 Bft) 100,00 %
27.02.2016 07:33 -1,5 C 85 % 1007,1 hPa 0,0 l/m 5,2 km/h (1 Bft) NO 53 0 min 0,000 mm 0,0 UV-I 42 W/m -3,7 C -1,5 C 8,0 km/h (2 Bft) 100,00 %
27.02.2016 07:34 -1,5 C 85 % 1007,2 hPa 0,0 l/m 3,8 km/h (1 Bft) O-NO 58 0 min 0,000 mm 0,0 UV-I 44 W/m -3,7 C -1,5 C 6,4 km/h (2 Bft) 100,00 %
27.02.2016 07:35 -1,5 C 85 % 1007,2 hPa 0,0 l/m 4,2 km/h (1 Bft) O-NO 58 0 min 0,000 mm 0,0 UV-I 44 W/m -3,7 C -1,5 C 6,4 km/h (2 Bft) 100,00 %
27.02.2016 07:36 -1,5 C 85 % 1007,2 hPa 0,0 l/m 3,1 km/h (1 Bft) NO 55 0 min 0,000 mm 0,0 UV-I 46 W/m -3,7 C -1,5 C 4,8 km/h (1 Bft) 100,00 %
27.02.2016 07:37 -1,5 C 85 % 1007,2 hPa 0,0 l/m 3,0 km/h (1 Bft) NO 55 0 min 0,000 mm 0,0 UV-I 46 W/m -3,7 C -1,5 C 4,8 km/h (1 Bft) 100,00 %
27.02.2016 07:38 -1,4 C 85 % 1007,2 hPa 0,0 l/m 4,2 km/h (1 Bft) O-NO 71 0 min 0,000 mm 0,0 UV-I 48 W/m -3,6 C -1,4 C 6,4 km/h (2 Bft) 95,65 %
27.02.2016 07:39 -1,4 C 85 % 1007,2 hPa 0,0 l/m 4,4 km/h (1 Bft) NO 53 0 min 0,000 mm 0,0 UV-I 49 W/m -3,6 C -1,4 C 6,4 km/h (2 Bft) 100,00 %
27.02.2016 07:40 -1,4 C 85 % 1007,2 hPa 0,0 l/m 3,6 km/h (1 Bft) NO 48 0 min 0,000 mm 0,0 UV-I 51 W/m -3,6 C -1,4 C 4,8 km/h (1 Bft) 95,65 %
27.02.2016 07:41 -1,4 C 85 % 1007,2 hPa 0,0 l/m 3,6 km/h (1 Bft) NO 44 0 min 0,000 mm 0,0 UV-I 51 W/m -3,6 C -1,4 C 4,8 km/h (1 Bft) 100,00 %
27.02.2016 07:42 -1,4 C 85 % 1007,2 hPa 0,0 l/m 2,7 km/h (1 Bft) NO 55 0 min 0,000 mm 0,0 UV-I 53 W/m -3,6 C -1,4 C 3,2 km/h (1 Bft) 100,00 %
27.02.2016 07:43 -1,4 C 85 % 1007,2 hPa 0,0 l/m 4,2 km/h (1 Bft) NO 41 0 min 0,000 mm 0,0 UV-I 54 W/m -3,6 C -1,4 C 6,4 km/h (2 Bft) 100,00 %
27.02.2016 07:44 -1,4 C 85 % 1007,2 hPa 0,0 l/m 5,0 km/h (1 Bft) N-NO 32 0 min 0,000 mm 0,0 UV-I 55 W/m -3,6 C -1,4 C 6,4 km/h (2 Bft) 100,00 %
27.02.2016 07:45 -1,4 C 85 % 1007,2 hPa 0,0 l/m 6,4 km/h (2 Bft) NO 34 0 min 0,000 mm 0,0 UV-I 56 W/m -3,6 C -1,4 C 9,7 km/h (2 Bft) 100,00 %
27.02.2016 07:46 -1,4 C 85 % 1007,2 hPa 0,0 l/m 5,8 km/h (2 Bft) NO 35 0 min 0,000 mm 0,0 UV-I 58 W/m -3,6 C -1,4 C 6,4 km/h (2 Bft) 100,00 %
27.02.2016 07:47 -1,4 C 85 % 1007,2 hPa 0,0 l/m 5,5 km/h (1 Bft) NO 52 0 min 0,000 mm 0,0 UV-I 60 W/m -3,6 C -1,4 C 12,9 km/h (3 Bft) 100,00 %
27.02.2016 07:48 -1,4 C 85 % 1007,2 hPa 0,0 l/m 7,4 km/h (2 Bft) NO 51 0 min 0,000 mm 0,0 UV-I 61 W/m -3,6 C -2,5 C 9,7 km/h (2 Bft) 100,00 %
27.02.2016 07:49 -1,4 C 85 % 1007,2 hPa 0,0 l/m 4,5 km/h (1 Bft) NO 55 0 min 0,000 mm 0,0 UV-I 62 W/m -3,6 C -1,4 C 6,4 km/h (2 Bft) 100,00 %
27.02.2016 07:50 -1,3 C 85 % 1007,2 hPa 0,0 l/m 4,7 km/h (1 Bft) NO 54 0 min 0,000 mm 0,0 UV-I 63 W/m -3,5 C -1,3 C 9,7 km/h (2 Bft) 100,00 %
27.02.2016 07:51 -1,3 C 85 % 1007,2 hPa 0,0 l/m 4,8 km/h (1 Bft) NO 47 0 min 0,000 mm 0,0 UV-I 64 W/m -3,5 C -1,3 C 8,0 km/h (2 Bft) 100,00 %
27.02.2016 07:52 -1,3 C 85 % 1007,2 hPa 0,0 l/m 4,8 km/h (1 Bft) NO 40 0 min 0,000 mm 0,0 UV-I 67 W/m -3,5 C -1,3 C 6,4 km/h (2 Bft) 100,00 %
27.02.2016 07:53 -1,3 C 85 % 1007,2 hPa 0,0 l/m 7,4 km/h (2 Bft) O-NO 57 0 min 0,000 mm 0,0 UV-I 67 W/m -3,5 C -2,4 C 9,7 km/h (2 Bft) 100,00 %
27.02.2016 07:54 -1,3 C 85 % 1007,2 hPa 0,0 l/m 7,8 km/h (2 Bft) NO 38 0 min 0,000 mm 0,0 UV-I 69 W/m -3,5 C -2,8 C 12,9 km/h (3 Bft) 95,83 %
27.02.2016 07:55 -1,3 C 85 % 1007,2 hPa 0,0 l/m 8,5 km/h (2 Bft) N-NO 32 0 min 0,000 mm 0,0 UV-I 71 W/m -3,5 C -3,5 C 9,7 km/h (2 Bft) 100,00 %
27.02.2016 07:56 -1,3 C 85 % 1007,1 hPa 0,0 l/m 5,2 km/h (1 Bft) NO 34 0 min 0,000 mm 0,0 UV-I 73 W/m -3,5 C -1,3 C 8,0 km/h (2 Bft) 100,00 %
27.02.2016 07:57 -1,2 C 85 % 1007,1 hPa 0,0 l/m 7,1 km/h (2 Bft) NO 49 0 min 0,000 mm 0,0 UV-I 75 W/m -3,4 C -2,0 C 11,3 km/h (2 Bft) 100,00 %
27.02.2016 07:58 -1,2 C 85 % 1007,1 hPa 0,0 l/m 8,3 km/h (2 Bft) NO 40 0 min 0,000 mm 0,0 UV-I 77 W/m -3,4 C -3,2 C 11,3 km/h (2 Bft) 96,30 %
27.02.2016 07:59 -1,2 C 85 % 1007,1 hPa 0,0 l/m 7,3 km/h (2 Bft) O-NO 66 0 min 0,000 mm 0,0 UV-I 77 W/m -3,4 C -2,2 C 11,3 km/h (2 Bft) 100,00 %
27.02.2016 08:00 -1,2 C 85 % 1007,1 hPa 0,0 l/m 6,1 km/h (2 Bft) NO 38 0 min 0,025 mm 0,0 UV-I 79 W/m -3,4 C -1,2 C 8,0 km/h (2 Bft) 100,00 %
27.02.2016 08:01 -1,2 C 84 % 1007,1 hPa 0,0 l/m 7,1 km/h (2 Bft) O-NO 60 0 min 0,000 mm 0,0 UV-I 79 W/m -3,5 C -2,0 C 11,3 km/h (2 Bft) 100,00 %
27.02.2016 08:02 -1,1 C 84 % 1007,1 hPa 0,0 l/m 7,3 km/h (2 Bft) N-NO 20 0 min 0,000 mm 0,0 UV-I 80 W/m -3,4 C -2,1 C 9,7 km/h (2 Bft) 95,83 %
27.02.2016 08:03 -1,1 C 84 % 1007,1 hPa 0,0 l/m 7,7 km/h (2 Bft) NO 41 0 min 0,000 mm 0,0 UV-I 81 W/m -3,4 C -2,5 C 14,5 km/h (3 Bft) 95,65 %
27.02.2016 08:04 -1,1 C 84 % 1007,1 hPa 0,0 l/m 7,8 km/h (2 Bft) NO 55 0 min 0,000 mm 0,0 UV-I 83 W/m -3,4 C -2,6 C 12,9 km/h (3 Bft) 100,00 %
27.02.2016 08:05 -1,1 C 84 % 1007,1 hPa 0,0 l/m 7,6 km/h (2 Bft) O-NO 72 0 min 0,000 mm 0,0 UV-I 84 W/m -3,4 C -2,4 C 11,3 km/h (2 Bft) 95,83 %
27.02.2016 08:06 -1,1 C 84 % 1007,1 hPa 0,0 l/m 8,0 km/h (2 Bft) O-NO 59 0 min 0,000 mm 0,0 UV-I 87 W/m -3,4 C -2,8 C 12,9 km/h (3 Bft) 100,00 %
27.02.2016 08:07 -1,1 C 84 % 1007,1 hPa 0,0 l/m 6,8 km/h (2 Bft) O-NO 64 0 min 0,000 mm 0,0 UV-I 89 W/m -3,4 C -1,5 C 9,7 km/h (2 Bft) 95,83 %
27.02.2016 08:08 -1,0 C 84 % 1007,1 hPa 0,0 l/m 8,5 km/h (2 Bft) O 80 0 min 0,000 mm 0,0 UV-I 90 W/m -3,4 C -3,2 C 14,5 km/h (3 Bft) 100,00 %
27.02.2016 08:09 -1,0 C 84 % 1007,1 hPa 0,0 l/m 6,5 km/h (2 Bft) O-NO 60 0 min 0,000 mm 0,0 UV-I 92 W/m -3,4 C -1,1 C 9,7 km/h (2 Bft) 95,83 %
27.02.2016 08:10 -1,0 C 84 % 1007,1 hPa 0,0 l/m 8,0 km/h (2 Bft) O-NO 62 0 min 0,000 mm 0,0 UV-I 98 W/m -3,4 C -2,7 C 11,3 km/h (2 Bft) 96,15 %
27.02.2016 08:11 -0,9 C 84 % 1007,1 hPa 0,0 l/m 8,8 km/h (2 Bft) NO 56 0 min 0,000 mm 0,0 UV-I 104 W/m -3,3 C -3,4 C 12,9 km/h (3 Bft) 100,00 %
27.02.2016 08:12 -0,9 C 84 % 1007,1 hPa 0,0 l/m 8,6 km/h (2 Bft) O-NO 65 0 min 0,000 mm 0,0 UV-I 111 W/m -3,3 C -3,2 C 14,5 km/h (3 Bft) 95,65 %
27.02.2016 08:13 -0,9 C 84 % 1007,1 hPa 0,0 l/m 9,3 km/h (2 Bft) O-NO 63 0 min 0,000 mm 0,0 UV-I 117 W/m -3,3 C -3,8 C 14,5 km/h (3 Bft) 95,83 %
27.02.2016 08:14 -0,9 C 84 % 1007,2 hPa 0,0 l/m 10,5 km/h (2 Bft) O-NO 58 1 min 0,000 mm 0,0 UV-I 120 W/m -3,3 C -4,9 C 14,5 km/h (3 Bft) 95,65 %
27.02.2016 08:15 -0,9 C 83 % 1007,1 hPa 0,0 l/m 9,7 km/h (2 Bft) O-NO 60 1 min 0,000 mm 0,0 UV-I 128 W/m -3,4 C -4,2 C 14,5 km/h (3 Bft) 100,00 %
27.02.2016 08:16 -0,8 C 84 % 1007,2 hPa 0,0 l/m 8,1 km/h (2 Bft) O-NO 63 1 min 0,000 mm 0,0 UV-I 128 W/m -3,2 C -2,6 C 9,7 km/h (2 Bft) 95,65 %
27.02.2016 08:17 -0,8 C 83 % 1007,2 hPa 0,0 l/m 9,3 km/h (2 Bft) NO 42 1 min 0,000 mm 0,0 UV-I 124 W/m -3,3 C -3,7 C 14,5 km/h (3 Bft) 100,00 %
27.02.2016 08:18 -0,8 C 83 % 1007,2 hPa 0,0 l/m 10,9 km/h (2 Bft) NO 56 0 min 0,000 mm 0,0 UV-I 118 W/m -3,3 C -5,1 C 14,5 km/h (3 Bft) 86,96 %
27.02.2016 08:19 -0,8 C 83 % 1007,2 hPa 0,0 l/m 11,0 km/h (2 Bft) NO 36 0 min 0,000 mm 0,0 UV-I 113 W/m -3,3 C -5,2 C 14,5 km/h (3 Bft) 96,30 %
27.02.2016 08:20 -0,8 C 83 % 1007,2 hPa 0,0 l/m 7,9 km/h (2 Bft) NO 42 0 min 0,000 mm 0,0 UV-I 110 W/m -3,3 C -2,4 C 9,7 km/h (2 Bft) 100,00 %
27.02.2016 08:21 -0,8 C 83 % 1007,2 hPa 0,0 l/m 7,6 km/h (2 Bft) O-NO 59 0 min 0,000 mm 0,0 UV-I 107 W/m -3,3 C -2,1 C 11,3 km/h (2 Bft) 95,83 %
27.02.2016 08:22 -0,8 C 83 % 1007,2 hPa 0,0 l/m 7,1 km/h (2 Bft) NO 55 0 min 0,000 mm 0,0 UV-I 107 W/m -3,3 C -1,5 C 9,7 km/h (2 Bft) 95,65 %
27.02.2016 08:23 -0,8 C 83 % 1007,3 hPa 0,0 l/m 7,2 km/h (2 Bft) O-NO 65 0 min 0,000 mm 0,0 UV-I 107 W/m -3,3 C -1,7 C 9,7 km/h (2 Bft) 95,83 %
27.02.2016 08:24 -0,7 C 83 % 1007,2 hPa 0,0 l/m 7,7 km/h (2 Bft) O-NO 71 0 min 0,000 mm 0,0 UV-I 108 W/m -3,2 C -2,1 C 9,7 km/h (2 Bft) 100,00 %
27.02.2016 08:25 -0,7 C 83 % 1007,3 hPa 0,0 l/m 9,5 km/h (2 Bft) O-NO 66 0 min 0,000 mm 0,0 UV-I 110 W/m -3,2 C -3,8 C 14,5 km/h (3 Bft) 96,15 %
27.02.2016 08:26 -0,7 C 83 % 1007,2 hPa 0,0 l/m 8,3 km/h (2 Bft) O-NO 59 0 min 0,000 mm 0,0 UV-I 111 W/m -3,2 C -2,7 C 12,9 km/h (3 Bft) 100,00 %
27.02.2016 08:27 -0,7 C 83 % 1007,2 hPa 0,0 l/m 7,8 km/h (2 Bft) O-NO 68 0 min 0,000 mm 0,0 UV-I 111 W/m -3,2 C -2,2 C 9,7 km/h (2 Bft) 91,67 %
27.02.2016 08:28 -0,7 C 83 % 1007,1 hPa 0,0 l/m 8,9 km/h (2 Bft) NO 42 0 min 0,000 mm 0,0 UV-I 111 W/m -3,2 C -3,2 C 12,9 km/h (3 Bft) 95,65 %
27.02.2016 08:29 -0,7 C 83 % 1007,1 hPa 0,0 l/m 7,3 km/h (2 Bft) N-NO 32 0 min 0,000 mm 0,0 UV-I 112 W/m -3,2 C -1,7 C 12,9 km/h (3 Bft) 100,00 %
27.02.2016 08:30 -0,7 C 83 % 1007,2 hPa 0,0 l/m 9,3 km/h (2 Bft) NO 40 0 min 0,000 mm 0,0 UV-I 113 W/m -3,2 C -3,6 C 12,9 km/h (3 Bft) 95,83 %
27.02.2016 08:31 -0,7 C 83 % 1007,1 hPa 0,0 l/m 8,6 km/h (2 Bft) O-NO 58 0 min 0,000 mm 0,0 UV-I 113 W/m -3,2 C -3,0 C 12,9 km/h (3 Bft) 100,00 %
27.02.2016 08:32 -0,7 C 83 % 1007,1 hPa 0,0 l/m 8,7 km/h (2 Bft) NO 40 0 min 0,000 mm 0,0 UV-I 113 W/m -3,2 C -3,1 C 11,3 km/h (2 Bft) 100,00 %
27.02.2016 08:33 -0,7 C 83 % 1007,2 hPa 0,0 l/m 7,7 km/h (2 Bft) NO 38 0 min 0,000 mm 0,0 UV-I 113 W/m -3,2 C -2,1 C 11,3 km/h (2 Bft) 100,00 %
27.02.2016 08:34 -0,6 C 83 % 1007,2 hPa 0,0 l/m 7,7 km/h (2 Bft) NO 37 0 min 0,000 mm 0,0 UV-I 114 W/m -3,1 C -2,0 C 11,3 km/h (2 Bft) 100,00 %
27.02.2016 08:35 -0,6 C 83 % 1007,2 hPa 0,0 l/m 9,3 km/h (2 Bft) N-NO 28 0 min 0,000 mm 0,0 UV-I 115 W/m -3,1 C -3,5 C 14,5 km/h (3 Bft) 91,30 %
27.02.2016 08:36 -0,6 C 83 % 1007,2 hPa 0,0 l/m 11,1 km/h (2 Bft) O-NO 61 0 min 0,000 mm 0,0 UV-I 117 W/m -3,1 C -5,0 C 16,1 km/h (3 Bft) 100,00 %
27.02.2016 08:37 -0,6 C 83 % 1007,2 hPa 0,0 l/m 8,3 km/h (2 Bft) NO 36 0 min 0,000 mm 0,0 UV-I 119 W/m -3,1 C -2,6 C 12,9 km/h (3 Bft) 85,71 %
27.02.2016 08:38 -0,6 C 83 % 1007,3 hPa 0,0 l/m 7,9 km/h (2 Bft) NO 50 0 min 0,000 mm 0,0 UV-I 120 W/m -3,1 C -2,2 C 12,9 km/h (3 Bft) 100,00 %
27.02.2016 08:39 -0,6 C 83 % 1007,3 hPa 0,0 l/m 6,1 km/h (2 Bft) NO 51 0 min 0,000 mm 0,0 UV-I 121 W/m -3,1 C -0,6 C 11,3 km/h (2 Bft) 100,00 %
27.02.2016 08:40 -0,6 C 83 % 1007,3 hPa 0,0 l/m 8,6 km/h (2 Bft) O-NO 58 0 min 0,000 mm 0,0 UV-I 123 W/m -3,1 C -2,9 C 11,3 km/h (2 Bft) 100,00 %
27.02.2016 08:41 -0,6 C 82 % 1007,3 hPa 0,0 l/m 9,4 km/h (2 Bft) O-NO 68 0 min 0,000 mm 0,0 UV-I 125 W/m -3,3 C -3,6 C 12,9 km/h (3 Bft) 100,00 %
27.02.2016 08:42 -0,5 C 82 % 1007,3 hPa 0,0 l/m 7,0 km/h (2 Bft) NO 53 0 min 0,000 mm 0,0 UV-I 126 W/m -3,2 C -1,1 C 8,0 km/h (2 Bft) 100,00 %
27.02.2016 08:43 -0,5 C 82 % 1007,3 hPa 0,0 l/m 8,9 km/h (2 Bft) O-NO 58 0 min 0,000 mm 0,0 UV-I 128 W/m -3,2 C -3,0 C 12,9 km/h (3 Bft) 100,00 %
27.02.2016 08:44 -0,5 C 82 % 1007,5 hPa 0,0 l/m 13,5 km/h (3 Bft) O 81 0 min 0,000 mm 0,0 UV-I 128 W/m -3,2 C -6,6 C 16,1 km/h (3 Bft) 100,00 %
27.02.2016 08:45 -0,5 C 82 % 1007,5 hPa 0,0 l/m 10,6 km/h (2 Bft) O-NO 59 0 min 0,000 mm 0,0 UV-I 130 W/m -3,2 C -4,5 C 16,1 km/h (3 Bft) 95,65 %
27.02.2016 08:46 -0,5 C 82 % 1007,5 hPa 0,0 l/m 11,1 km/h (2 Bft) O-NO 69 0 min 0,000 mm 0,0 UV-I 133 W/m -3,2 C -4,9 C 14,5 km/h (3 Bft) 100,00 %
27.02.2016 08:47 -0,4 C 82 % 1007,5 hPa 0,0 l/m 11,2 km/h (2 Bft) O-NO 65 0 min 0,000 mm 0,0 UV-I 136 W/m -3,1 C -4,9 C 14,5 km/h (3 Bft) 100,00 %
27.02.2016 08:48 -0,4 C 82 % 1007,5 hPa 0,0 l/m 11,7 km/h (2 Bft) NO 51 0 min 0,000 mm 0,0 UV-I 138 W/m -3,1 C -5,2 C 16,1 km/h (3 Bft) 95,65 %
27.02.2016 08:49 -0,4 C 82 % 1007,5 hPa 0,0 l/m 9,8 km/h (2 Bft) NO 48 0 min 0,000 mm 0,0 UV-I 139 W/m -3,1 C -3,7 C 12,9 km/h (3 Bft) 96,30 %
27.02.2016 08:50 -0,4 C 82 % 1007,5 hPa 0,0 l/m 8,2 km/h (2 Bft) NO 47 0 min 0,000 mm 0,0 UV-I 141 W/m -3,1 C -2,3 C 12,9 km/h (3 Bft) 91,30 %
27.02.2016 08:51 -0,4 C 82 % 1007,5 hPa 0,0 l/m 9,7 km/h (2 Bft) NO 46 0 min 0,000 mm 0,0 UV-I 144 W/m -3,1 C -3,6 C 14,5 km/h (3 Bft) 100,00 %
27.02.2016 08:52 -0,4 C 82 % 1007,5 hPa 0,0 l/m 9,1 km/h (2 Bft) O-NO 61 0 min 0,000 mm 0,0 UV-I 149 W/m -3,1 C -3,1 C 12,9 km/h (3 Bft) 91,30 %
27.02.2016 08:53 -0,4 C 82 % 1007,5 hPa 0,0 l/m 7,4 km/h (2 Bft) O-NO 68 0 min 0,000 mm 0,0 UV-I 155 W/m -3,1 C -1,5 C 9,7 km/h (2 Bft) 100,00 %
27.02.2016 08:54 -0,3 C 82 % 1007,4 hPa 0,0 l/m 8,8 km/h (2 Bft) NO 51 0 min 0,000 mm 0,0 UV-I 160 W/m -3,0 C -2,7 C 12,9 km/h (3 Bft) 100,00 %
27.02.2016 08:55 -0,3 C 82 % 1007,4 hPa 0,0 l/m 9,1 km/h (2 Bft) NO 53 0 min 0,000 mm 0,0 UV-I 167 W/m -3,0 C -3,0 C 16,1 km/h (3 Bft) 100,00 %
27.02.2016 08:56 -0,3 C 82 % 1007,4 hPa 0,0 l/m 9,8 km/h (2 Bft) NO 56 0 min 0,000 mm 0,0 UV-I 171 W/m -3,0 C -3,6 C 14,5 km/h (3 Bft) 100,00 %
27.02.2016 08:57 -0,3 C 82 % 1007,4 hPa 0,0 l/m 8,0 km/h (2 Bft) O-NO 66 1 min 0,000 mm 0,0 UV-I 177 W/m -3,0 C -2,0 C 14,5 km/h (3 Bft) 96,30 %
27.02.2016 08:58 -0,3 C 82 % 1007,4 hPa 0,0 l/m 12,8 km/h (3 Bft) O-NO 65 1 min 0,000 mm 0,0 UV-I 186 W/m -3,0 C -5,9 C 17,7 km/h (3 Bft) 100,00 %
27.02.2016 08:59 -0,3 C 82 % 1007,4 hPa 0,0 l/m 10,5 km/h (2 Bft) O-NO 65 1 min 0,000 mm 0,0 UV-I 190 W/m -3,0 C -4,2 C 14,5 km/h (3 Bft) 100,00 %
27.02.2016 09:00 -0,2 C 82 % 1007,4 hPa 0,0 l/m 7,5 km/h (2 Bft) O-NO 61 1 min 0,000 mm 0,0 UV-I 192 W/m -2,9 C -1,4 C 14,5 km/h (3 Bft) 100,00 %
27.02.2016 09:01 -0,2 C 82 % 1007,4 hPa 0,0 l/m 12,6 km/h (3 Bft) NO 46 1 min 0,051 mm 0,0 UV-I 193 W/m -2,9 C -5,7 C 16,1 km/h (3 Bft) 100,00 %
27.02.2016 09:02 -0,2 C 82 % 1007,4 hPa 0,0 l/m 12,3 km/h (3 Bft) O-NO 61 1 min 0,000 mm 0,0 UV-I 204 W/m -2,9 C -5,4 C 17,7 km/h (3 Bft) 100,00 %
27.02.2016 09:03 -0,2 C 82 % 1007,4 hPa 0,0 l/m 8,9 km/h (2 Bft) O-NO 59 1 min 0,000 mm 0,0 UV-I 211 W/m -2,9 C -2,7 C 12,9 km/h (3 Bft) 100,00 %
27.02.2016 09:04 -0,2 C 81 % 1007,4 hPa 0,0 l/m 8,5 km/h (2 Bft) O-NO 57 1 min 0,000 mm 0,0 UV-I 210 W/m -3,1 C -2,3 C 14,5 km/h (3 Bft) 95,65 %
27.02.2016 09:05 -0,1 C 82 % 1007,4 hPa 0,0 l/m 9,4 km/h (2 Bft) O-NO 63 1 min 0,000 mm 0,2 UV-I 204 W/m -2,8 C -3,0 C 16,1 km/h (3 Bft) 100,00 %
27.02.2016 09:06 -0,1 C 81 % 1007,4 hPa 0,0 l/m 9,9 km/h (2 Bft) O 86 1 min 0,000 mm 0,5 UV-I 199 W/m -3,0 C -3,5 C 14,5 km/h (3 Bft) 95,83 %
27.02.2016 09:07 -0,1 C 82 % 1007,4 hPa 0,0 l/m 8,2 km/h (2 Bft) NO 54 1 min 0,000 mm 0,5 UV-I 193 W/m -2,8 C -1,9 C 11,3 km/h (2 Bft) 100,00 %
27.02.2016 09:08 -0,1 C 82 % 1007,4 hPa 0,0 l/m 10,5 km/h (2 Bft) NO 55 0 min 0,000 mm 0,5 UV-I 183 W/m -2,8 C -4,0 C 14,5 km/h (3 Bft) 93,33 %
27.02.2016 09:09 -0,1 C 82 % 1007,4 hPa 0,0 l/m 6,7 km/h (2 Bft) NO 38 0 min 0,000 mm 0,5 UV-I 170 W/m -2,8 C -0,4 C 9,7 km/h (2 Bft) 100,00 %
27.02.2016 09:10 -0,1 C 82 % 1007,4 hPa 0,0 l/m 7,8 km/h (2 Bft) O-NO 68 0 min 0,000 mm 0,5 UV-I 160 W/m -2,8 C -1,6 C 14,5 km/h (3 Bft) 100,00 %
27.02.2016 09:11 0,0 C 82 % 1007,4 hPa 0,0 l/m 9,1 km/h (2 Bft) O-NO 57 0 min 0,000 mm 0,5 UV-I 156 W/m -2,7 C -2,7 C 14,5 km/h (3 Bft) 100,00 %
27.02.2016 09:12 0,0 C 81 % 1007,5 hPa 0,0 l/m 13,2 km/h (3 Bft) NO 52 0 min 0,000 mm 0,5 UV-I 152 W/m -2,9 C -5,8 C 17,7 km/h (3 Bft) 100,00 %
27.02.2016 09:13 -0,1 C 81 % 1007,4 hPa 0,0 l/m 12,7 km/h (3 Bft) NO 44 0 min 0,000 mm 0,5 UV-I 150 W/m -3,0 C -5,6 C 17,7 km/h (3 Bft) 95,65 %
27.02.2016 09:14 -0,1 C 81 % 1007,4 hPa 0,0 l/m 9,4 km/h (2 Bft) O-NO 57 0 min 0,000 mm 0,5 UV-I 149 W/m -3,0 C -3,0 C 12,9 km/h (3 Bft) 95,83 %
27.02.2016 09:15 -0,1 C 81 % 1007,4 hPa 0,0 l/m 8,1 km/h (2 Bft) O-NO 61 0 min 0,000 mm 0,5 UV-I 148 W/m -3,0 C -1,8 C 11,3 km/h (2 Bft) 96,15 %
27.02.2016 09:16 -0,1 C 82 % 1007,3 hPa 0,0 l/m 7,4 km/h (2 Bft) NO 34 0 min 0,000 mm 0,5 UV-I 148 W/m -2,8 C -1,1 C 9,7 km/h (2 Bft) 100,00 %
27.02.2016 09:17 0,0 C 81 % 1007,3 hPa 0,0 l/m 8,9 km/h (2 Bft) NO 55 0 min 0,000 mm 0,5 UV-I 150 W/m -2,9 C -2,5 C 12,9 km/h (3 Bft) 100,00 %
27.02.2016 09:18 -0,1 C 81 % 1007,3 hPa 0,0 l/m 9,5 km/h (2 Bft) NO 48 0 min 0,000 mm 0,5 UV-I 151 W/m -3,0 C -3,1 C 14,5 km/h (3 Bft) 100,00 %
27.02.2016 09:19 -0,1 C 81 % 1007,3 hPa 0,0 l/m 10,2 km/h (2 Bft) O-NO 63 0 min 0,000 mm 0,5 UV-I 151 W/m -3,0 C -3,7 C 14,5 km/h (3 Bft) 100,00 %
27.02.2016 09:20 0,0 C 81 % 1007,3 hPa 0,0 l/m 10,3 km/h (2 Bft) NO 55 0 min 0,000 mm 0,5 UV-I 151 W/m -2,9 C -3,7 C 14,5 km/h (3 Bft) 100,00 %
27.02.2016 09:21 0,0 C 81 % 1007,3 hPa 0,0 l/m 8,1 km/h (2 Bft) NO 54 0 min 0,000 mm 0,5 UV-I 151 W/m -2,9 C -1,7 C 12,9 km/h (3 Bft) 95,65 %
27.02.2016 09:22 0,0 C 81 % 1007,3 hPa 0,0 l/m 6,4 km/h (2 Bft) NO 55 0 min 0,000 mm 0,5 UV-I 152 W/m -2,9 C 0,0 C 9,7 km/h (2 Bft) 100,00 %
27.02.2016 09:23 0,0 C 81 % 1007,3 hPa 0,0 l/m 6,7 km/h (2 Bft) NO 38 0 min 0,000 mm 0,5 UV-I 153 W/m -2,9 C -0,3 C 11,3 km/h (2 Bft) 100,00 %
27.02.2016 09:24 0,1 C 81 % 1007,3 hPa 0,0 l/m 7,8 km/h (2 Bft) NO 44 0 min 0,000 mm 0,5 UV-I 153 W/m -2,8 C -1,3 C 9,7 km/h (2 Bft) 100,00 %
27.02.2016 09:25 0,1 C 81 % 1007,2 hPa 0,0 l/m 9,0 km/h (2 Bft) NO 38 0 min 0,000 mm 0,5 UV-I 153 W/m -2,8 C -2,5 C 12,9 km/h (3 Bft) 92,31 %
27.02.2016 09:26 0,1 C 82 % 1007,3 hPa 0,0 l/m 9,5 km/h (2 Bft) O-NO 69 0 min 0,000 mm 0,5 UV-I 155 W/m -2,6 C -2,9 C 14,5 km/h (3 Bft) 100,00 %
27.02.2016 09:27 0,1 C 81 % 1007,2 hPa 0,0 l/m 6,8 km/h (2 Bft) N-NO 17 0 min 0,000 mm 0,5 UV-I 155 W/m -2,8 C -0,3 C 9,7 km/h (2 Bft) 95,65 %
27.02.2016 09:28 0,1 C 81 % 1007,2 hPa 0,0 l/m 7,2 km/h (2 Bft) NO 46 0 min 0,000 mm 0,5 UV-I 155 W/m -2,8 C -0,7 C 11,3 km/h (2 Bft) 100,00 %
27.02.2016 09:29 0,1 C 81 % 1007,3 hPa 0,0 l/m 8,1 km/h (2 Bft) NO 55 0 min 0,000 mm 0,5 UV-I 156 W/m -2,8 C -1,6 C 11,3 km/h (2 Bft) 100,00 %
27.02.2016 09:30 0,1 C 82 % 1007,3 hPa 0,0 l/m 7,2 km/h (2 Bft) NO 47 0 min 0,000 mm 0,5 UV-I 157 W/m -2,6 C -0,7 C 9,7 km/h (2 Bft) 100,00 %
27.02.2016 09:31 0,1 C 82 % 1007,3 hPa 0,0 l/m 7,8 km/h (2 Bft) N-NO 28 0 min 0,000 mm 0,5 UV-I 158 W/m -2,6 C -1,3 C 11,3 km/h (2 Bft) 100,00 %
27.02.2016 09:32 0,1 C 82 % 1007,3 hPa 0,0 l/m 9,3 km/h (2 Bft) NO 48 0 min 0,000 mm 0,5 UV-I 160 W/m -2,6 C -2,7 C 12,9 km/h (3 Bft) 100,00 %
27.02.2016 09:33 0,2 C 82 % 1007,3 hPa 0,0 l/m 7,4 km/h (2 Bft) O-NO 63 0 min 0,000 mm 0,5 UV-I 160 W/m -2,5 C -0,8 C 9,7 km/h (2 Bft) 100,00 %
27.02.2016 09:34 0,2 C 82 % 1007,3 hPa 0,0 l/m 5,9 km/h (2 Bft) NO 47 0 min 0,000 mm 0,5 UV-I 162 W/m -2,5 C 0,2 C 9,7 km/h (2 Bft) 100,00 %
27.02.2016 09:35 0,2 C 81 % 1007,2 hPa 0,0 l/m 6,4 km/h (2 Bft) O-NO 61 0 min 0,000 mm 0,5 UV-I 164 W/m -2,7 C 0,2 C 8,0 km/h (2 Bft) 100,00 %
27.02.2016 09:36 0,2 C 81 % 1007,3 hPa 0,0 l/m 9,4 km/h (2 Bft) NO 42 0 min 0,000 mm 0,5 UV-I 166 W/m -2,7 C -2,7 C 12,9 km/h (3 Bft) 95,65 %
27.02.2016 09:37 0,2 C 81 % 1007,2 hPa 0,0 l/m 8,5 km/h (2 Bft) O-NO 63 0 min 0,000 mm 0,5 UV-I 169 W/m -2,7 C -1,9 C 11,3 km/h (2 Bft) 100,00 %
27.02.2016 09:38 0,2 C 81 % 1007,2 hPa 0,0 l/m 10,4 km/h (2 Bft) NO 53 0 min 0,000 mm 0,5 UV-I 169 W/m -2,7 C -3,6 C 14,5 km/h (3 Bft) 100,00 %
27.02.2016 09:39 0,2 C 81 % 1007,2 hPa 0,0 l/m 11,1 km/h (2 Bft) NO 43 0 min 0,000 mm 0,5 UV-I 172 W/m -2,7 C -4,1 C 14,5 km/h (3 Bft) 100,00 %
27.02.2016 09:40 0,2 C 81 % 1007,2 hPa 0,0 l/m 8,7 km/h (2 Bft) NO 43 0 min 0,000 mm 0,5 UV-I 174 W/m -2,7 C -2,1 C 12,9 km/h (3 Bft) 100,00 %
27.02.2016 09:41 0,2 C 81 % 1007,2 hPa 0,0 l/m 12,7 km/h (3 Bft) O-NO 72 0 min 0,000 mm 0,5 UV-I 176 W/m -2,7 C -5,3 C 16,1 km/h (3 Bft) 100,00 %
27.02.2016 09:42 0,2 C 81 % 1007,2 hPa 0,0 l/m 10,6 km/h (2 Bft) O-NO 59 0 min 0,000 mm 0,6 UV-I 179 W/m -2,7 C -3,7 C 14,5 km/h (3 Bft) 100,00 %
27.02.2016 09:43 0,2 C 81 % 1007,2 hPa 0,0 l/m 13,0 km/h (3 Bft) O-NO 62 0 min 0,000 mm 0,6 UV-I 179 W/m -2,7 C -5,5 C 17,7 km/h (3 Bft) 100,00 %
27.02.2016 09:44 0,2 C 81 % 1007,2 hPa 0,0 l/m 11,6 km/h (2 Bft) N-NO 29 0 min 0,000 mm 0,6 UV-I 181 W/m -2,7 C -4,5 C 16,1 km/h (3 Bft) 95,65 %
27.02.2016 09:45 0,2 C 81 % 1007,2 hPa 0,0 l/m 7,8 km/h (2 Bft) NO 43 0 min 0,000 mm 0,6 UV-I 184 W/m -2,7 C -1,2 C 11,3 km/h (2 Bft) 100,00 %
27.02.2016 09:46 0,2 C 81 % 1007,2 hPa 0,0 l/m 8,7 km/h (2 Bft) O-NO 59 0 min 0,000 mm 0,6 UV-I 185 W/m -2,7 C -2,1 C 9,7 km/h (2 Bft) 100,00 %
27.02.2016 09:47 0,3 C 80 % 1007,2 hPa 0,0 l/m 11,1 km/h (2 Bft) O-NO 63 0 min 0,000 mm 0,6 UV-I 186 W/m -2,7 C -4,0 C 14,5 km/h (3 Bft) 95,65 %
27.02.2016 09:48 0,3 C 80 % 1007,2 hPa 0,0 l/m 9,8 km/h (2 Bft) NO 56 0 min 0,000 mm 0,6 UV-I 187 W/m -2,7 C -3,0 C 14,5 km/h (3 Bft) 95,83 %
27.02.2016 09:49 0,3 C 80 % 1007,2 hPa 0,0 l/m 11,0 km/h (2 Bft) O-NO 74 0 min 0,000 mm 0,6 UV-I 188 W/m -2,7 C -3,9 C 16,1 km/h (3 Bft) 96,15 %
27.02.2016 09:50 0,3 C 80 % 1007,2 hPa 0,0 l/m 9,7 km/h (2 Bft) O-NO 59 0 min 0,000 mm 0,6 UV-I 190 W/m -2,7 C -2,9 C 14,5 km/h (3 Bft) 100,00 %
27.02.2016 09:51 0,3 C 80 % 1007,3 hPa 0,0 l/m 12,0 km/h (2 Bft) NO 48 0 min 0,000 mm 0,6 UV-I 190 W/m -2,7 C -4,7 C 14,5 km/h (3 Bft) 100,00 %
27.02.2016 09:52 0,3 C 80 % 1007,3 hPa 0,0 l/m 10,3 km/h (2 Bft) O-NO 69 0 min 0,000 mm 0,6 UV-I 190 W/m -2,7 C -3,4 C 16,1 km/h (3 Bft) 100,00 %
27.02.2016 09:53 0,3 C 80 % 1007,3 hPa 0,0 l/m 9,1 km/h (2 Bft) NO 51 0 min 0,000 mm 0,6 UV-I 190 W/m -2,7 C -2,4 C 14,5 km/h (3 Bft) 91,30 %
27.02.2016 09:54 0,3 C 80 % 1007,2 hPa 0,0 l/m 9,5 km/h (2 Bft) NO 49 0 min 0,000 mm 0,6 UV-I 192 W/m -2,7 C -2,7 C 12,9 km/h (3 Bft) 95,83 %
27.02.2016 09:55 0,3 C 81 % 1007,3 hPa 0,0 l/m 11,1 km/h (2 Bft) O-NO 71 0 min 0,000 mm 0,6 UV-I 192 W/m -2,6 C -4,0 C 14,5 km/h (3 Bft) 100,00 %
27.02.2016 09:56 0,3 C 80 % 1007,3 hPa 0,0 l/m 10,3 km/h (2 Bft) NO 47 0 min 0,000 mm 0,6 UV-I 193 W/m -2,7 C -3,4 C 14,5 km/h (3 Bft) 95,83 %
27.02.2016 09:57 0,3 C 80 % 1007,3 hPa 0,0 l/m 10,5 km/h (2 Bft) NO 42 0 min 0,000 mm 0,6 UV-I 194 W/m -2,7 C -3,5 C 14,5 km/h (3 Bft) 100,00 %
27.02.2016 09:58 0,4 C 80 % 1007,3 hPa 0,0 l/m 10,4 km/h (2 Bft) O-NO 58 0 min 0,000 mm 0,6 UV-I 195 W/m -2,6 C -3,3 C 12,9 km/h (3 Bft) 95,83 %
27.02.2016 09:59 0,4 C 80 % 1007,3 hPa 0,0 l/m 9,7 km/h (2 Bft) NO 51 0 min 0,000 mm 0,6 UV-I 195 W/m -2,6 C -2,8 C 14,5 km/h (3 Bft) 100,00 %
27.02.2016 10:00 0,4 C 80 % 1007,3 hPa 0,0 l/m 9,7 km/h (2 Bft) NO 53 0 min 0,000 mm 0,6 UV-I 196 W/m -2,6 C -2,8 C 14,5 km/h (3 Bft) 95,83 %
27.02.2016 10:01 0,4 C 80 % 1007,4 hPa 0,0 l/m 8,2 km/h (2 Bft) O-NO 59 0 min 0,076 mm 0,6 UV-I 199 W/m -2,6 C -1,4 C 11,3 km/h (2 Bft) 100,00 %
27.02.2016 10:02 0,4 C 80 % 1007,4 hPa 0,0 l/m 8,0 km/h (2 Bft) N-NO 29 0 min 0,000 mm 0,6 UV-I 202 W/m -2,6 C -1,2 C 11,3 km/h (2 Bft) 95,83 %
27.02.2016 10:03 0,5 C 80 % 1007,4 hPa 0,0 l/m 6,0 km/h (2 Bft) N-NO 19 0 min 0,000 mm 0,6 UV-I 205 W/m -2,5 C 0,5 C 9,7 km/h (2 Bft) 95,65 %
27.02.2016 10:04 0,5 C 80 % 1007,5 hPa 0,0 l/m 6,1 km/h (2 Bft) O-NO 61 0 min 0,000 mm 0,7 UV-I 207 W/m -2,5 C 0,5 C 8,0 km/h (2 Bft) 91,67 %
27.02.2016 10:05 0,5 C 80 % 1007,5 hPa 0,0 l/m 7,1 km/h (2 Bft) NO 43 0 min 0,000 mm 0,7 UV-I 210 W/m -2,5 C -0,2 C 9,7 km/h (2 Bft) 95,65 %
27.02.2016 10:06 0,5 C 80 % 1007,5 hPa 0,0 l/m 7,8 km/h (2 Bft) NO 53 0 min 0,000 mm 0,7 UV-I 211 W/m -2,5 C -0,9 C 9,7 km/h (2 Bft) 100,00 %
27.02.2016 10:07 0,6 C 79 % 1007,5 hPa 0,0 l/m 6,0 km/h (2 Bft) O-NO 68 0 min 0,000 mm 0,7 UV-I 213 W/m -2,6 C 0,6 C 8,0 km/h (2 Bft) 95,65 %
27.02.2016 10:08 0,6 C 80 % 1007,5 hPa 0,0 l/m 5,8 km/h (2 Bft) NO 47 0 min 0,000 mm 0,7 UV-I 214 W/m -2,4 C 0,6 C 8,0 km/h (2 Bft) 100,00 %
27.02.2016 10:09 0,6 C 80 % 1007,5 hPa 0,0 l/m 9,3 km/h (2 Bft) NO 36 0 min 0,000 mm 0,7 UV-I 216 W/m -2,4 C -2,2 C 12,9 km/h (3 Bft) 91,67 %
27.02.2016 10:10 0,6 C 80 % 1007,5 hPa 0,0 l/m 9,2 km/h (2 Bft) O-NO 62 0 min 0,000 mm 0,7 UV-I 216 W/m -2,4 C -2,1 C 12,9 km/h (3 Bft) 100,00 %
27.02.2016 10:11 0,6 C 80 % 1007,5 hPa 0,0 l/m 8,5 km/h (2 Bft) NO 47 0 min 0,000 mm 0,7 UV-I 215 W/m -2,4 C -1,5 C 11,3 km/h (2 Bft) 95,83 %
27.02.2016 10:12 0,7 C 80 % 1007,5 hPa 0,0 l/m 8,0 km/h (2 Bft) O-NO 60 0 min 0,000 mm 0,7 UV-I 214 W/m -2,3 C -0,9 C 11,3 km/h (2 Bft) 100,00 %
27.02.2016 10:13 0,7 C 79 % 1007,5 hPa 0,0 l/m 7,5 km/h (2 Bft) O-NO 60 0 min 0,000 mm 0,7 UV-I 214 W/m -2,5 C -0,4 C 12,9 km/h (3 Bft) 95,83 %
27.02.2016 10:14 0,7 C 79 % 1007,5 hPa 0,0 l/m 8,9 km/h (2 Bft) O-NO 61 0 min 0,000 mm 0,7 UV-I 214 W/m -2,5 C -1,7 C 11,3 km/h (2 Bft) 91,30 %
27.02.2016 10:15 0,7 C 79 % 1007,5 hPa 0,0 l/m 6,6 km/h (2 Bft) NO 46 0 min 0,000 mm 0,7 UV-I 217 W/m -2,5 C 0,5 C 9,7 km/h (2 Bft) 100,00 %
27.02.2016 10:16 0,7 C 79 % 1007,5 hPa 0,0 l/m 8,5 km/h (2 Bft) O-NO 61 0 min 0,000 mm 0,7 UV-I 220 W/m -2,5 C -1,4 C 12,9 km/h (3 Bft) 95,65 %
27.02.2016 10:17 0,7 C 79 % 1007,5 hPa 0,0 l/m 10,1 km/h (2 Bft) NO 48 0 min 0,000 mm 0,7 UV-I 222 W/m -2,5 C -2,8 C 14,5 km/h (3 Bft) 100,00 %
27.02.2016 10:18 0,7 C 79 % 1007,5 hPa 0,0 l/m 9,9 km/h (2 Bft) NO 44 0 min 0,000 mm 0,7 UV-I 223 W/m -2,5 C -2,6 C 14,5 km/h (3 Bft) 86,96 %
27.02.2016 10:19 0,7 C 79 % 1007,4 hPa 0,0 l/m 9,1 km/h (2 Bft) NO 39 0 min 0,000 mm 0,7 UV-I 223 W/m -2,5 C -1,9 C 12,9 km/h (3 Bft) 100,00 %
27.02.2016 10:20 0,8 C 80 % 1007,4 hPa 0,0 l/m 8,1 km/h (2 Bft) NO 44 0 min 0,000 mm 0,7 UV-I 223 W/m -2,2 C -0,9 C 11,3 km/h (2 Bft) 91,30 %
27.02.2016 10:21 0,8 C 80 % 1007,4 hPa 0,0 l/m 7,9 km/h (2 Bft) O-NO 65 0 min 0,000 mm 0,7 UV-I 223 W/m -2,2 C -0,7 C 12,9 km/h (3 Bft) 96,30 %
27.02.2016 10:22 0,8 C 79 % 1007,4 hPa 0,0 l/m 8,3 km/h (2 Bft) NO 36 0 min 0,000 mm 0,8 UV-I 224 W/m -2,4 C -1,1 C 11,3 km/h (2 Bft) 100,00 %
27.02.2016 10:25 0,8 C 79 % 1007,4 hPa 0,0 l/m 8,1 km/h (2 Bft) NO 55 0 min 0,000 mm 0,8 UV-I 229 W/m -2,4 C -0,9 C 11,3 km/h (2 Bft) 97,06 %
27.02.2016 10:26 0,8 C 78 % 1007,5 hPa 0,0 l/m 6,9 km/h (2 Bft) NO 52 0 min 0,000 mm 0,8 UV-I 231 W/m -2,6 C 0,3 C 9,7 km/h (2 Bft) 100,00 %
27.02.2016 10:27 0,9 C 78 % 1007,5 hPa 0,0 l/m 8,0 km/h (2 Bft) O-NO 63 0 min 0,000 mm 0,8 UV-I 234 W/m -2,5 C -0,7 C 12,9 km/h (3 Bft) 100,00 %
27.02.2016 10:28 0,9 C 79 % 1007,5 hPa 0,0 l/m 8,5 km/h (2 Bft) NO 53 0 min 0,000 mm 0,8 UV-I 234 W/m -2,3 C -1,2 C 14,5 km/h (3 Bft) 100,00 %
27.02.2016 10:29 0,9 C 79 % 1007,5 hPa 0,0 l/m 8,4 km/h (2 Bft) O-NO 74 0 min 0,000 mm 0,8 UV-I 234 W/m -2,3 C -1,1 C 14,5 km/h (3 Bft) 100,00 %
27.02.2016 10:30 0,9 C 78 % 1007,5 hPa 0,0 l/m 11,5 km/h (2 Bft) O-NO 59 0 min 0,000 mm 0,8 UV-I 234 W/m -2,5 C -3,6 C 16,1 km/h (3 Bft) 100,00 %
27.02.2016 10:31 1,0 C 78 % 1007,6 hPa 0,0 l/m 10,4 km/h (2 Bft) NO 54 0 min 0,000 mm 0,8 UV-I 235 W/m -2,4 C -2,7 C 14,5 km/h (3 Bft) 100,00 %
27.02.2016 10:32 1,0 C 78 % 1007,5 hPa 0,0 l/m 10,6 km/h (2 Bft) NO 56 0 min 0,000 mm 0,8 UV-I 237 W/m -2,4 C -2,8 C 14,5 km/h (3 Bft) 96,67 %
27.02.2016 10:33 1,0 C 78 % 1007,6 hPa 0,0 l/m 9,3 km/h (2 Bft) NO 53 0 min 0,000 mm 0,8 UV-I 238 W/m -2,4 C -1,8 C 12,9 km/h (3 Bft) 100,00 %
27.02.2016 10:34 1,0 C 78 % 1007,5 hPa 0,0 l/m 10,1 km/h (2 Bft) NO 46 0 min 0,000 mm 0,8 UV-I 242 W/m -2,4 C -2,4 C 12,9 km/h (3 Bft) 100,00 %
27.02.2016 10:35 1,0 C 78 % 1007,5 hPa 0,0 l/m 11,3 km/h (2 Bft) NO 46 0 min 0,000 mm 0,8 UV-I 244 W/m -2,4 C -3,3 C 16,1 km/h (3 Bft) 100,00 %
27.02.2016 10:36 1,0 C 78 % 1007,5 hPa 0,0 l/m 11,0 km/h (2 Bft) NO 50 0 min 0,000 mm 0,8 UV-I 247 W/m -2,4 C -3,1 C 14,5 km/h (3 Bft) 100,00 %
27.02.2016 10:37 1,1 C 78 % 1007,5 hPa 0,0 l/m 8,0 km/h (2 Bft) NO 36 0 min 0,000 mm 0,8 UV-I 246 W/m -2,3 C -0,5 C 9,7 km/h (2 Bft) 100,00 %
27.02.2016 10:38 1,1 C 79 % 1007,4 hPa 0,0 l/m 6,8 km/h (2 Bft) NO 48 0 min 0,000 mm 0,8 UV-I 245 W/m -2,1 C 0,7 C 14,5 km/h (3 Bft) 100,00 %
27.02.2016 10:39 1,1 C 78 % 1007,4 hPa 0,0 l/m 11,4 km/h (2 Bft) NO 45 0 min 0,000 mm 0,8 UV-I 245 W/m -2,3 C -3,3 C 16,1 km/h (3 Bft) 100,00 %
27.02.2016 10:40 1,1 C 78 % 1007,4 hPa 0,0 l/m 8,7 km/h (2 Bft) NO 44 0 min 0,000 mm 0,8 UV-I 243 W/m -2,3 C -1,1 C 12,9 km/h (3 Bft) 100,00 %
27.02.2016 10:41 1,1 C 78 % 1007,4 hPa 0,0 l/m 9,1 km/h (2 Bft) NO 49 0 min 0,000 mm 0,8 UV-I 243 W/m -2,3 C -1,5 C 12,9 km/h (3 Bft) 100,00 %
27.02.2016 10:42 1,2 C 78 % 1007,4 hPa 0,0 l/m 8,5 km/h (2 Bft) O-NO 59 0 min 0,000 mm 0,8 UV-I 244 W/m -2,2 C -0,8 C 12,9 km/h (3 Bft) 100,00 %
27.02.2016 10:43 1,2 C 78 % 1007,4 hPa 0,0 l/m 8,2 km/h (2 Bft) NO 55 0 min 0,000 mm 0,9 UV-I 244 W/m -2,2 C -0,6 C 11,3 km/h (2 Bft) 100,00 %
27.02.2016 10:44 1,2 C 78 % 1007,4 hPa 0,0 l/m 10,5 km/h (2 Bft) NO 52 0 min 0,000 mm 0,9 UV-I 244 W/m -2,2 C -2,5 C 14,5 km/h (3 Bft) 100,00 %
27.02.2016 10:45 1,2 C 78 % 1007,4 hPa 0,0 l/m 8,3 km/h (2 Bft) NO 53 0 min 0,000 mm 0,9 UV-I 246 W/m -2,2 C -0,7 C 11,3 km/h (2 Bft) 100,00 %
27.02.2016 10:46 1,2 C 78 % 1007,4 hPa 0,0 l/m 11,0 km/h (2 Bft) O-NO 60 0 min 0,000 mm 0,9 UV-I 245 W/m -2,2 C -2,9 C 14,5 km/h (3 Bft) 100,00 %
27.02.2016 10:47 1,2 C 78 % 1007,4 hPa 0,0 l/m 9,3 km/h (2 Bft) NO 40 0 min 0,000 mm 0,9 UV-I 247 W/m -2,2 C -1,5 C 11,3 km/h (2 Bft) 96,30 %
27.02.2016 10:48 1,2 C 77 % 1007,4 hPa 0,0 l/m 10,2 km/h (2 Bft) O-NO 60 0 min 0,000 mm 0,9 UV-I 246 W/m -2,4 C -2,3 C 14,5 km/h (3 Bft) 100,00 %
27.02.2016 10:49 1,2 C 78 % 1007,5 hPa 0,0 l/m 9,9 km/h (2 Bft) NO 56 0 min 0,000 mm 0,9 UV-I 248 W/m -2,2 C -2,0 C 14,5 km/h (3 Bft) 100,00 %
27.02.2016 10:50 1,2 C 78 % 1007,4 hPa 0,0 l/m 10,4 km/h (2 Bft) O-NO 69 0 min 0,000 mm 0,9 UV-I 249 W/m -2,2 C -2,4 C 16,1 km/h (3 Bft) 96,15 %
27.02.2016 10:51 1,3 C 78 % 1007,4 hPa 0,0 l/m 9,6 km/h (2 Bft) O-NO 65 0 min 0,000 mm 0,9 UV-I 250 W/m -2,1 C -1,7 C 12,9 km/h (3 Bft) 100,00 %
27.02.2016 10:52 1,3 C 78 % 1007,4 hPa 0,0 l/m 10,1 km/h (2 Bft) NO 54 0 min 0,000 mm 0,9 UV-I 251 W/m -2,1 C -2,1 C 14,5 km/h (3 Bft) 100,00 %
27.02.2016 10:53 1,3 C 78 % 1007,4 hPa 0,0 l/m 8,1 km/h (2 Bft) O-NO 65 0 min 0,000 mm 0,9 UV-I 251 W/m -2,1 C -0,4 C 12,9 km/h (3 Bft) 100,00 %
27.02.2016 10:54 1,3 C 78 % 1007,4 hPa 0,0 l/m 8,4 km/h (2 Bft) O-NO 65 0 min 0,000 mm 0,9 UV-I 251 W/m -2,1 C -0,7 C 12,9 km/h (3 Bft) 100,00 %
27.02.2016 10:55 1,3 C 77 % 1007,4 hPa 0,0 l/m 7,1 km/h (2 Bft) O-NO 63 0 min 0,000 mm 0,9 UV-I 256 W/m -2,3 C 0,6 C 9,7 km/h (2 Bft) 100,00 %
27.02.2016 10:56 1,3 C 78 % 1007,4 hPa 0,0 l/m 6,3 km/h (2 Bft) NO 55 0 min 0,000 mm 0,9 UV-I 257 W/m -2,1 C 1,3 C 8,0 km/h (2 Bft) 100,00 %
27.02.2016 10:57 1,4 C 77 % 1007,4 hPa 0,0 l/m 6,5 km/h (2 Bft) O-NO 65 0 min 0,000 mm 0,9 UV-I 257 W/m -2,2 C 1,3 C 8,0 km/h (2 Bft) 100,00 %
27.02.2016 10:58 1,4 C 77 % 1007,4 hPa 0,0 l/m 8,4 km/h (2 Bft) NO 42 0 min 0,000 mm 0,9 UV-I 257 W/m -2,2 C -0,5 C 12,9 km/h (3 Bft) 100,00 %
27.02.2016 10:59 1,4 C 78 % 1007,4 hPa 0,0 l/m 8,7 km/h (2 Bft) NO 34 0 min 0,000 mm 0,9 UV-I 258 W/m -2,0 C -0,8 C 14,5 km/h (3 Bft) 100,00 %
27.02.2016 11:00 1,5 C 78 % 1007,4 hPa 0,0 l/m 7,3 km/h (2 Bft) NO 50 0 min 0,102 mm 0,9 UV-I 258 W/m -1,9 C 0,6 C 8,0 km/h (2 Bft) 96,15 %
27.02.2016 11:02 1,5 C 77 % 1007,4 hPa 0,0 l/m 9,6 km/h (2 Bft) O-NO 60 0 min 0,000 mm 0,9 UV-I 259 W/m -2,1 C -1,5 C 14,5 km/h (3 Bft) 100,00 %
27.02.2016 11:03 1,5 C 77 % 1007,4 hPa 0,0 l/m 6,7 km/h (2 Bft) O-NO 59 0 min 0,000 mm 0,9 UV-I 260 W/m -2,1 C 1,2 C 9,7 km/h (2 Bft) 100,00 %
27.02.2016 11:04 1,6 C 77 % 1007,5 hPa 0,0 l/m 8,4 km/h (2 Bft) O-NO 59 0 min 0,000 mm 0,9 UV-I 263 W/m -2,0 C -0,3 C 9,7 km/h (2 Bft) 100,00 %
27.02.2016 11:05 1,6 C 77 % 1007,5 hPa 0,0 l/m 6,2 km/h (2 Bft) O 97 0 min 0,000 mm 0,9 UV-I 265 W/m -2,0 C 1,6 C 8,0 km/h (2 Bft) 100,00 %
27.02.2016 11:06 1,6 C 77 % 1007,5 hPa 0,0 l/m 4,8 km/h (1 Bft) O-NO 66 0 min 0,000 mm 0,9 UV-I 269 W/m -2,0 C 1,6 C 6,4 km/h (2 Bft) 100,00 %
27.02.2016 11:07 1,6 C 77 % 1007,6 hPa 0,0 l/m 7,0 km/h (2 Bft) NO 51 0 min 0,000 mm 1,0 UV-I 272 W/m -2,0 C 1,0 C 11,3 km/h (2 Bft) 95,65 %
27.02.2016 11:08 1,6 C 77 % 1007,5 hPa 0,0 l/m 8,8 km/h (2 Bft) O-NO 63 0 min 0,000 mm 1,0 UV-I 275 W/m -2,0 C -0,7 C 11,3 km/h (2 Bft) 100,00 %
27.02.2016 11:09 1,7 C 77 % 1007,6 hPa 0,0 l/m 9,2 km/h (2 Bft) NO 38 0 min 0,000 mm 1,0 UV-I 280 W/m -1,9 C -0,9 C 12,9 km/h (3 Bft) 100,00 %
27.02.2016 11:10 1,7 C 77 % 1007,5 hPa 0,0 l/m 7,2 km/h (2 Bft) NO 53 0 min 0,000 mm 1,0 UV-I 280 W/m -1,9 C 0,9 C 9,7 km/h (2 Bft) 100,00 %
27.02.2016 11:11 1,7 C 76 % 1007,6 hPa 0,0 l/m 6,1 km/h (2 Bft) NO 52 0 min 0,000 mm 1,0 UV-I 281 W/m -2,1 C 1,7 C 8,0 km/h (2 Bft) 100,00 %
27.02.2016 11:12 1,8 C 76 % 1007,6 hPa 0,0 l/m 4,6 km/h (1 Bft) O-NO 58 0 min 0,000 mm 1,0 UV-I 287 W/m -2,0 C 1,8 C 8,0 km/h (2 Bft) 100,00 %
27.02.2016 11:13 1,8 C 77 % 1007,6 hPa 0,0 l/m 4,3 km/h (1 Bft) NO 53 1 min 0,000 mm 1,0 UV-I 298 W/m -1,8 C 1,8 C 6,4 km/h (2 Bft) 100,00 %
27.02.2016 11:14 1,8 C 77 % 1007,6 hPa 0,0 l/m 5,9 km/h (2 Bft) NO 51 1 min 0,000 mm 1,0 UV-I 299 W/m -1,8 C 1,8 C 11,3 km/h (2 Bft) 100,00 %
27.02.2016 11:15 1,9 C 76 % 1007,6 hPa 0,0 l/m 7,6 km/h (2 Bft) O-NO 69 1 min 0,000 mm 1,0 UV-I 299 W/m -1,9 C 0,7 C 11,3 km/h (2 Bft) 95,65 %
27.02.2016 11:16 1,9 C 76 % 1007,6 hPa 0,0 l/m 8,4 km/h (2 Bft) NO 51 1 min 0,000 mm 1,1 UV-I 300 W/m -1,9 C -0,0 C 12,9 km/h (3 Bft) 100,00 %
27.02.2016 11:17 1,9 C 76 % 1007,5 hPa 0,0 l/m 6,7 km/h (2 Bft) NO 55 1 min 0,000 mm 1,1 UV-I 299 W/m -1,9 C 1,6 C 9,7 km/h (2 Bft) 100,00 %
27.02.2016 11:18 1,9 C 76 % 1007,5 hPa 0,0 l/m 6,4 km/h (2 Bft) O-NO 74 1 min 0,000 mm 1,1 UV-I 302 W/m -1,9 C 1,9 C 9,7 km/h (2 Bft) 100,00 %
27.02.2016 11:19 2,0 C 76 % 1007,5 hPa 0,0 l/m 9,4 km/h (2 Bft) O-NO 69 1 min 0,000 mm 1,1 UV-I 303 W/m -1,8 C -0,8 C 11,3 km/h (2 Bft) 100,00 %
27.02.2016 11:20 2,0 C 76 % 1007,5 hPa 0,0 l/m 6,5 km/h (2 Bft) O-NO 67 1 min 0,000 mm 1,1 UV-I 307 W/m -1,8 C 1,9 C 9,7 km/h (2 Bft) 100,00 %
27.02.2016 11:21 2,1 C 76 % 1007,5 hPa 0,0 l/m 7,5 km/h (2 Bft) NO 35 1 min 0,000 mm 1,1 UV-I 309 W/m -1,7 C 1,0 C 9,7 km/h (2 Bft) 100,00 %
27.02.2016 11:22 2,1 C 75 % 1007,5 hPa 0,0 l/m 4,6 km/h (1 Bft) NO 36 1 min 0,000 mm 1,1 UV-I 314 W/m -1,9 C 2,1 C 8,0 km/h (2 Bft) 95,83 %
27.02.2016 11:23 2,1 C 75 % 1007,5 hPa 0,0 l/m 6,2 km/h (2 Bft) O-NO 72 1 min 0,000 mm 1,1 UV-I 337 W/m -1,9 C 2,1 C 8,0 km/h (2 Bft) 96,55 %
27.02.2016 11:24 2,1 C 75 % 1007,5 hPa 0,0 l/m 5,8 km/h (2 Bft) O 80 1 min 0,000 mm 1,2 UV-I 347 W/m -1,9 C 2,1 C 8,0 km/h (2 Bft) 100,00 %
27.02.2016 11:25 2,1 C 75 % 1007,6 hPa 0,0 l/m 3,5 km/h (1 Bft) O-NO 59 1 min 0,000 mm 1,2 UV-I 351 W/m -1,9 C 2,1 C 6,4 km/h (2 Bft) 100,00 %
27.02.2016 11:26 2,1 C 75 % 1007,6 hPa 0,0 l/m 4,3 km/h (1 Bft) NO 40 1 min 0,000 mm 1,2 UV-I 351 W/m -1,9 C 2,1 C 6,4 km/h (2 Bft) 100,00 %
27.02.2016 11:27 2,2 C 77 % 1007,6 hPa 0,0 l/m 8,5 km/h (2 Bft) NO 37 1 min 0,000 mm 1,2 UV-I 356 W/m -1,4 C 0,2 C 11,3 km/h (2 Bft) 96,15 %
27.02.2016 11:28 2,2 C 76 % 1007,6 hPa 0,0 l/m 7,1 km/h (2 Bft) NO 39 1 min 0,000 mm 1,2 UV-I 360 W/m -1,6 C 1,5 C 9,7 km/h (2 Bft) 100,00 %
27.02.2016 11:29 2,3 C 76 % 1007,6 hPa 0,0 l/m 6,8 km/h (2 Bft) NO 47 1 min 0,000 mm 1,2 UV-I 356 W/m -1,5 C 1,9 C 8,0 km/h (2 Bft) 96,30 %
27.02.2016 11:30 2,3 C 77 % 1007,6 hPa 0,0 l/m 4,3 km/h (1 Bft) NO 36 1 min 0,000 mm 1,2 UV-I 362 W/m -1,3 C 2,3 C 6,4 km/h (2 Bft) 100,00 %
27.02.2016 11:31 2,4 C 75 % 1007,6 hPa 0,0 l/m 4,3 km/h (1 Bft) NO 49 1 min 0,000 mm 1,2 UV-I 363 W/m -1,6 C 2,4 C 6,4 km/h (2 Bft) 100,00 %
27.02.2016 11:32 2,4 C 76 % 1007,6 hPa 0,0 l/m 7,4 km/h (2 Bft) O-NO 61 1 min 0,000 mm 1,2 UV-I 368 W/m -1,4 C 1,4 C 8,0 km/h (2 Bft) 100,00 %
27.02.2016 11:33 2,4 C 74 % 1007,6 hPa 0,0 l/m 5,5 km/h (1 Bft) NO 56 1 min 0,000 mm 1,2 UV-I 372 W/m -1,7 C 2,4 C 6,4 km/h (2 Bft) 100,00 %
27.02.2016 11:34 2,4 C 75 % 1007,6 hPa 0,0 l/m 7,2 km/h (2 Bft) NO 46 1 min 0,000 mm 1,3 UV-I 374 W/m -1,6 C 1,6 C 9,7 km/h (2 Bft) 100,00 %
27.02.2016 11:35 2,5 C 75 % 1007,6 hPa 0,0 l/m 5,3 km/h (1 Bft) O-NO 65 1 min 0,000 mm 1,2 UV-I 367 W/m -1,5 C 2,5 C 6,4 km/h (2 Bft) 100,00 %
27.02.2016 11:36 2,6 C 75 % 1007,6 hPa 0,0 l/m 5,1 km/h (1 Bft) O-NO 63 1 min 0,000 mm 1,2 UV-I 357 W/m -1,4 C 2,6 C 8,0 km/h (2 Bft) 95,65 %
27.02.2016 11:37 2,7 C 75 % 1007,5 hPa 0,0 l/m 3,8 km/h (1 Bft) N-NO 24 1 min 0,000 mm 1,3 UV-I 366 W/m -1,3 C 2,7 C 4,8 km/h (1 Bft) 100,00 %
27.02.2016 11:38 2,7 C 76 % 1007,6 hPa 0,0 l/m 6,7 km/h (2 Bft) N-NO 17 1 min 0,000 mm 1,2 UV-I 356 W/m -1,1 C 2,4 C 9,7 km/h (2 Bft) 98,31 %
27.02.2016 11:39 2,7 C 75 % 1007,6 hPa 0,0 l/m 7,6 km/h (2 Bft) NO 55 1 min 0,000 mm 1,2 UV-I 356 W/m -1,3 C 1,6 C 11,3 km/h (2 Bft) 100,00 %
27.02.2016 11:40 2,7 C 74 % 1007,6 hPa 0,0 l/m 8,0 km/h (2 Bft) O 96 1 min 0,000 mm 1,2 UV-I 353 W/m -1,5 C 1,2 C 12,9 km/h (3 Bft) 100,00 %
27.02.2016 11:41 2,8 C 75 % 1007,5 hPa 0,0 l/m 9,8 km/h (2 Bft) NO 44 1 min 0,000 mm 1,2 UV-I 342 W/m -1,2 C -0,2 C 14,5 km/h (3 Bft) 100,00 %
27.02.2016 11:42 2,8 C 75 % 1007,4 hPa 0,0 l/m 5,8 km/h (2 Bft) O-NO 59 1 min 0,000 mm 1,2 UV-I 336 W/m -1,2 C 2,8 C 8,0 km/h (2 Bft) 95,65 %
27.02.2016 11:43 2,8 C 74 % 1007,4 hPa 0,0 l/m 6,8 km/h (2 Bft) NO 38 1 min 0,000 mm 1,2 UV-I 334 W/m -1,4 C 2,4 C 9,7 km/h (2 Bft) 100,00 %
27.02.2016 11:44 2,8 C 74 % 1007,4 hPa 0,0 l/m 8,9 km/h (2 Bft) O-NO 61 1 min 0,000 mm 1,2 UV-I 337 W/m -1,4 C 0,5 C 12,9 km/h (3 Bft) 96,55 %
27.02.2016 11:45 2,8 C 74 % 1007,4 hPa 0,0 l/m 10,5 km/h (2 Bft) O-NO 66 1 min 0,000 mm 1,2 UV-I 344 W/m -1,4 C -0,7 C 16,1 km/h (3 Bft) 96,30 %
27.02.2016 11:46 2,8 C 74 % 1007,3 hPa 0,0 l/m 10,5 km/h (2 Bft) NO 38 1 min 0,000 mm 1,3 UV-I 358 W/m -1,4 C -0,7 C 16,1 km/h (3 Bft) 100,00 %
27.02.2016 11:47 2,8 C 74 % 1007,3 hPa 0,0 l/m 9,1 km/h (2 Bft) O-NO 63 1 min 0,000 mm 1,3 UV-I 375 W/m -1,4 C 0,4 C 12,9 km/h (3 Bft) 96,15 %
27.02.2016 11:48 2,8 C 74 % 1007,3 hPa 0,0 l/m 6,1 km/h (2 Bft) NO 43 1 min 0,000 mm 1,3 UV-I 391 W/m -1,4 C 2,8 C 9,7 km/h (2 Bft) 100,00 %
27.02.2016 11:49 2,8 C 74 % 1007,4 hPa 0,0 l/m 5,3 km/h (1 Bft) NO 51 1 min 0,000 mm 1,3 UV-I 388 W/m -1,4 C 2,8 C 8,0 km/h (2 Bft) 93,33 %
27.02.2016 11:50 2,9 C 74 % 1007,4 hPa 0,0 l/m 5,8 km/h (2 Bft) N-NO 31 1 min 0,000 mm 1,3 UV-I 387 W/m -1,3 C 2,9 C 9,7 km/h (2 Bft) 100,00 %
27.02.2016 11:51 2,9 C 75 % 1007,4 hPa 0,0 l/m 7,4 km/h (2 Bft) NO 51 1 min 0,000 mm 1,3 UV-I 388 W/m -1,1 C 1,9 C 11,3 km/h (2 Bft) 93,10 %
27.02.2016 11:52 3,0 C 75 % 1007,4 hPa 0,0 l/m 8,1 km/h (2 Bft) NO 36 1 min 0,000 mm 1,3 UV-I 387 W/m -1,0 C 1,4 C 12,9 km/h (3 Bft) 100,00 %
27.02.2016 11:53 3,1 C 75 % 1007,4 hPa 0,0 l/m 8,0 km/h (2 Bft) NO 53 1 min 0,000 mm 1,3 UV-I 394 W/m -0,9 C 1,6 C 12,9 km/h (3 Bft) 91,30 %
27.02.2016 11:54 3,1 C 73 % 1007,4 hPa 0,0 l/m 10,6 km/h (2 Bft) NO 39 1 min 0,000 mm 1,3 UV-I 406 W/m -1,3 C -0,5 C 14,5 km/h (3 Bft) 100,00 %
27.02.2016 11:55 3,2 C 74 % 1007,4 hPa 0,0 l/m 10,1 km/h (2 Bft) NO 39 1 min 0,000 mm 1,3 UV-I 424 W/m -1,0 C 0,0 C 16,1 km/h (3 Bft) 95,65 %
27.02.2016 11:56 3,3 C 74 % 1007,4 hPa 0,0 l/m 12,6 km/h (3 Bft) NO 42 1 min 0,000 mm 1,4 UV-I 454 W/m -0,9 C -1,6 C 16,1 km/h (3 Bft) 100,00 %
27.02.2016 11:57 3,4 C 73 % 1007,4 hPa 0,0 l/m 10,7 km/h (2 Bft) NO 54 1 min 0,000 mm 1,5 UV-I 462 W/m -1,0 C -0,2 C 14,5 km/h (3 Bft) 98,28 %
27.02.2016 11:58 3,4 C 72 % 1007,4 hPa 0,0 l/m 8,0 km/h (2 Bft) O-NO 68 1 min 0,000 mm 1,4 UV-I 462 W/m -1,2 C 1,9 C 11,3 km/h (2 Bft) 95,74 %
27.02.2016 11:59 3,4 C 72 % 1007,4 hPa 0,0 l/m 7,1 km/h (2 Bft) O-NO 62 1 min 0,000 mm 1,5 UV-I 461 W/m -1,2 C 2,7 C 8,0 km/h (2 Bft) 100,00 %
27.02.2016 12:00 3,5 C 73 % 1007,3 hPa 0,0 l/m 9,7 km/h (2 Bft) O-NO 61 1 min 0,152 mm 1,5 UV-I 507 W/m -0,9 C 0,6 C 14,5 km/h (3 Bft) 93,33 %
27.02.2016 12:02 3,6 C 71 % 1007,3 hPa 0,0 l/m 14,3 km/h (3 Bft) O-NO 67 2 min 0,000 mm 1,6 UV-I 522 W/m -1,2 C -2,2 C 17,7 km/h (3 Bft) 98,31 %
27.02.2016 12:03 3,7 C 71 % 1007,3 hPa 0,0 l/m 9,7 km/h (2 Bft) O-NO 70 1 min 0,000 mm 1,6 UV-I 544 W/m -1,1 C 0,9 C 12,9 km/h (3 Bft) 100,00 %
27.02.2016 12:04 3,7 C 71 % 1007,3 hPa 0,0 l/m 12,1 km/h (2 Bft) O-NO 63 1 min 0,000 mm 1,6 UV-I 536 W/m -1,1 C -0,8 C 16,1 km/h (3 Bft) 96,15 %
27.02.2016 12:05 3,7 C 71 % 1007,3 hPa 0,0 l/m 9,8 km/h (2 Bft) O-NO 64 1 min 0,000 mm 1,6 UV-I 540 W/m -1,1 C 0,8 C 14,5 km/h (3 Bft) 96,30 %
27.02.2016 12:06 3,7 C 71 % 1007,3 hPa 0,0 l/m 7,7 km/h (2 Bft) O-NO 76 1 min 0,000 mm 1,6 UV-I 542 W/m -1,1 C 2,5 C 11,3 km/h (2 Bft) 100,00 %
27.02.2016 12:07 3,7 C 71 % 1007,3 hPa 0,0 l/m 9,3 km/h (2 Bft) O-NO 59 1 min 0,000 mm 1,7 UV-I 547 W/m -1,1 C 1,2 C 14,5 km/h (3 Bft) 91,67 %
27.02.2016 12:08 3,8 C 71 % 1007,3 hPa 0,0 l/m 14,3 km/h (3 Bft) NO 47 1 min 0,000 mm 1,7 UV-I 538 W/m -1,0 C -2,0 C 17,7 km/h (3 Bft) 92,86 %
27.02.2016 12:09 3,8 C 70 % 1007,2 hPa 0,0 l/m 14,3 km/h (3 Bft) O-NO 59 1 min 0,000 mm 1,7 UV-I 543 W/m -1,2 C -2,0 C 17,7 km/h (3 Bft) 100,00 %
27.02.2016 12:10 3,8 C 70 % 1007,2 hPa 0,0 l/m 10,4 km/h (2 Bft) O-NO 58 1 min 0,000 mm 1,7 UV-I 544 W/m -1,2 C 0,5 C 14,5 km/h (3 Bft) 100,00 %
27.02.2016 12:11 3,9 C 71 % 1007,2 hPa 0,0 l/m 9,5 km/h (2 Bft) NO 49 1 min 0,000 mm 1,7 UV-I 550 W/m -0,9 C 1,2 C 12,9 km/h (3 Bft) 96,67 %
27.02.2016 12:12 4,1 C 72 % 1007,2 hPa 0,0 l/m 14,0 km/h (3 Bft) NO 44 1 min 0,000 mm 1,7 UV-I 560 W/m -0,5 C -1,5 C 16,1 km/h (3 Bft) 96,55 %
27.02.2016 12:13 4,2 C 73 % 1007,1 hPa 0,0 l/m 13,2 km/h (3 Bft) O-NO 61 1 min 0,000 mm 1,7 UV-I 570 W/m -0,2 C -0,9 C 16,1 km/h (3 Bft) 100,00 %
27.02.2016 12:14 4,3 C 71 % 1007,1 hPa 0,0 l/m 11,9 km/h (2 Bft) NO 38 1 min 0,000 mm 1,7 UV-I 568 W/m -0,5 C 0,0 C 19,3 km/h (3 Bft) 100,00 %
27.02.2016 12:15 4,3 C 72 % 1007,1 hPa 0,0 l/m 12,8 km/h (3 Bft) N-NO 26 1 min 0,000 mm 1,7 UV-I 556 W/m -0,3 C -0,5 C 17,7 km/h (3 Bft) 100,00 %
27.02.2016 12:16 4,3 C 72 % 1007,1 hPa 0,0 l/m 10,8 km/h (2 Bft) NO 54 1 min 0,000 mm 1,6 UV-I 526 W/m -0,3 C 0,7 C 16,1 km/h (3 Bft) 94,12 %
27.02.2016 12:17 4,4 C 70 % 1007,1 hPa 0,0 l/m 10,2 km/h (2 Bft) NO 36 1 min 0,000 mm 1,6 UV-I 519 W/m -0,6 C 1,3 C 14,5 km/h (3 Bft) 100,00 %
27.02.2016 12:18 4,4 C 73 % 1007,1 hPa 0,0 l/m 8,0 km/h (2 Bft) NO 47 1 min 0,000 mm 1,6 UV-I 506 W/m -0,0 C 3,0 C 9,7 km/h (2 Bft) 100,00 %
27.02.2016 12:19 4,5 C 71 % 1007,0 hPa 0,0 l/m 12,0 km/h (2 Bft) O-NO 65 1 min 0,000 mm 1,6 UV-I 497 W/m -0,3 C 0,2 C 17,7 km/h (3 Bft) 100,00 %
27.02.2016 12:20 4,4 C 69 % 1007,0 hPa 0,0 l/m 10,8 km/h (2 Bft) NO 45 1 min 0,000 mm 1,6 UV-I 513 W/m -0,8 C 0,8 C 16,1 km/h (3 Bft) 95,65 %
27.02.2016 12:21 4,4 C 69 % 1007,0 hPa 0,0 l/m 9,3 km/h (2 Bft) O-NO 59 1 min 0,000 mm 1,6 UV-I 520 W/m -0,8 C 1,9 C 14,5 km/h (3 Bft) 100,00 %
27.02.2016 12:22 4,4 C 70 % 1007,0 hPa 0,0 l/m 13,2 km/h (3 Bft) O-NO 67 1 min 0,000 mm 1,6 UV-I 507 W/m -0,6 C -0,7 C 16,1 km/h (3 Bft) 100,00 %
27.02.2016 12:23 4,4 C 69 % 1006,9 hPa 0,0 l/m 14,6 km/h (3 Bft) NO 47 1 min 0,000 mm 1,6 UV-I 505 W/m -0,8 C -1,4 C 19,3 km/h (3 Bft) 100,00 %
27.02.2016 12:24 4,4 C 70 % 1006,9 hPa 0,0 l/m 12,0 km/h (2 Bft) NO 56 1 min 0,000 mm 1,6 UV-I 527 W/m -0,6 C 0,1 C 16,1 km/h (3 Bft) 100,00 %
27.02.2016 12:25 4,4 C 70 % 1006,9 hPa 0,0 l/m 11,1 km/h (2 Bft) NO 46 1 min 0,000 mm 1,6 UV-I 533 W/m -0,6 C 0,6 C 14,5 km/h (3 Bft) 100,00 %
27.02.2016 12:26 4,4 C 69 % 1006,9 hPa 0,0 l/m 13,1 km/h (3 Bft) O-NO 61 1 min 0,000 mm 1,6 UV-I 538 W/m -0,8 C -0,6 C 19,3 km/h (3 Bft) 100,00 %
27.02.2016 12:27 4,4 C 69 % 1006,9 hPa 0,0 l/m 13,8 km/h (3 Bft) NO 40 1 min 0,000 mm 1,6 UV-I 513 W/m -0,8 C -1,0 C 17,7 km/h (3 Bft) 100,00 %
27.02.2016 12:28 4,5 C 70 % 1006,9 hPa 0,0 l/m 15,0 km/h (3 Bft) NO 42 1 min 0,000 mm 1,6 UV-I 522 W/m -0,5 C -1,5 C 19,3 km/h (3 Bft) 100,00 %
27.02.2016 12:29 4,5 C 69 % 1006,9 hPa 0,0 l/m 11,9 km/h (2 Bft) NO 49 1 min 0,000 mm 1,6 UV-I 531 W/m -0,7 C 0,2 C 17,7 km/h (3 Bft) 100,00 %
27.02.2016 12:30 4,5 C 69 % 1006,8 hPa 0,0 l/m 13,9 km/h (3 Bft) O-NO 69 1 min 0,000 mm 1,6 UV-I 534 W/m -0,7 C -0,9 C 19,3 km/h (3 Bft) 100,00 %
27.02.2016 12:31 4,6 C 69 % 1006,9 hPa 0,0 l/m 15,6 km/h (3 Bft) NO 40 1 min 0,000 mm 1,6 UV-I 529 W/m -0,6 C -1,7 C 19,3 km/h (3 Bft) 100,00 %
27.02.2016 12:32 4,6 C 68 % 1006,9 hPa 0,0 l/m 14,6 km/h (3 Bft) O-NO 59 1 min 0,000 mm 1,6 UV-I 518 W/m -0,8 C -1,2 C 19,3 km/h (3 Bft) 96,30 %
27.02.2016 12:33 4,6 C 68 % 1006,9 hPa 0,0 l/m 12,1 km/h (2 Bft) O-NO 59 1 min 0,000 mm 1,6 UV-I 503 W/m -0,8 C 0,2 C 16,1 km/h (3 Bft) 100,00 %
27.02.2016 12:34 4,7 C 70 % 1006,9 hPa 0,0 l/m 11,4 km/h (2 Bft) O-NO 59 1 min 0,000 mm 1,6 UV-I 493 W/m -0,3 C 0,8 C 16,1 km/h (3 Bft) 100,00 %
27.02.2016 12:35 4,7 C 68 % 1006,9 hPa 0,0 l/m 10,7 km/h (2 Bft) NO 52 1 min 0,000 mm 1,5 UV-I 483 W/m -0,7 C 1,3 C 16,1 km/h (3 Bft) 100,00 %
27.02.2016 12:36 4,7 C 70 % 1006,9 hPa 0,0 l/m 15,3 km/h (3 Bft) O-NO 61 1 min 0,000 mm 1,5 UV-I 480 W/m -0,3 C -1,4 C 19,3 km/h (3 Bft) 100,00 %
27.02.2016 12:37 4,7 C 68 % 1006,8 hPa 0,0 l/m 11,5 km/h (2 Bft) O-NO 57 1 min 0,000 mm 1,5 UV-I 483 W/m -0,7 C 0,7 C 14,5 km/h (3 Bft) 100,00 %
27.02.2016 12:38 4,7 C 69 % 1006,8 hPa 0,0 l/m 11,4 km/h (2 Bft) NO 55 1 min 0,000 mm 1,5 UV-I 467 W/m -0,5 C 0,8 C 17,7 km/h (3 Bft) 100,00 %
27.02.2016 12:39 4,8 C 68 % 1006,8 hPa 0,0 l/m 13,0 km/h (3 Bft) NO 44 1 min 0,000 mm 1,5 UV-I 482 W/m -0,6 C -0,1 C 17,7 km/h (3 Bft) 100,00 %
27.02.2016 12:40 4,8 C 68 % 1006,8 hPa 0,0 l/m 15,2 km/h (3 Bft) O-NO 75 1 min 0,000 mm 1,5 UV-I 454 W/m -0,6 C -1,3 C 17,7 km/h (3 Bft) 100,00 %
27.02.2016 12:41 4,8 C 68 % 1006,9 hPa 0,0 l/m 12,7 km/h (3 Bft) NO 46 1 min 0,000 mm 1,5 UV-I 442 W/m -0,6 C 0,1 C 17,7 km/h (3 Bft) 100,00 %
27.02.2016 12:42 4,9 C 68 % 1006,9 hPa 0,0 l/m 17,1 km/h (3 Bft) O-NO 75 1 min 0,000 mm 1,5 UV-I 469 W/m -0,5 C -2,1 C 19,3 km/h (3 Bft) 100,00 %
27.02.2016 12:43 4,9 C 67 % 1006,9 hPa 0,0 l/m 12,0 km/h (2 Bft) O-NO 77 1 min 0,000 mm 1,5 UV-I 474 W/m -0,7 C 0,6 C 16,1 km/h (3 Bft) 98,33 %
27.02.2016 12:44 4,9 C 68 % 1006,8 hPa 0,0 l/m 12,1 km/h (2 Bft) O-NO 67 1 min 0,000 mm 1,5 UV-I 478 W/m -0,5 C 0,6 C 17,7 km/h (3 Bft) 100,00 %
27.02.2016 12:45 4,9 C 67 % 1006,8 hPa 0,0 l/m 11,1 km/h (2 Bft) O-NO 70 1 min 0,000 mm 1,5 UV-I 479 W/m -0,7 C 1,2 C 16,1 km/h (3 Bft) 100,00 %
27.02.2016 12:46 5,0 C 68 % 1006,8 hPa 0,0 l/m 11,2 km/h (2 Bft) O-NO 58 1 min 0,000 mm 1,4 UV-I 451 W/m -0,4 C 1,3 C 14,5 km/h (3 Bft) 100,00 %
27.02.2016 12:47 5,0 C 67 % 1006,8 hPa 0,0 l/m 10,5 km/h (2 Bft) O-NO 60 1 min 0,000 mm 1,4 UV-I 445 W/m -0,6 C 1,7 C 14,5 km/h (3 Bft) 100,00 %
27.02.2016 12:48 5,1 C 69 % 1006,8 hPa 0,0 l/m 14,8 km/h (3 Bft) NO 45 1 min 0,000 mm 1,4 UV-I 443 W/m -0,1 C -0,7 C 20,9 km/h (4 Bft) 100,00 %
27.02.2016 12:49 5,1 C 68 % 1006,8 hPa 0,0 l/m 8,8 km/h (2 Bft) NO 55 1 min 0,000 mm 1,4 UV-I 434 W/m -0,3 C 3,1 C 12,9 km/h (3 Bft) 100,00 %
27.02.2016 12:50 5,2 C 67 % 1006,8 hPa 0,0 l/m 11,3 km/h (2 Bft) O-NO 63 1 min 0,000 mm 1,4 UV-I 432 W/m -0,4 C 1,4 C 16,1 km/h (3 Bft) 100,00 %
27.02.2016 12:51 5,2 C 67 % 1006,8 hPa 0,0 l/m 10,4 km/h (2 Bft) O-NO 66 1 min 0,000 mm 1,4 UV-I 428 W/m -0,4 C 2,0 C 16,1 km/h (3 Bft) 100,00 %
27.02.2016 12:52 5,2 C 67 % 1006,8 hPa 0,0 l/m 12,5 km/h (3 Bft) O 91 1 min 0,000 mm 1,3 UV-I 408 W/m -0,4 C 0,7 C 16,1 km/h (3 Bft) 95,65 %
27.02.2016 12:53 5,1 C 66 % 1006,9 hPa 0,0 l/m 5,1 km/h (1 Bft) O-NO 73 1 min 0,000 mm 1,4 UV-I 433 W/m -0,7 C 5,1 C 8,0 km/h (2 Bft) 100,00 %
27.02.2016 12:54 5,1 C 66 % 1006,9 hPa 0,0 l/m 3,8 km/h (1 Bft) O-SO 103 1 min 0,000 mm 1,4 UV-I 412 W/m -0,7 C 5,1 C 6,4 km/h (2 Bft) 100,00 %
27.02.2016 12:55 5,1 C 69 % 1006,9 hPa 0,0 l/m 11,7 km/h (2 Bft) NO 49 1 min 0,000 mm 1,3 UV-I 406 W/m -0,1 C 1,1 C 16,1 km/h (3 Bft) 100,00 %
27.02.2016 12:56 5,2 C 68 % 1006,9 hPa 0,0 l/m 8,9 km/h (2 Bft) O 80 1 min 0,000 mm 1,3 UV-I 418 W/m -0,2 C 3,1 C 12,9 km/h (3 Bft) 100,00 %
27.02.2016 12:57 5,3 C 69 % 1006,8 hPa 0,0 l/m 7,0 km/h (2 Bft) NO 52 1 min 0,000 mm 1,3 UV-I 417 W/m 0,1 C 4,8 C 9,7 km/h (2 Bft) 95,83 %
27.02.2016 12:58 5,3 C 69 % 1006,8 hPa 0,0 l/m 8,4 km/h (2 Bft) NO 35 1 min 0,000 mm 1,3 UV-I 387 W/m 0,1 C 3,6 C 12,9 km/h (3 Bft) 90,91 %
27.02.2016 12:59 5,3 C 69 % 1006,8 hPa 0,0 l/m 6,2 km/h (2 Bft) NO 42 1 min 0,000 mm 1,2 UV-I 332 W/m 0,1 C 5,3 C 12,9 km/h (3 Bft) 100,00 %
27.02.2016 13:00 5,3 C 68 % 1006,8 hPa 0,0 l/m 5,0 km/h (1 Bft) O-NO 57 1 min 0,000 mm 1,2 UV-I 320 W/m -0,1 C 5,3 C 8,0 km/h (2 Bft) 100,00 %
27.02.2016 13:02 5,4 C 68 % 1006,7 hPa 0,0 l/m 8,6 km/h (2 Bft) NO 44 2 min 0,229 mm 1,2 UV-I 350 W/m -0,0 C 3,5 C 12,9 km/h (3 Bft) 100,00 %
27.02.2016 13:03 5,4 C 70 % 1006,6 hPa 0,0 l/m 6,2 km/h (2 Bft) NO 46 1 min 0,000 mm 1,3 UV-I 384 W/m 0,4 C 5,4 C 9,7 km/h (2 Bft) 100,00 %
27.02.2016 13:04 5,4 C 69 % 1006,7 hPa 0,0 l/m 10,8 km/h (2 Bft) NO 47 1 min 0,000 mm 1,3 UV-I 397 W/m 0,2 C 2,0 C 14,5 km/h (3 Bft) 100,00 %
27.02.2016 13:05 5,4 C 68 % 1006,7 hPa 0,0 l/m 7,8 km/h (2 Bft) NO 53 1 min 0,000 mm 1,3 UV-I 414 W/m -0,0 C 4,2 C 12,9 km/h (3 Bft) 100,00 %
27.02.2016 13:06 5,4 C 69 % 1006,7 hPa 0,0 l/m 7,8 km/h (2 Bft) O-NO 77 1 min 0,000 mm 1,3 UV-I 423 W/m 0,2 C 4,2 C 11,3 km/h (2 Bft) 100,00 %
27.02.2016 13:07 5,6 C 69 % 1006,6 hPa 0,0 l/m 10,8 km/h (2 Bft) O-NO 63 1 min 0,000 mm 1,3 UV-I 418 W/m 0,4 C 2,2 C 16,1 km/h (3 Bft) 95,83 %
27.02.2016 13:08 5,6 C 68 % 1006,7 hPa 0,0 l/m 6,8 km/h (2 Bft) O-SO 123 1 min 0,000 mm 1,3 UV-I 407 W/m 0,2 C 5,3 C 11,3 km/h (2 Bft) 100,00 %
27.02.2016 13:09 5,7 C 68 % 1006,6 hPa 0,0 l/m 4,1 km/h (1 Bft) O-NO 78 1 min 0,000 mm 1,3 UV-I 404 W/m 0,3 C 5,7 C 6,4 km/h (2 Bft) 96,15 %
27.02.2016 13:10 5,7 C 68 % 1006,7 hPa 0,0 l/m 7,2 km/h (2 Bft) NO 34 1 min 0,000 mm 1,3 UV-I 383 W/m 0,3 C 5,0 C 9,7 km/h (2 Bft) 100,00 %
27.02.2016 13:11 5,7 C 69 % 1006,6 hPa 0,0 l/m 6,4 km/h (2 Bft) NO 42 1 min 0,000 mm 1,3 UV-I 385 W/m 0,5 C 5,7 C 12,9 km/h (3 Bft) 100,00 %
27.02.2016 13:12 5,8 C 69 % 1006,6 hPa 0,0 l/m 11,5 km/h (2 Bft) NO 35 1 min 0,000 mm 1,3 UV-I 401 W/m 0,6 C 2,0 C 16,1 km/h (3 Bft) 98,38 %
27.02.2016 13:13 5,8 C 69 % 1006,6 hPa 0,0 l/m 14,5 km/h (3 Bft) NO 36 1 min 0,000 mm 1,3 UV-I 418 W/m 0,6 C 0,3 C 17,7 km/h (3 Bft) 100,00 %
27.02.2016 13:14 5,8 C 69 % 1006,6 hPa 0,0 l/m 15,9 km/h (3 Bft) O-NO 63 1 min 0,000 mm 1,3 UV-I 424 W/m 0,6 C -0,4 C 19,3 km/h (3 Bft) 100,00 %
27.02.2016 13:15 5,8 C 69 % 1006,6 hPa 0,0 l/m 11,6 km/h (2 Bft) O-NO 60 1 min 0,000 mm 1,3 UV-I 449 W/m 0,6 C 1,9 C 14,5 km/h (3 Bft) 98,39 %
27.02.2016 13:16 5,9 C 68 % 1006,6 hPa 0,0 l/m 9,7 km/h (2 Bft) N-NO 27 1 min 0,000 mm 1,3 UV-I 471 W/m 0,5 C 3,3 C 11,3 km/h (2 Bft) 97,56 %
27.02.2016 13:17 5,9 C 67 % 1006,5 hPa 0,0 l/m 12,9 km/h (3 Bft) NO 46 1 min 0,000 mm 1,3 UV-I 472 W/m 0,3 C 1,3 C 16,1 km/h (3 Bft) 95,65 %
27.02.2016 13:18 5,9 C 68 % 1006,5 hPa 0,0 l/m 7,8 km/h (2 Bft) NO 48 1 min 0,000 mm 1,3 UV-I 474 W/m 0,5 C 4,7 C 9,7 km/h (2 Bft) 96,30 %
27.02.2016 13:19 6,0 C 68 % 1006,5 hPa 0,0 l/m 7,7 km/h (2 Bft) O-NO 74 1 min 0,000 mm 1,3 UV-I 465 W/m 0,6 C 4,9 C 11,3 km/h (2 Bft) 98,38 %
27.02.2016 13:20 6,1 C 68 % 1006,5 hPa 0,0 l/m 11,3 km/h (2 Bft) NO 40 1 min 0,000 mm 1,3 UV-I 460 W/m 0,6 C 2,4 C 17,7 km/h (3 Bft) 95,12 %
27.02.2016 13:21 6,1 C 66 % 1006,5 hPa 0,0 l/m 13,5 km/h (3 Bft) N-NO 31 1 min 0,000 mm 1,3 UV-I 457 W/m 0,2 C 1,2 C 17,7 km/h (3 Bft) 96,15 %
27.02.2016 13:22 6,2 C 66 % 1006,5 hPa 0,0 l/m 14,3 km/h (3 Bft) N-NO 28 1 min 0,000 mm 1,3 UV-I 500 W/m 0,3 C 0,9 C 19,3 km/h (3 Bft) 100,00 %
27.02.2016 13:23 6,2 C 67 % 1006,5 hPa 0,0 l/m 13,7 km/h (3 Bft) O-NO 62 1 min 0,000 mm 1,4 UV-I 547 W/m 0,5 C 1,2 C 16,1 km/h (3 Bft) 95,83 %
27.02.2016 13:24 6,2 C 65 % 1006,5 hPa 0,0 l/m 11,4 km/h (2 Bft) O-NO 65 1 min 0,000 mm 1,4 UV-I 554 W/m 0,1 C 2,5 C 14,5 km/h (3 Bft) 96,15 %
27.02.2016 13:25 6,2 C 65 % 1006,5 hPa 0,0 l/m 9,4 km/h (2 Bft) O-NO 70 1 min 0,000 mm 1,4 UV-I 570 W/m 0,1 C 3,8 C 14,5 km/h (3 Bft) 100,00 %
27.02.2016 13:26 6,2 C 65 % 1006,5 hPa 0,0 l/m 15,4 km/h (3 Bft) O-NO 59 1 min 0,000 mm 1,4 UV-I 571 W/m 0,1 C 0,3 C 19,3 km/h (3 Bft) 93,33 %
27.02.2016 13:27 6,2 C 64 % 1006,4 hPa 0,0 l/m 12,5 km/h (3 Bft) NO 54 1 min 0,000 mm 1,5 UV-I 578 W/m -0,1 C 1,8 C 16,1 km/h (3 Bft) 100,00 %
27.02.2016 13:28 6,2 C 64 % 1006,4 hPa 0,0 l/m 9,4 km/h (2 Bft) O-NO 65 1 min 0,000 mm 1,4 UV-I 579 W/m -0,1 C 3,8 C 12,9 km/h (3 Bft) 96,15 %
27.02.2016 13:29 6,2 C 65 % 1006,5 hPa 0,0 l/m 9,2 km/h (2 Bft) O-NO 57 1 min 0,000 mm 1,5 UV-I 582 W/m 0,1 C 4,0 C 12,9 km/h (3 Bft) 100,00 %
27.02.2016 13:30 6,2 C 64 % 1006,5 hPa 0,0 l/m 10,7 km/h (2 Bft) NO 55 1 min 0,000 mm 1,4 UV-I 573 W/m -0,1 C 2,9 C 17,7 km/h (3 Bft) 91,30 %
27.02.2016 13:31 6,3 C 65 % 1006,5 hPa 0,0 l/m 11,0 km/h (2 Bft) NO 54 1 min 0,000 mm 1,4 UV-I 558 W/m 0,2 C 2,9 C 16,1 km/h (3 Bft) 100,00 %
27.02.2016 13:32 6,3 C 65 % 1006,5 hPa 0,0 l/m 13,0 km/h (3 Bft) O-NO 64 1 min 0,000 mm 1,4 UV-I 525 W/m 0,2 C 1,7 C 16,1 km/h (3 Bft) 92,31 %
27.02.2016 13:33 6,4 C 66 % 1006,4 hPa 0,0 l/m 14,8 km/h (3 Bft) NO 38 1 min 0,000 mm 1,4 UV-I 549 W/m 0,5 C 0,9 C 17,7 km/h (3 Bft) 96,67 %
27.02.2016 13:34 6,4 C 66 % 1006,5 hPa 0,0 l/m 12,2 km/h (2 Bft) NO 48 1 min 0,000 mm 1,4 UV-I 526 W/m 0,5 C 2,3 C 14,5 km/h (3 Bft) 100,00 %
27.02.2016 13:35 6,4 C 67 % 1006,5 hPa 0,0 l/m 8,0 km/h (2 Bft) NO 51 1 min 0,000 mm 1,4 UV-I 506 W/m 0,7 C 5,1 C 8,0 km/h (2 Bft) 98,33 %
27.02.2016 13:38 6,6 C 64 % 1006,5 hPa 0,0 l/m 11,1 km/h (2 Bft) NO 36 3 min 0,000 mm 1,4 UV-I 522 W/m 0,3 C 3,1 C 16,1 km/h (3 Bft) 96,84 %
27.02.2016 13:39 6,7 C 66 % 1006,5 hPa 0,0 l/m 13,2 km/h (3 Bft) NO 37 1 min 0,000 mm 1,3 UV-I 511 W/m 0,8 C 2,0 C 17,7 km/h (3 Bft) 100,00 %
27.02.2016 13:40 6,7 C 68 % 1006,5 hPa 0,0 l/m 16,9 km/h (3 Bft) NO 43 1 min 0,000 mm 1,3 UV-I 514 W/m 1,2 C 0,3 C 20,9 km/h (4 Bft) 100,00 %
27.02.2016 13:41 6,7 C 67 % 1006,5 hPa 0,0 l/m 14,6 km/h (3 Bft) O-NO 61 1 min 0,000 mm 1,3 UV-I 528 W/m 1,0 C 1,3 C 17,7 km/h (3 Bft) 83,33 %
27.02.2016 13:42 6,7 C 64 % 1006,5 hPa 0,0 l/m 12,7 km/h (3 Bft) O-NO 64 1 min 0,000 mm 1,3 UV-I 526 W/m 0,4 C 2,3 C 17,7 km/h (3 Bft) 100,00 %
27.02.2016 13:43 6,7 C 64 % 1006,5 hPa 0,0 l/m 10,6 km/h (2 Bft) O-NO 71 1 min 0,000 mm 1,4 UV-I 554 W/m 0,4 C 3,6 C 16,1 km/h (3 Bft) 100,00 %
27.02.2016 13:44 6,8 C 66 % 1006,5 hPa 0,0 l/m 12,8 km/h (3 Bft) N-NO 33 1 min 0,000 mm 1,4 UV-I 565 W/m 0,9 C 2,4 C 17,7 km/h (3 Bft) 100,00 %
27.02.2016 13:45 6,8 C 66 % 1006,5 hPa 0,0 l/m 9,8 km/h (2 Bft) NO 42 1 min 0,000 mm 1,4 UV-I 552 W/m 0,9 C 4,2 C 16,1 km/h (3 Bft) 100,00 %
27.02.2016 13:46 6,9 C 67 % 1006,5 hPa 0,0 l/m 9,3 km/h (2 Bft) NO 40 1 min 0,000 mm 1,4 UV-I 541 W/m 1,2 C 4,6 C 12,9 km/h (3 Bft) 100,00 %
27.02.2016 13:47 7,0 C 65 % 1006,5 hPa 0,0 l/m 12,5 km/h (3 Bft) O-NO 69 1 min 0,000 mm 1,3 UV-I 534 W/m 0,9 C 2,8 C 16,1 km/h (3 Bft) 96,15 %
27.02.2016 13:48 7,1 C 65 % 1006,5 hPa 0,0 l/m 12,3 km/h (3 Bft) O-NO 76 1 min 0,000 mm 1,3 UV-I 528 W/m 1,0 C 3,0 C 14,5 km/h (3 Bft) 93,33 %
27.02.2016 13:49 7,0 C 63 % 1006,5 hPa 0,0 l/m 8,4 km/h (2 Bft) O 88 1 min 0,000 mm 1,2 UV-I 467 W/m 0,4 C 5,4 C 14,5 km/h (3 Bft) 100,00 %
27.02.2016 13:50 7,0 C 64 % 1006,4 hPa 0,0 l/m 10,3 km/h (2 Bft) O-NO 70 1 min 0,000 mm 1,2 UV-I 455 W/m 0,7 C 4,1 C 12,9 km/h (3 Bft) 95,83 %
27.02.2016 13:51 6,9 C 63 % 1006,5 hPa 0,0 l/m 9,1 km/h (2 Bft) O 86 1 min 0,000 mm 1,3 UV-I 466 W/m 0,4 C 4,8 C 14,5 km/h (3 Bft) 100,00 %
27.02.2016 13:52 7,0 C 65 % 1006,4 hPa 0,0 l/m 11,8 km/h (2 Bft) O-NO 57 1 min 0,000 mm 1,3 UV-I 491 W/m 0,9 C 3,2 C 17,7 km/h (3 Bft) 100,00 %
27.02.2016 13:53 7,0 C 63 % 1006,5 hPa 0,0 l/m 9,5 km/h (2 Bft) O-NO 72 1 min 0,000 mm 1,3 UV-I 498 W/m 0,4 C 4,6 C 14,5 km/h (3 Bft) 100,00 %
27.02.2016 13:54 6,9 C 63 % 1006,5 hPa 0,0 l/m 10,5 km/h (2 Bft) O-NO 66 1 min 0,000 mm 1,3 UV-I 487 W/m 0,4 C 3,8 C 12,9 km/h (3 Bft) 100,00 %
27.02.2016 13:55 7,0 C 65 % 1006,5 hPa 0,0 l/m 8,0 km/h (2 Bft) O 84 1 min 0,000 mm 1,3 UV-I 473 W/m 0,9 C 5,7 C 11,3 km/h (2 Bft) 100,00 %
27.02.2016 13:56 7,1 C 64 % 1006,4 hPa 0,0 l/m 7,9 km/h (2 Bft) O-NO 58 1 min 0,000 mm 1,3 UV-I 486 W/m 0,8 C 5,9 C 12,9 km/h (3 Bft) 100,00 %
27.02.2016 13:57 7,1 C 64 % 1006,5 hPa 0,0 l/m 8,8 km/h (2 Bft) NO 42 1 min 0,000 mm 1,2 UV-I 465 W/m 0,8 C 5,2 C 9,7 km/h (2 Bft) 100,00 %
27.02.2016 13:58 7,2 C 65 % 1006,5 hPa 0,0 l/m 11,0 km/h (2 Bft) NO 35 1 min 0,000 mm 1,2 UV-I 456 W/m 1,1 C 3,9 C 16,1 km/h (3 Bft) 100,00 %
27.02.2016 13:59 7,3 C 66 % 1006,5 hPa 0,0 l/m 9,3 km/h (2 Bft) O 80 1 min 0,000 mm 1,2 UV-I 414 W/m 1,4 C 5,1 C 14,5 km/h (3 Bft) 100,00 %
27.02.2016 14:00 7,3 C 63 % 1006,5 hPa 0,0 l/m 9,2 km/h (2 Bft) O-NO 64 1 min 0,000 mm 1,2 UV-I 417 W/m 0,7 C 5,1 C 14,5 km/h (3 Bft) 100,00 %
27.02.2016 14:01 7,3 C 64 % 1006,5 hPa 0,0 l/m 7,8 km/h (2 Bft) NO 55 1 min 0,229 mm 1,2 UV-I 438 W/m 1,0 C 6,2 C 16,1 km/h (3 Bft) 100,00 %
27.02.2016 14:02 7,3 C 64 % 1006,4 hPa 0,0 l/m 10,8 km/h (2 Bft) NO 54 1 min 0,000 mm 1,2 UV-I 446 W/m 1,0 C 4,1 C 14,5 km/h (3 Bft) 100,00 %
27.02.2016 14:03 7,3 C 62 % 1006,4 hPa 0,0 l/m 9,9 km/h (2 Bft) NO 34 1 min 0,000 mm 1,2 UV-I 464 W/m 0,5 C 4,7 C 14,5 km/h (3 Bft) 100,00 %
27.02.2016 14:04 7,3 C 64 % 1006,4 hPa 0,0 l/m 10,1 km/h (2 Bft) O-NO 57 1 min 0,000 mm 1,2 UV-I 470 W/m 1,0 C 4,5 C 14,5 km/h (3 Bft) 100,00 %
27.02.2016 14:05 7,3 C 63 % 1006,4 hPa 0,0 l/m 15,5 km/h (3 Bft) NO 53 1 min 0,000 mm 1,2 UV-I 468 W/m 0,7 C 1,6 C 19,3 km/h (3 Bft) 100,00 %
27.02.2016 14:06 7,3 C 63 % 1006,4 hPa 0,0 l/m 16,5 km/h (3 Bft) N-NO 28 1 min 0,000 mm 1,2 UV-I 470 W/m 0,7 C 1,2 C 20,9 km/h (4 Bft) 100,00 %
27.02.2016 14:07 7,3 C 63 % 1006,4 hPa 0,0 l/m 12,2 km/h (2 Bft) O-NO 59 1 min 0,000 mm 1,2 UV-I 473 W/m 0,7 C 3,3 C 14,5 km/h (3 Bft) 96,30 %
27.02.2016 14:08 7,3 C 64 % 1006,4 hPa 0,0 l/m 12,9 km/h (3 Bft) NO 51 1 min 0,000 mm 1,2 UV-I 474 W/m 1,0 C 2,9 C 16,1 km/h (3 Bft) 100,00 %
27.02.2016 14:09 7,3 C 61 % 1006,4 hPa 0,0 l/m 11,3 km/h (2 Bft) O-NO 61 1 min 0,000 mm 1,2 UV-I 456 W/m 0,3 C 3,8 C 14,5 km/h (3 Bft) 100,00 %
27.02.2016 14:10 7,3 C 62 % 1006,4 hPa 0,0 l/m 7,5 km/h (2 Bft) NO 50 1 min 0,000 mm 1,1 UV-I 421 W/m 0,5 C 6,4 C 9,7 km/h (2 Bft) 100,00 %
27.02.2016 14:11 7,4 C 63 % 1006,4 hPa 0,0 l/m 6,8 km/h (2 Bft) O-NO 66 1 min 0,000 mm 1,1 UV-I 404 W/m 0,8 C 7,1 C 12,9 km/h (3 Bft) 100,00 %
27.02.2016 14:12 7,4 C 63 % 1006,4 hPa 0,0 l/m 11,7 km/h (2 Bft) N-NO 32 1 min 0,000 mm 1,1 UV-I 422 W/m 0,8 C 3,7 C 16,1 km/h (3 Bft) 100,00 %
27.02.2016 14:13 7,4 C 65 % 1006,4 hPa 0,0 l/m 13,0 km/h (3 Bft) N-NO 24 1 min 0,000 mm 1,1 UV-I 437 W/m 1,3 C 3,0 C 20,9 km/h (4 Bft) 100,00 %
27.02.2016 14:14 7,4 C 66 % 1006,3 hPa 0,0 l/m 12,9 km/h (3 Bft) N-NO 28 1 min 0,000 mm 1,1 UV-I 430 W/m 1,5 C 3,0 C 17,7 km/h (3 Bft) 100,00 %
27.02.2016 14:15 7,4 C 65 % 1006,3 hPa 0,0 l/m 10,7 km/h (2 Bft) N-NO 19 1 min 0,000 mm 1,1 UV-I 429 W/m 1,3 C 4,3 C 14,5 km/h (3 Bft) 100,00 %
27.02.2016 14:16 7,4 C 65 % 1006,3 hPa 0,0 l/m 13,6 km/h (3 Bft) NO 44 1 min 0,000 mm 1,1 UV-I 437 W/m 1,3 C 2,7 C 17,7 km/h (3 Bft) 100,00 %
27.02.2016 14:17 7,5 C 65 % 1006,3 hPa 0,0 l/m 14,9 km/h (3 Bft) NO 49 1 min 0,000 mm 1,1 UV-I 444 W/m 1,4 C 2,2 C 20,9 km/h (4 Bft) 96,30 %
27.02.2016 14:18 7,6 C 65 % 1006,3 hPa 0,0 l/m 10,6 km/h (2 Bft) N-NO 33 1 min 0,000 mm 1,1 UV-I 446 W/m 1,5 C 4,6 C 16,1 km/h (3 Bft) 100,00 %
27.02.2016 14:19 7,7 C 64 % 1006,4 hPa 0,0 l/m 10,9 km/h (2 Bft) NO 47 1 min 0,000 mm 1,1 UV-I 457 W/m 1,3 C 4,5 C 14,5 km/h (3 Bft) 100,00 %
27.02.2016 14:20 7,7 C 62 % 1006,3 hPa 0,0 l/m 12,5 km/h (3 Bft) O-NO 59 1 min 0,000 mm 1,1 UV-I 456 W/m 0,9 C 3,6 C 16,1 km/h (3 Bft) 91,67 %
27.02.2016 14:21 7,7 C 63 % 1006,3 hPa 0,0 l/m 14,0 km/h (3 Bft) NO 51 1 min 0,000 mm 1,1 UV-I 458 W/m 1,1 C 2,8 C 19,3 km/h (3 Bft) 96,15 %
27.02.2016 14:22 7,7 C 63 % 1006,3 hPa 0,0 l/m 14,3 km/h (3 Bft) NO 41 1 min 0,000 mm 1,1 UV-I 457 W/m 1,1 C 2,7 C 17,7 km/h (3 Bft) 100,00 %
27.02.2016 14:23 7,8 C 65 % 1006,3 hPa 0,0 l/m 17,4 km/h (3 Bft) NO 52 1 min 0,000 mm 1,1 UV-I 457 W/m 1,6 C 1,4 C 20,9 km/h (4 Bft) 96,15 %
27.02.2016 14:24 7,8 C 63 % 1006,3 hPa 0,0 l/m 16,6 km/h (3 Bft) O-NO 62 1 min 0,000 mm 1,1 UV-I 455 W/m 1,2 C 1,8 C 22,5 km/h (4 Bft) 100,00 %
27.02.2016 14:25 7,8 C 61 % 1006,3 hPa 0,0 l/m 16,8 km/h (3 Bft) O-NO 66 1 min 0,000 mm 1,1 UV-I 458 W/m 0,8 C 1,7 C 20,9 km/h (4 Bft) 100,00 %
27.02.2016 14:26 7,8 C 61 % 1006,3 hPa 0,0 l/m 16,8 km/h (3 Bft) O-NO 60 1 min 0,000 mm 1,0 UV-I 454 W/m 0,8 C 1,7 C 19,3 km/h (3 Bft) 100,00 %
27.02.2016 14:27 7,7 C 60 % 1006,2 hPa 0,0 l/m 13,1 km/h (3 Bft) O-NO 62 1 min 0,000 mm 1,0 UV-I 452 W/m 0,4 C 3,3 C 17,7 km/h (3 Bft) 100,00 %
27.02.2016 14:28 7,7 C 61 % 1006,3 hPa 0,0 l/m 15,1 km/h (3 Bft) NO 51 1 min 0,000 mm 1,0 UV-I 448 W/m 0,7 C 2,3 C 19,3 km/h (3 Bft) 100,00 %
27.02.2016 14:29 7,7 C 61 % 1006,3 hPa 0,0 l/m 12,5 km/h (3 Bft) O-NO 63 1 min 0,000 mm 1,0 UV-I 446 W/m 0,7 C 3,6 C 17,7 km/h (3 Bft) 100,00 %
27.02.2016 14:30 7,7 C 61 % 1006,3 hPa 0,0 l/m 12,3 km/h (3 Bft) N-NO 31 1 min 0,000 mm 1,0 UV-I 443 W/m 0,7 C 3,7 C 17,7 km/h (3 Bft) 100,00 %
27.02.2016 14:31 7,8 C 63 % 1006,3 hPa 0,0 l/m 13,2 km/h (3 Bft) O-NO 60 1 min 0,000 mm 1,0 UV-I 439 W/m 1,2 C 3,3 C 17,7 km/h (3 Bft) 100,00 %
27.02.2016 14:32 7,8 C 63 % 1006,3 hPa 0,0 l/m 13,3 km/h (3 Bft) O-NO 73 1 min 0,000 mm 1,0 UV-I 424 W/m 1,2 C 3,3 C 17,7 km/h (3 Bft) 100,00 %
27.02.2016 14:33 7,9 C 62 % 1006,3 hPa 0,0 l/m 12,8 km/h (3 Bft) O-NO 74 1 min 0,000 mm 1,0 UV-I 407 W/m 1,1 C 3,7 C 16,1 km/h (3 Bft) 100,00 %
27.02.2016 14:34 7,9 C 61 % 1006,3 hPa 0,0 l/m 16,0 km/h (3 Bft) NO 51 1 min 0,000 mm 0,9 UV-I 396 W/m 0,9 C 2,1 C 19,3 km/h (3 Bft) 100,00 %
27.02.2016 14:35 7,9 C 61 % 1006,3 hPa 0,0 l/m 14,9 km/h (3 Bft) NO 42 1 min 0,000 mm 0,9 UV-I 387 W/m 0,9 C 2,6 C 20,9 km/h (4 Bft) 100,00 %
27.02.2016 14:36 7,9 C 61 % 1006,3 hPa 0,0 l/m 13,8 km/h (3 Bft) O-NO 67 1 min 0,000 mm 0,9 UV-I 381 W/m 0,9 C 3,2 C 16,1 km/h (3 Bft) 95,83 %
27.02.2016 14:37 7,9 C 61 % 1006,2 hPa 0,0 l/m 13,2 km/h (3 Bft) O-NO 58 1 min 0,000 mm 0,9 UV-I 373 W/m 0,9 C 3,5 C 19,3 km/h (3 Bft) 100,00 %
27.02.2016 14:38 7,9 C 61 % 1006,2 hPa 0,0 l/m 13,5 km/h (3 Bft) O-NO 63 1 min 0,000 mm 0,9 UV-I 367 W/m 0,9 C 3,3 C 17,7 km/h (3 Bft) 100,00 %
27.02.2016 14:39 7,9 C 62 % 1006,2 hPa 0,0 l/m 14,6 km/h (3 Bft) NO 35 1 min 0,000 mm 0,9 UV-I 361 W/m 1,1 C 2,8 C 20,9 km/h (4 Bft) 100,00 %
27.02.2016 14:40 7,9 C 62 % 1006,2 hPa 0,0 l/m 18,4 km/h (3 Bft) N-NO 27 1 min 0,000 mm 0,9 UV-I 362 W/m 1,1 C 1,2 C 22,5 km/h (4 Bft) 100,00 %
27.02.2016 14:41 7,9 C 63 % 1006,2 hPa 0,0 l/m 8,2 km/h (2 Bft) N 355 1 min 0,000 mm 0,8 UV-I 365 W/m 1,3 C 6,5 C 11,3 km/h (2 Bft) 100,00 %
27.02.2016 14:42 7,9 C 64 % 1006,2 hPa 0,0 l/m 5,9 km/h (2 Bft) N-NO 19 1 min 0,000 mm 0,8 UV-I 354 W/m 1,5 C 7,9 C 8,0 km/h (2 Bft) 100,00 %
27.02.2016 14:43 7,9 C 64 % 1006,2 hPa 0,0 l/m 12,5 km/h (3 Bft) N-NO 19 1 min 0,000 mm 0,8 UV-I 335 W/m 1,5 C 3,8 C 16,1 km/h (3 Bft) 100,00 %
27.02.2016 14:44 7,9 C 64 % 1006,2 hPa 0,0 l/m 13,8 km/h (3 Bft) NO 47 1 min 0,000 mm 0,8 UV-I 359 W/m 1,5 C 3,2 C 17,7 km/h (3 Bft) 100,00 %
27.02.2016 14:45 8,0 C 63 % 1006,2 hPa 0,0 l/m 10,3 km/h (2 Bft) NO 38 1 min 0,000 mm 0,8 UV-I 361 W/m 1,4 C 5,2 C 16,1 km/h (3 Bft) 100,00 %
27.02.2016 14:46 8,0 C 63 % 1006,2 hPa 0,0 l/m 6,5 km/h (2 Bft) NO 50 1 min 0,000 mm 0,8 UV-I 363 W/m 1,4 C 7,9 C 11,3 km/h (2 Bft) 98,42 %
27.02.2016 14:47 8,1 C 62 % 1006,2 hPa 0,0 l/m 5,6 km/h (1 Bft) N-NO 26 1 min 0,000 mm 0,8 UV-I 370 W/m 1,3 C 8,1 C 8,0 km/h (2 Bft) 97,62 %
27.02.2016 14:48 8,1 C 64 % 1006,2 hPa 0,0 l/m 13,2 km/h (3 Bft) NO 42 1 min 0,000 mm 0,8 UV-I 382 W/m 1,7 C 3,7 C 17,7 km/h (3 Bft) 100,00 %
27.02.2016 14:49 8,2 C 62 % 1006,2 hPa 0,0 l/m 8,3 km/h (2 Bft) O-NO 63 1 min 0,000 mm 0,8 UV-I 390 W/m 1,4 C 6,7 C 11,3 km/h (2 Bft) 91,67 %
27.02.2016 14:50 8,2 C 60 % 1006,2 hPa 0,0 l/m 9,4 km/h (2 Bft) N-NO 15 1 min 0,000 mm 0,8 UV-I 394 W/m 0,9 C 6,0 C 11,3 km/h (2 Bft) 92,31 %
27.02.2016 14:51 8,2 C 62 % 1006,2 hPa 0,0 l/m 11,3 km/h (2 Bft) O 80 1 min 0,000 mm 0,8 UV-I 384 W/m 1,4 C 4,8 C 14,5 km/h (3 Bft) 100,00 %
27.02.2016 14:52 8,2 C 61 % 1006,3 hPa 0,0 l/m 11,7 km/h (2 Bft) NO 49 1 min 0,000 mm 0,8 UV-I 376 W/m 1,1 C 4,6 C 19,3 km/h (3 Bft) 95,65 %
27.02.2016 14:53 8,2 C 60 % 1006,3 hPa 0,0 l/m 13,5 km/h (3 Bft) NO 45 1 min 0,000 mm 0,7 UV-I 343 W/m 0,9 C 3,7 C 19,3 km/h (3 Bft) 100,00 %
27.02.2016 14:54 8,2 C 61 % 1006,3 hPa 0,0 l/m 10,7 km/h (2 Bft) NO 41 1 min 0,000 mm 0,7 UV-I 311 W/m 1,1 C 5,2 C 14,5 km/h (3 Bft) 96,15 %
27.02.2016 14:55 8,2 C 62 % 1006,3 hPa 0,0 l/m 14,6 km/h (3 Bft) O-NO 67 1 min 0,000 mm 0,7 UV-I 290 W/m 1,4 C 3,1 C 20,9 km/h (4 Bft) 96,30 %
27.02.2016 14:56 8,2 C 60 % 1006,3 hPa 0,0 l/m 10,7 km/h (2 Bft) O-NO 74 1 min 0,000 mm 0,7 UV-I 225 W/m 0,9 C 5,2 C 16,1 km/h (3 Bft) 92,86 %
27.02.2016 14:57 8,1 C 59 % 1006,3 hPa 0,0 l/m 6,5 km/h (2 Bft) O-NO 59 0 min 0,000 mm 0,6 UV-I 195 W/m 0,6 C 8,0 C 9,7 km/h (2 Bft) 100,00 %
27.02.2016 14:58 8,1 C 59 % 1006,3 hPa 0,0 l/m 8,1 km/h (2 Bft) NO 53 0 min 0,000 mm 0,6 UV-I 209 W/m 0,6 C 6,8 C 9,7 km/h (2 Bft) 96,15 %
27.02.2016 14:59 8,1 C 61 % 1006,3 hPa 0,0 l/m 10,6 km/h (2 Bft) O-NO 65 0 min 0,000 mm 0,6 UV-I 207 W/m 1,0 C 5,1 C 16,1 km/h (3 Bft) 96,30 %
27.02.2016 15:00 8,0 C 61 % 1006,3 hPa 0,0 l/m 11,4 km/h (2 Bft) NO 34 0 min 0,000 mm 0,6 UV-I 197 W/m 0,9 C 4,5 C 16,1 km/h (3 Bft) 100,00 %
27.02.2016 15:01 8,0 C 60 % 1006,3 hPa 0,0 l/m 11,5 km/h (2 Bft) N 5 0 min 0,203 mm 0,6 UV-I 190 W/m 0,7 C 4,5 C 16,1 km/h (3 Bft) 96,15 %
27.02.2016 15:03 7,9 C 59 % 1006,3 hPa 0,0 l/m 13,3 km/h (3 Bft) NO 46 0 min 0,000 mm 0,6 UV-I 177 W/m 0,4 C 3,4 C 20,9 km/h (4 Bft) 98,11 %
27.02.2016 15:04 7,9 C 60 % 1006,3 hPa 0,0 l/m 11,4 km/h (2 Bft) NO 53 0 min 0,000 mm 0,5 UV-I 159 W/m 0,6 C 4,4 C 17,7 km/h (3 Bft) 100,00 %
27.02.2016 15:05 7,9 C 59 % 1006,3 hPa 0,0 l/m 12,3 km/h (3 Bft) NO 47 0 min 0,000 mm 0,5 UV-I 132 W/m 0,4 C 3,9 C 16,1 km/h (3 Bft) 95,83 %
27.02.2016 15:06 7,9 C 59 % 1006,3 hPa 0,0 l/m 14,9 km/h (3 Bft) O-NO 57 0 min 0,000 mm 0,5 UV-I 123 W/m 0,4 C 2,6 C 19,3 km/h (3 Bft) 100,00 %
27.02.2016 15:07 7,9 C 58 % 1006,3 hPa 0,0 l/m 15,2 km/h (3 Bft) NO 53 0 min 0,000 mm 0,5 UV-I 123 W/m 0,2 C 2,5 C 17,7 km/h (3 Bft) 95,65 %
27.02.2016 15:08 7,9 C 58 % 1006,3 hPa 0,0 l/m 11,7 km/h (2 Bft) NO 53 0 min 0,000 mm 0,5 UV-I 124 W/m 0,2 C 4,3 C 19,3 km/h (3 Bft) 96,30 %
27.02.2016 15:09 7,8 C 59 % 1006,3 hPa 0,0 l/m 12,6 km/h (3 Bft) NO 36 0 min 0,000 mm 0,5 UV-I 118 W/m 0,3 C 3,7 C 17,7 km/h (3 Bft) 100,00 %
27.02.2016 15:10 7,8 C 58 % 1006,3 hPa 0,0 l/m 11,1 km/h (2 Bft) O-NO 61 0 min 0,000 mm 0,5 UV-I 116 W/m 0,1 C 4,5 C 19,3 km/h (3 Bft) 96,30 %
27.02.2016 15:11 7,8 C 59 % 1006,3 hPa 0,0 l/m 14,8 km/h (3 Bft) O-NO 58 0 min 0,000 mm 0,5 UV-I 112 W/m 0,3 C 2,6 C 19,3 km/h (3 Bft) 100,00 %
27.02.2016 15:12 7,7 C 59 % 1006,3 hPa 0,0 l/m 14,1 km/h (3 Bft) O-NO 63 0 min 0,000 mm 0,5 UV-I 111 W/m 0,2 C 2,8 C 19,3 km/h (3 Bft) 96,30 %
27.02.2016 15:13 7,7 C 58 % 1006,3 hPa 0,0 l/m 13,6 km/h (3 Bft) O-NO 67 0 min 0,000 mm 0,5 UV-I 113 W/m -0,0 C 3,0 C 19,3 km/h (3 Bft) 100,00 %
27.02.2016 15:14 7,7 C 60 % 1006,3 hPa 0,0 l/m 14,2 km/h (3 Bft) O-NO 67 0 min 0,000 mm 0,4 UV-I 113 W/m 0,4 C 2,7 C 16,1 km/h (3 Bft) 96,67 %
27.02.2016 15:15 7,7 C 58 % 1006,3 hPa 0,0 l/m 14,9 km/h (3 Bft) O-NO 61 0 min 0,000 mm 0,0 UV-I 115 W/m -0,0 C 2,4 C 22,5 km/h (4 Bft) 92,31 %
27.02.2016 15:16 7,7 C 59 % 1006,3 hPa 0,0 l/m 15,7 km/h (3 Bft) N-NO 28 0 min 0,000 mm 0,0 UV-I 117 W/m 0,2 C 2,0 C 19,3 km/h (3 Bft) 100,00 %
27.02.2016 15:17 7,7 C 60 % 1006,3 hPa 0,0 l/m 13,3 km/h (3 Bft) O-NO 78 0 min 0,000 mm 0,0 UV-I 121 W/m 0,4 C 3,2 C 17,7 km/h (3 Bft) 100,00 %
27.02.2016 15:18 7,7 C 60 % 1006,3 hPa 0,0 l/m 15,4 km/h (3 Bft) NO 55 0 min 0,000 mm 0,0 UV-I 128 W/m 0,4 C 2,2 C 19,3 km/h (3 Bft) 100,00 %
27.02.2016 15:19 7,7 C 60 % 1006,3 hPa 0,0 l/m 10,5 km/h (2 Bft) O-NO 68 0 min 0,000 mm 0,0 UV-I 135 W/m 0,4 C 4,7 C 14,5 km/h (3 Bft) 95,65 %
27.02.2016 15:20 7,7 C 61 % 1006,3 hPa 0,0 l/m 12,2 km/h (2 Bft) NO 56 0 min 0,000 mm 0,0 UV-I 150 W/m 0,7 C 3,8 C 17,7 km/h (3 Bft) 86,67 %
27.02.2016 15:21 7,7 C 59 % 1006,3 hPa 0,0 l/m 13,6 km/h (3 Bft) NO 45 0 min 0,000 mm 0,0 UV-I 170 W/m 0,2 C 3,0 C 19,3 km/h (3 Bft) 100,00 %
27.02.2016 15:22 7,7 C 59 % 1006,3 hPa 0,0 l/m 14,1 km/h (3 Bft) NO 46 1 min 0,000 mm 0,3 UV-I 193 W/m 0,2 C 2,8 C 17,7 km/h (3 Bft) 100,00 %
27.02.2016 15:23 7,7 C 60 % 1006,3 hPa 0,0 l/m 12,8 km/h (3 Bft) O 81 1 min 0,000 mm 0,5 UV-I 248 W/m 0,4 C 3,4 C 16,1 km/h (3 Bft) 96,30 %
27.02.2016 15:24 7,8 C 60 % 1006,3 hPa 0,0 l/m 14,7 km/h (3 Bft) O-NO 63 1 min 0,000 mm 0,5 UV-I 321 W/m 0,5 C 2,6 C 17,7 km/h (3 Bft) 100,00 %
27.02.2016 15:25 7,8 C 59 % 1006,3 hPa 0,0 l/m 15,0 km/h (3 Bft) O-NO 66 1 min 0,000 mm 0,5 UV-I 380 W/m 0,3 C 2,5 C 17,7 km/h (3 Bft) 100,00 %
27.02.2016 15:26 7,9 C 59 % 1006,3 hPa 0,0 l/m 13,0 km/h (3 Bft) O-NO 66 1 min 0,000 mm 0,5 UV-I 407 W/m 0,4 C 3,6 C 17,7 km/h (3 Bft) 100,00 %
27.02.2016 15:27 7,9 C 59 % 1006,3 hPa 0,0 l/m 12,9 km/h (3 Bft) NO 52 1 min 0,000 mm 0,5 UV-I 409 W/m 0,4 C 3,6 C 16,1 km/h (3 Bft) 100,00 %
27.02.2016 15:28 8,1 C 59 % 1006,3 hPa 0,0 l/m 13,2 km/h (3 Bft) NO 44 1 min 0,000 mm 0,5 UV-I 410 W/m 0,6 C 3,7 C 17,7 km/h (3 Bft) 100,00 %
27.02.2016 15:29 8,2 C 59 % 1006,3 hPa 0,0 l/m 11,9 km/h (2 Bft) O-NO 64 1 min 0,000 mm 0,5 UV-I 415 W/m 0,7 C 4,5 C 14,5 km/h (3 Bft) 100,00 %
27.02.2016 15:30 8,3 C 60 % 1006,3 hPa 0,0 l/m 11,7 km/h (2 Bft) NO 53 1 min 0,000 mm 0,5 UV-I 412 W/m 1,0 C 4,7 C 16,1 km/h (3 Bft) 100,00 %
27.02.2016 15:31 8,4 C 59 % 1006,3 hPa 0,0 l/m 11,3 km/h (2 Bft) O-NO 57 1 min 0,000 mm 0,5 UV-I 407 W/m 0,9 C 5,1 C 16,1 km/h (3 Bft) 100,00 %
27.02.2016 15:32 8,4 C 60 % 1006,3 hPa 0,0 l/m 13,7 km/h (3 Bft) NO 40 1 min 0,000 mm 0,5 UV-I 406 W/m 1,1 C 3,8 C 19,3 km/h (3 Bft) 100,00 %
27.02.2016 15:33 8,5 C 57 % 1006,3 hPa 0,0 l/m 11,9 km/h (2 Bft) O-NO 61 1 min 0,000 mm 0,5 UV-I 402 W/m 0,5 C 4,8 C 16,1 km/h (3 Bft) 100,00 %
27.02.2016 15:34 8,5 C 58 % 1006,2 hPa 0,0 l/m 11,6 km/h (2 Bft) NO 55 1 min 0,000 mm 0,5 UV-I 385 W/m 0,7 C 5,0 C 16,1 km/h (3 Bft) 100,00 %
27.02.2016 15:35 8,6 C 58 % 1006,2 hPa 0,0 l/m 12,5 km/h (3 Bft) NO 40 1 min 0,000 mm 0,5 UV-I 383 W/m 0,8 C 4,6 C 17,7 km/h (3 Bft) 100,00 %
27.02.2016 15:36 8,6 C 57 % 1006,2 hPa 0,0 l/m 13,3 km/h (3 Bft) NO 43 1 min 0,000 mm 0,5 UV-I 375 W/m 0,6 C 4,2 C 17,7 km/h (3 Bft) 100,00 %
27.02.2016 15:37 8,6 C 57 % 1006,2 hPa 0,0 l/m 8,2 km/h (2 Bft) O-NO 59 1 min 0,000 mm 0,5 UV-I 361 W/m 0,6 C 7,2 C 16,1 km/h (3 Bft) 100,00 %
27.02.2016 15:38 8,6 C 58 % 1006,2 hPa 0,0 l/m 15,7 km/h (3 Bft) N-NO 17 1 min 0,000 mm 0,5 UV-I 349 W/m 0,8 C 3,1 C 19,3 km/h (3 Bft) 100,00 %
27.02.2016 15:39 8,6 C 58 % 1006,2 hPa 0,0 l/m 15,0 km/h (3 Bft) O-NO 62 1 min 0,000 mm 0,5 UV-I 334 W/m 0,8 C 3,4 C 19,3 km/h (3 Bft) 100,00 %
27.02.2016 15:40 8,6 C 58 % 1006,2 hPa 0,0 l/m 10,2 km/h (2 Bft) NO 47 1 min 0,000 mm 0,5 UV-I 322 W/m 0,8 C 5,9 C 14,5 km/h (3 Bft) 96,30 %
27.02.2016 15:41 8,6 C 57 % 1006,2 hPa 0,0 l/m 8,5 km/h (2 Bft) NO 52 1 min 0,000 mm 0,1 UV-I 309 W/m 0,6 C 7,0 C 9,7 km/h (2 Bft) 100,00 %
27.02.2016 15:42 8,6 C 57 % 1006,2 hPa 0,0 l/m 10,9 km/h (2 Bft) O-NO 57 1 min 0,000 mm 0,0 UV-I 287 W/m 0,6 C 5,5 C 14,5 km/h (3 Bft) 100,00 %
27.02.2016 15:43 8,6 C 57 % 1006,1 hPa 0,0 l/m 15,2 km/h (3 Bft) NO 42 1 min 0,000 mm 0,0 UV-I 270 W/m 0,6 C 3,3 C 17,7 km/h (3 Bft) 100,00 %
27.02.2016 15:44 8,6 C 57 % 1006,2 hPa 0,0 l/m 17,3 km/h (3 Bft) NO 52 1 min 0,000 mm 0,0 UV-I 268 W/m 0,6 C 2,5 C 20,9 km/h (4 Bft) 100,00 %
27.02.2016 15:45 8,6 C 56 % 1006,1 hPa 0,0 l/m 13,3 km/h (3 Bft) NO 45 1 min 0,000 mm 0,0 UV-I 270 W/m 0,3 C 4,2 C 17,7 km/h (3 Bft) 100,00 %
27.02.2016 15:46 8,6 C 56 % 1006,1 hPa 0,0 l/m 11,4 km/h (2 Bft) O-NO 57 1 min 0,000 mm 0,0 UV-I 262 W/m 0,3 C 5,2 C 16,1 km/h (3 Bft) 98,40 %
27.02.2016 15:47 8,6 C 57 % 1006,2 hPa 0,0 l/m 18,3 km/h (3 Bft) NO 44 1 min 0,000 mm 0,0 UV-I 249 W/m 0,6 C 2,1 C 24,1 km/h (4 Bft) 100,00 %
27.02.2016 15:48 8,5 C 57 % 1006,2 hPa 0,0 l/m 16,0 km/h (3 Bft) NO 42 1 min 0,000 mm 0,0 UV-I 238 W/m 0,5 C 2,9 C 19,3 km/h (3 Bft) 100,00 %
27.02.2016 15:49 8,5 C 57 % 1006,1 hPa 0,0 l/m 11,9 km/h (2 Bft) N-NO 24 1 min 0,000 mm 0,0 UV-I 239 W/m 0,5 C 4,8 C 16,1 km/h (3 Bft) 90,91 %
27.02.2016 15:50 8,4 C 57 % 1006,1 hPa 0,0 l/m 11,8 km/h (2 Bft) O-NO 69 1 min 0,000 mm 0,0 UV-I 241 W/m 0,4 C 4,8 C 16,1 km/h (3 Bft) 100,00 %
27.02.2016 15:51 8,5 C 57 % 1006,1 hPa 0,0 l/m 17,0 km/h (3 Bft) NO 56 1 min 0,000 mm 0,0 UV-I 242 W/m 0,5 C 2,5 C 20,9 km/h (4 Bft) 100,00 %
27.02.2016 15:52 8,5 C 57 % 1006,1 hPa 0,0 l/m 16,0 km/h (3 Bft) NO 51 1 min 0,000 mm 0,0 UV-I 243 W/m 0,5 C 2,9 C 20,9 km/h (4 Bft) 100,00 %
27.02.2016 15:53 8,5 C 58 % 1006,1 hPa 0,0 l/m 13,9 km/h (3 Bft) NO 46 1 min 0,000 mm 0,0 UV-I 238 W/m 0,7 C 3,8 C 19,3 km/h (3 Bft) 100,00 %
27.02.2016 15:54 8,4 C 57 % 1006,1 hPa 0,0 l/m 11,3 km/h (2 Bft) O-NO 59 1 min 0,000 mm 0,0 UV-I 231 W/m 0,4 C 5,1 C 16,1 km/h (3 Bft) 100,00 %
27.02.2016 15:55 8,5 C 57 % 1006,1 hPa 0,0 l/m 11,5 km/h (2 Bft) O-NO 58 1 min 0,000 mm 0,0 UV-I 231 W/m 0,5 C 5,1 C 16,1 km/h (3 Bft) 100,00 %
27.02.2016 15:56 8,5 C 58 % 1006,2 hPa 0,0 l/m 14,0 km/h (3 Bft) NO 51 1 min 0,000 mm 0,0 UV-I 230 W/m 0,7 C 3,8 C 17,7 km/h (3 Bft) 100,00 %
27.02.2016 15:57 8,5 C 56 % 1006,1 hPa 0,0 l/m 15,8 km/h (3 Bft) O-NO 61 1 min 0,000 mm 0,0 UV-I 229 W/m 0,2 C 3,0 C 20,9 km/h (4 Bft) 100,00 %
27.02.2016 15:58 8,5 C 56 % 1006,1 hPa 0,0 l/m 17,0 km/h (3 Bft) O-NO 58 1 min 0,000 mm 0,0 UV-I 229 W/m 0,2 C 2,5 C 19,3 km/h (3 Bft) 94,44 %
27.02.2016 15:59 8,5 C 55 % 1006,2 hPa 0,0 l/m 16,7 km/h (3 Bft) NO 46 1 min 0,000 mm 0,0 UV-I 220 W/m -0,0 C 2,6 C 19,3 km/h (3 Bft) 96,55 %
27.02.2016 16:00 8,5 C 56 % 1006,2 hPa 0,0 l/m 10,0 km/h (2 Bft) N-NO 24 1 min 0,000 mm 0,0 UV-I 218 W/m 0,2 C 5,9 C 17,7 km/h (3 Bft) 96,30 %
27.02.2016 16:02 8,5 C 57 % 1006,2 hPa 0,0 l/m 14,8 km/h (3 Bft) NO 52 2 min 0,152 mm 0,0 UV-I 212 W/m 0,5 C 3,4 C 24,1 km/h (4 Bft) 100,00 %
27.02.2016 16:03 8,6 C 56 % 1006,2 hPa 0,0 l/m 16,5 km/h (3 Bft) O-NO 69 1 min 0,000 mm 0,0 UV-I 193 W/m 0,3 C 2,8 C 20,9 km/h (4 Bft) 100,00 %
27.02.2016 16:04 8,6 C 57 % 1006,1 hPa 0,0 l/m 14,7 km/h (3 Bft) O-NO 64 1 min 0,000 mm 0,0 UV-I 190 W/m 0,6 C 3,6 C 19,3 km/h (3 Bft) 100,00 %
27.02.2016 16:05 8,6 C 55 % 1006,1 hPa 0,0 l/m 16,4 km/h (3 Bft) O-NO 59 1 min 0,000 mm 0,0 UV-I 174 W/m 0,1 C 2,8 C 19,3 km/h (3 Bft) 100,00 %
27.02.2016 16:06 8,6 C 56 % 1006,1 hPa 0,0 l/m 15,1 km/h (3 Bft) O-NO 59 1 min 0,000 mm 0,0 UV-I 180 W/m 0,3 C 3,4 C 19,3 km/h (3 Bft) 100,00 %
27.02.2016 16:07 8,6 C 57 % 1006,2 hPa 0,0 l/m 12,5 km/h (3 Bft) NO 34 1 min 0,000 mm 0,0 UV-I 189 W/m 0,6 C 4,6 C 16,1 km/h (3 Bft) 100,00 %
27.02.2016 16:08 8,6 C 58 % 1006,1 hPa 0,0 l/m 10,8 km/h (2 Bft) NO 49 1 min 0,000 mm 0,0 UV-I 174 W/m 0,8 C 5,6 C 14,5 km/h (3 Bft) 100,00 %
27.02.2016 16:09 8,5 C 58 % 1006,2 hPa 0,0 l/m 14,1 km/h (3 Bft) NO 40 1 min 0,000 mm 0,0 UV-I 158 W/m 0,7 C 3,7 C 17,7 km/h (3 Bft) 100,00 %
27.02.2016 16:10 8,5 C 58 % 1006,2 hPa 0,0 l/m 9,2 km/h (2 Bft) NO 54 1 min 0,000 mm 0,0 UV-I 163 W/m 0,7 C 6,4 C 14,5 km/h (3 Bft) 100,00 %
27.02.2016 16:11 8,5 C 57 % 1006,2 hPa 0,0 l/m 12,6 km/h (3 Bft) NO 53 1 min 0,000 mm 0,0 UV-I 181 W/m 0,5 C 4,5 C 16,1 km/h (3 Bft) 96,67 %
27.02.2016 16:12 8,4 C 57 % 1006,2 hPa 0,0 l/m 13,5 km/h (3 Bft) NO 51 1 min 0,000 mm 0,0 UV-I 183 W/m 0,4 C 3,9 C 17,7 km/h (3 Bft) 100,00 %
27.02.2016 16:13 8,4 C 58 % 1006,2 hPa 0,0 l/m 11,2 km/h (2 Bft) O-NO 70 1 min 0,000 mm 0,0 UV-I 181 W/m 0,6 C 5,1 C 14,5 km/h (3 Bft) 100,00 %
27.02.2016 16:14 8,5 C 57 % 1006,2 hPa 0,0 l/m 11,3 km/h (2 Bft) NO 41 1 min 0,000 mm 0,0 UV-I 178 W/m 0,5 C 5,2 C 16,1 km/h (3 Bft) 100,00 %
27.02.2016 16:15 8,5 C 58 % 1006,1 hPa 0,0 l/m 13,6 km/h (3 Bft) NO 48 1 min 0,000 mm 0,0 UV-I 175 W/m 0,7 C 4,0 C 17,7 km/h (3 Bft) 100,00 %
27.02.2016 16:16 8,5 C 58 % 1006,1 hPa 0,0 l/m 15,4 km/h (3 Bft) O-NO 58 1 min 0,000 mm 0,0 UV-I 172 W/m 0,7 C 3,1 C 19,3 km/h (3 Bft) 100,00 %
27.02.2016 16:17 8,5 C 57 % 1006,1 hPa 0,0 l/m 12,9 km/h (3 Bft) O-NO 64 1 min 0,000 mm 0,0 UV-I 169 W/m 0,5 C 4,3 C 16,1 km/h (3 Bft) 100,00 %
27.02.2016 16:18 8,5 C 58 % 1006,1 hPa 0,0 l/m 10,9 km/h (2 Bft) O-NO 67 1 min 0,000 mm 0,0 UV-I 166 W/m 0,7 C 5,4 C 16,1 km/h (3 Bft) 100,00 %
27.02.2016 16:19 8,5 C 57 % 1006,1 hPa 0,0 l/m 19,4 km/h (3 Bft) NO 47 1 min 0,000 mm 0,0 UV-I 162 W/m 0,5 C 1,6 C 24,1 km/h (4 Bft) 100,00 %
27.02.2016 16:20 8,5 C 56 % 1006,1 hPa 0,0 l/m 17,2 km/h (3 Bft) O-NO 65 1 min 0,000 mm 0,0 UV-I 160 W/m 0,2 C 2,4 C 22,5 km/h (4 Bft) 100,00 %
27.02.2016 16:21 8,4 C 55 % 1006,2 hPa 0,0 l/m 15,6 km/h (3 Bft) NO 53 1 min 0,000 mm 0,0 UV-I 156 W/m -0,1 C 2,9 C 19,3 km/h (3 Bft) 100,00 %
27.02.2016 16:22 8,4 C 56 % 1006,1 hPa 0,0 l/m 12,6 km/h (3 Bft) O-NO 58 1 min 0,000 mm 0,0 UV-I 153 W/m 0,1 C 4,4 C 20,9 km/h (4 Bft) 100,00 %
27.02.2016 16:23 8,4 C 57 % 1006,1 hPa 0,0 l/m 14,0 km/h (3 Bft) NO 49 1 min 0,000 mm 0,0 UV-I 150 W/m 0,4 C 3,7 C 20,9 km/h (4 Bft) 100,00 %
27.02.2016 16:24 8,4 C 57 % 1006,1 hPa 0,0 l/m 12,9 km/h (3 Bft) NO 44 1 min 0,000 mm 0,0 UV-I 147 W/m 0,4 C 4,2 C 16,1 km/h (3 Bft) 100,00 %
27.02.2016 16:25 8,4 C 57 % 1006,1 hPa 0,0 l/m 13,6 km/h (3 Bft) NO 45 1 min 0,000 mm 0,0 UV-I 143 W/m 0,4 C 3,9 C 17,7 km/h (3 Bft) 96,15 %
27.02.2016 16:26 8,4 C 57 % 1006,1 hPa 0,0 l/m 13,0 km/h (3 Bft) NO 55 1 min 0,000 mm 0,0 UV-I 140 W/m 0,4 C 4,1 C 16,1 km/h (3 Bft) 100,00 %
27.02.2016 16:27 8,4 C 57 % 1006,1 hPa 0,0 l/m 12,8 km/h (3 Bft) NO 42 1 min 0,000 mm 0,0 UV-I 137 W/m 0,4 C 4,3 C 16,1 km/h (3 Bft) 100,00 %
27.02.2016 16:28 8,5 C 57 % 1006,1 hPa 0,0 l/m 8,4 km/h (2 Bft) NO 38 1 min 0,000 mm 0,0 UV-I 134 W/m 0,5 C 7,0 C 11,3 km/h (2 Bft) 100,00 %
27.02.2016 16:29 8,4 C 58 % 1006,1 hPa 0,0 l/m 15,5 km/h (3 Bft) O-NO 76 1 min 0,000 mm 0,0 UV-I 130 W/m 0,6 C 3,0 C 20,9 km/h (4 Bft) 100,00 %
27.02.2016 16:30 8,4 C 57 % 1006,1 hPa 0,0 l/m 15,4 km/h (3 Bft) NO 55 1 min 0,000 mm 0,0 UV-I 128 W/m 0,4 C 3,0 C 17,7 km/h (3 Bft) 100,00 %
27.02.2016 16:31 8,4 C 57 % 1006,1 hPa 0,0 l/m 13,9 km/h (3 Bft) NO 49 1 min 0,000 mm 0,0 UV-I 126 W/m 0,4 C 3,7 C 19,3 km/h (3 Bft) 95,65 %
27.02.2016 16:32 8,5 C 58 % 1006,1 hPa 0,0 l/m 14,2 km/h (3 Bft) O-NO 74 1 min 0,000 mm 0,0 UV-I 122 W/m 0,7 C 3,7 C 17,7 km/h (3 Bft) 100,00 %
27.02.2016 16:33 8,4 C 57 % 1006,1 hPa 0,0 l/m 15,6 km/h (3 Bft) O-NO 59 1 min 0,000 mm 0,0 UV-I 120 W/m 0,4 C 2,9 C 20,9 km/h (4 Bft) 100,00 %
27.02.2016 16:34 8,4 C 58 % 1006,1 hPa 0,0 l/m 19,0 km/h (3 Bft) O-NO 63 1 min 0,000 mm 0,0 UV-I 118 W/m 0,6 C 1,6 C 22,5 km/h (4 Bft) 95,83 %
27.02.2016 16:35 8,4 C 58 % 1006,0 hPa 0,0 l/m 16,8 km/h (3 Bft) NO 49 1 min 0,000 mm 0,0 UV-I 114 W/m 0,6 C 2,4 C 20,9 km/h (4 Bft) 100,00 %
27.02.2016 16:36 8,4 C 58 % 1006,0 hPa 0,0 l/m 13,4 km/h (3 Bft) O-NO 65 1 min 0,000 mm 0,0 UV-I 112 W/m 0,6 C 3,9 C 17,7 km/h (3 Bft) 96,30 %
27.02.2016 16:37 8,4 C 58 % 1006,0 hPa 0,0 l/m 16,6 km/h (3 Bft) O-NO 65 1 min 0,000 mm 0,0 UV-I 109 W/m 0,6 C 2,5 C 19,3 km/h (3 Bft) 100,00 %
27.02.2016 16:38 8,4 C 58 % 1006,0 hPa 0,0 l/m 15,5 km/h (3 Bft) NO 51 1 min 0,000 mm 0,0 UV-I 106 W/m 0,6 C 3,0 C 19,3 km/h (3 Bft) 92,31 %
27.02.2016 16:39 8,4 C 58 % 1006,0 hPa 0,0 l/m 11,4 km/h (2 Bft) O-NO 70 1 min 0,000 mm 0,0 UV-I 104 W/m 0,6 C 5,0 C 17,7 km/h (3 Bft) 100,00 %
27.02.2016 16:40 8,4 C 58 % 1006,0 hPa 0,0 l/m 8,4 km/h (2 Bft) N-NO 22 1 min 0,000 mm 0,0 UV-I 100 W/m 0,6 C 6,9 C 9,7 km/h (2 Bft) 93,33 %
27.02.2016 16:41 8,4 C 58 % 1006,1 hPa 0,0 l/m 7,7 km/h (2 Bft) NO 35 1 min 0,000 mm 0,0 UV-I 98 W/m 0,6 C 7,4 C 11,3 km/h (2 Bft) 91,30 %
27.02.2016 16:42 8,3 C 59 % 1006,0 hPa 0,0 l/m 11,0 km/h (2 Bft) NO 51 1 min 0,000 mm 0,0 UV-I 96 W/m 0,8 C 5,1 C 16,1 km/h (3 Bft) 98,43 %
27.02.2016 16:43 8,3 C 57 % 1006,1 hPa 0,0 l/m 11,2 km/h (2 Bft) O-NO 70 1 min 0,000 mm 0,0 UV-I 92 W/m 0,3 C 5,0 C 14,5 km/h (3 Bft) 95,45 %
27.02.2016 16:44 8,3 C 58 % 1006,1 hPa 0,0 l/m 10,9 km/h (2 Bft) NO 45 1 min 0,000 mm 0,0 UV-I 90 W/m 0,5 C 5,2 C 14,5 km/h (3 Bft) 100,00 %
27.02.2016 16:45 8,3 C 59 % 1006,2 hPa 0,0 l/m 12,6 km/h (3 Bft) NO 51 1 min 0,000 mm 0,0 UV-I 88 W/m 0,8 C 4,2 C 17,7 km/h (3 Bft) 96,30 %
27.02.2016 16:46 8,3 C 58 % 1006,2 hPa 0,0 l/m 14,9 km/h (3 Bft) O-NO 65 1 min 0,000 mm 0,0 UV-I 86 W/m 0,5 C 3,1 C 19,3 km/h (3 Bft) 100,00 %
27.02.2016 16:47 8,3 C 57 % 1006,1 hPa 0,0 l/m 10,3 km/h (2 Bft) O-NO 57 1 min 0,000 mm 0,0 UV-I 82 W/m 0,3 C 5,5 C 14,5 km/h (3 Bft) 95,83 %
27.02.2016 16:48 8,3 C 58 % 1006,2 hPa 0,0 l/m 13,1 km/h (3 Bft) O-NO 59 1 min 0,000 mm 0,0 UV-I 80 W/m 0,5 C 4,0 C 17,7 km/h (3 Bft) 100,00 %
27.02.2016 16:49 8,3 C 58 % 1006,1 hPa 0,0 l/m 15,6 km/h (3 Bft) O-NO 66 1 min 0,000 mm 0,0 UV-I 78 W/m 0,5 C 2,8 C 20,9 km/h (4 Bft) 83,33 %
27.02.2016 16:50 8,3 C 58 % 1006,2 hPa 0,0 l/m 13,9 km/h (3 Bft) NO 51 1 min 0,000 mm 0,0 UV-I 76 W/m 0,5 C 3,6 C 16,1 km/h (3 Bft) 100,00 %
27.02.2016 16:51 8,3 C 59 % 1006,1 hPa 0,0 l/m 10,9 km/h (2 Bft) O-NO 62 0 min 0,000 mm 0,0 UV-I 72 W/m 0,8 C 5,2 C 14,5 km/h (3 Bft) 96,67 %
27.02.2016 16:52 8,3 C 60 % 1006,1 hPa 0,0 l/m 13,1 km/h (3 Bft) O-NO 57 0 min 0,000 mm 0,0 UV-I 70 W/m 1,0 C 4,0 C 19,3 km/h (3 Bft) 95,65 %
27.02.2016 16:53 8,2 C 59 % 1006,1 hPa 0,0 l/m 10,0 km/h (2 Bft) O-NO 58 0 min 0,000 mm 0,0 UV-I 68 W/m 0,7 C 5,6 C 14,5 km/h (3 Bft) 100,00 %
27.02.2016 16:54 8,2 C 59 % 1006,1 hPa 0,0 l/m 12,7 km/h (3 Bft) O-NO 70 0 min 0,000 mm 0,0 UV-I 66 W/m 0,7 C 4,1 C 16,1 km/h (3 Bft) 95,65 %
27.02.2016 16:55 8,2 C 60 % 1006,2 hPa 0,0 l/m 10,4 km/h (2 Bft) O-NO 60 0 min 0,000 mm 0,0 UV-I 64 W/m 0,9 C 5,4 C 17,7 km/h (3 Bft) 96,30 %
27.02.2016 16:56 8,1 C 59 % 1006,2 hPa 0,0 l/m 17,2 km/h (3 Bft) O-NO 57 0 min 0,000 mm 0,0 UV-I 62 W/m 0,6 C 1,9 C 20,9 km/h (4 Bft) 94,12 %
27.02.2016 16:57 8,1 C 60 % 1006,2 hPa 0,0 l/m 13,9 km/h (3 Bft) O-NO 70 0 min 0,000 mm 0,0 UV-I 60 W/m 0,8 C 3,3 C 19,3 km/h (3 Bft) 100,00 %
27.02.2016 16:58 8,1 C 59 % 1006,3 hPa 0,0 l/m 13,1 km/h (3 Bft) O-NO 60 0 min 0,000 mm 0,0 UV-I 58 W/m 0,6 C 3,7 C 17,7 km/h (3 Bft) 96,15 %
27.02.2016 16:59 8,1 C 59 % 1006,2 hPa 0,0 l/m 16,0 km/h (3 Bft) O-NO 73 0 min 0,000 mm 0,0 UV-I 55 W/m 0,6 C 2,4 C 19,3 km/h (3 Bft) 100,00 %
27.02.2016 17:00 8,0 C 59 % 1006,3 hPa 0,0 l/m 11,3 km/h (2 Bft) O-NO 76 0 min 0,000 mm 0,0 UV-I 53 W/m 0,5 C 4,6 C 14,5 km/h (3 Bft) 95,83 %
27.02.2016 17:01 8,0 C 60 % 1006,3 hPa 0,0 l/m 13,2 km/h (3 Bft) O-NO 64 0 min 0,102 mm 0,0 UV-I 51 W/m 0,7 C 3,6 C 17,7 km/h (3 Bft) 96,15 %
27.02.2016 17:02 7,9 C 60 % 1006,2 hPa 0,0 l/m 12,3 km/h (3 Bft) O-NO 63 0 min 0,000 mm 0,0 UV-I 50 W/m 0,6 C 3,9 C 16,1 km/h (3 Bft) 100,00 %
27.02.2016 17:03 7,9 C 59 % 1006,2 hPa 0,0 l/m 12,0 km/h (2 Bft) O-NO 57 0 min 0,000 mm 0,0 UV-I 47 W/m 0,4 C 4,1 C 16,1 km/h (3 Bft) 96,55 %
27.02.2016 17:04 7,9 C 60 % 1006,2 hPa 0,0 l/m 11,7 km/h (2 Bft) O-NO 74 0 min 0,000 mm 0,0 UV-I 46 W/m 0,6 C 4,3 C 14,5 km/h (3 Bft) 100,00 %
27.02.2016 17:05 7,9 C 61 % 1006,2 hPa 0,0 l/m 7,0 km/h (2 Bft) O-NO 65 0 min 0,000 mm 0,0 UV-I 43 W/m 0,9 C 7,4 C 12,9 km/h (3 Bft) 90,91 %
27.02.2016 17:06 7,8 C 60 % 1006,2 hPa 0,0 l/m 9,1 km/h (2 Bft) O-NO 65 0 min 0,000 mm 0,0 UV-I 41 W/m 0,5 C 5,8 C 11,3 km/h (2 Bft) 96,30 %
27.02.2016 17:07 7,8 C 61 % 1006,2 hPa 0,0 l/m 11,3 km/h (2 Bft) O-NO 57 0 min 0,000 mm 0,0 UV-I 39 W/m 0,8 C 4,4 C 16,1 km/h (3 Bft) 96,15 %
27.02.2016 17:08 7,8 C 60 % 1006,2 hPa 0,0 l/m 9,0 km/h (2 Bft) O-NO 76 0 min 0,000 mm 0,0 UV-I 37 W/m 0,5 C 5,8 C 14,5 km/h (3 Bft) 100,00 %
27.02.2016 17:09 7,7 C 61 % 1006,2 hPa 0,0 l/m 8,8 km/h (2 Bft) O-NO 69 0 min 0,000 mm 0,0 UV-I 35 W/m 0,7 C 5,9 C 12,9 km/h (3 Bft) 100,00 %
27.02.2016 17:10 7,7 C 61 % 1006,2 hPa 0,0 l/m 10,2 km/h (2 Bft) O-NO 77 0 min 0,000 mm 0,0 UV-I 33 W/m 0,7 C 4,9 C 12,9 km/h (3 Bft) 100,00 %
27.02.2016 17:13 7,6 C 61 % 1006,2 hPa 0,0 l/m 10,0 km/h (2 Bft) O-NO 66 0 min 0,000 mm 0,0 UV-I 28 W/m 0,6 C 4,9 C 12,9 km/h (3 Bft) 100,00 %
27.02.2016 17:14 7,6 C 62 % 1006,2 hPa 0,0 l/m 10,4 km/h (2 Bft) O-NO 66 0 min 0,000 mm 0,0 UV-I 26 W/m 0,8 C 4,7 C 14,5 km/h (3 Bft) 100,00 %
27.02.2016 17:15 7,6 C 61 % 1006,3 hPa 0,0 l/m 7,9 km/h (2 Bft) NO 56 0 min 0,000 mm 0,0 UV-I 25 W/m 0,6 C 6,4 C 16,1 km/h (3 Bft) 96,88 %
27.02.2016 17:16 7,6 C 61 % 1006,3 hPa 0,0 l/m 10,3 km/h (2 Bft) O-NO 65 0 min 0,000 mm 0,0 UV-I 23 W/m 0,6 C 4,8 C 14,5 km/h (3 Bft) 100,00 %
27.02.2016 17:17 7,5 C 62 % 1006,3 hPa 0,0 l/m 8,1 km/h (2 Bft) O-NO 57 0 min 0,000 mm 0,0 UV-I 22 W/m 0,7 C 6,2 C 11,3 km/h (2 Bft) 100,00 %
27.02.2016 17:18 7,5 C 62 % 1006,3 hPa 0,0 l/m 8,6 km/h (2 Bft) O-NO 63 0 min 0,000 mm 0,0 UV-I 21 W/m 0,7 C 5,8 C 12,9 km/h (3 Bft) 96,30 %
27.02.2016 17:19 7,4 C 62 % 1006,3 hPa 0,0 l/m 9,0 km/h (2 Bft) O-NO 67 0 min 0,000 mm 0,0 UV-I 20 W/m 0,6 C 5,4 C 12,9 km/h (3 Bft) 100,00 %
27.02.2016 17:20 7,4 C 62 % 1006,3 hPa 0,0 l/m 7,9 km/h (2 Bft) NO 48 0 min 0,000 mm 0,0 UV-I 19 W/m 0,6 C 6,2 C 9,7 km/h (2 Bft) 100,00 %
27.02.2016 17:21 7,4 C 61 % 1006,2 hPa 0,0 l/m 9,3 km/h (2 Bft) O 80 0 min 0,000 mm 0,0 UV-I 18 W/m 0,4 C 5,2 C 14,5 km/h (3 Bft) 96,88 %
27.02.2016 17:22 7,4 C 61 % 1006,2 hPa 0,0 l/m 9,4 km/h (2 Bft) NO 49 0 min 0,000 mm 0,0 UV-I 17 W/m 0,4 C 5,1 C 12,9 km/h (3 Bft) 95,83 %
27.02.2016 17:23 7,4 C 62 % 1006,3 hPa 0,0 l/m 8,9 km/h (2 Bft) NO 34 0 min 0,000 mm 0,0 UV-I 15 W/m 0,6 C 5,5 C 9,7 km/h (2 Bft) 100,00 %
27.02.2016 17:24 7,4 C 62 % 1006,2 hPa 0,0 l/m 8,4 km/h (2 Bft) NO 52 0 min 0,000 mm 0,0 UV-I 14 W/m 0,6 C 5,8 C 11,3 km/h (2 Bft) 100,00 %
27.02.2016 17:25 7,3 C 62 % 1006,2 hPa 0,0 l/m 7,2 km/h (2 Bft) NO 49 0 min 0,000 mm 0,0 UV-I 14 W/m 0,5 C 6,7 C 9,7 km/h (2 Bft) 100,00 %
27.02.2016 17:26 7,3 C 62 % 1006,2 hPa 0,0 l/m 8,6 km/h (2 Bft) NO 51 0 min 0,000 mm 0,0 UV-I 14 W/m 0,5 C 5,6 C 12,9 km/h (3 Bft) 100,00 %
27.02.2016 17:27 7,3 C 62 % 1006,2 hPa 0,0 l/m 7,2 km/h (2 Bft) O-NO 57 0 min 0,000 mm 0,0 UV-I 14 W/m 0,5 C 6,7 C 11,3 km/h (2 Bft) 100,00 %
27.02.2016 17:28 7,3 C 63 % 1006,2 hPa 0,0 l/m 8,4 km/h (2 Bft) NO 50 0 min 0,000 mm 0,0 UV-I 12 W/m 0,7 C 5,7 C 11,3 km/h (2 Bft) 96,15 %
27.02.2016 17:29 7,3 C 63 % 1006,2 hPa 0,0 l/m 8,3 km/h (2 Bft) NO 46 0 min 0,000 mm 0,0 UV-I 12 W/m 0,7 C 5,8 C 9,7 km/h (2 Bft) 100,00 %
27.02.2016 17:30 7,3 C 63 % 1006,1 hPa 0,0 l/m 8,0 km/h (2 Bft) NO 46 0 min 0,000 mm 0,0 UV-I 11 W/m 0,7 C 6,0 C 9,7 km/h (2 Bft) 100,00 %
27.02.2016 17:31 7,3 C 63 % 1006,1 hPa 0,0 l/m 9,6 km/h (2 Bft) O-NO 63 0 min 0,000 mm 0,0 UV-I 11 W/m 0,7 C 4,9 C 12,9 km/h (3 Bft) 100,00 %
27.02.2016 17:32 7,2 C 63 % 1006,1 hPa 0,0 l/m 9,3 km/h (2 Bft) NO 47 1 min 0,000 mm 0,0 UV-I 11 W/m 0,6 C 5,0 C 11,3 km/h (2 Bft) 100,00 %
27.02.2016 17:33 7,2 C 63 % 1006,1 hPa 0,0 l/m 9,0 km/h (2 Bft) O-NO 58 1 min 0,000 mm 0,0 UV-I 9 W/m 0,6 C 5,2 C 12,9 km/h (3 Bft) 100,00 %
27.02.2016 17:34 7,2 C 63 % 1006,1 hPa 0,0 l/m 9,2 km/h (2 Bft) O-NO 60 0 min 0,000 mm 0,0 UV-I 9 W/m 0,6 C 5,0 C 9,7 km/h (2 Bft) 100,00 %
27.02.2016 17:35 7,2 C 63 % 1006,1 hPa 0,0 l/m 9,1 km/h (2 Bft) O-NO 73 0 min 0,000 mm 0,0 UV-I 8 W/m 0,6 C 5,1 C 12,9 km/h (3 Bft) 100,00 %
27.02.2016 17:36 7,2 C 63 % 1006,0 hPa 0,0 l/m 11,3 km/h (2 Bft) NO 50 0 min 0,000 mm 0,0 UV-I 7 W/m 0,6 C 3,7 C 14,5 km/h (3 Bft) 95,65 %
27.02.2016 17:37 7,1 C 63 % 1006,1 hPa 0,0 l/m 9,0 km/h (2 Bft) O-NO 67 0 min 0,000 mm 0,0 UV-I 7 W/m 0,5 C 5,1 C 14,5 km/h (3 Bft) 95,83 %
27.02.2016 17:38 7,1 C 64 % 1006,1 hPa 0,0 l/m 10,6 km/h (2 Bft) O-NO 64 0 min 0,000 mm 0,0 UV-I 7 W/m 0,8 C 4,0 C 12,9 km/h (3 Bft) 100,00 %
27.02.2016 17:39 7,0 C 64 % 1006,1 hPa 0,0 l/m 8,7 km/h (2 Bft) O 82 0 min 0,000 mm 0,0 UV-I 7 W/m 0,7 C 5,2 C 12,9 km/h (3 Bft) 100,00 %
27.02.2016 17:40 7,0 C 64 % 1006,1 hPa 0,0 l/m 8,4 km/h (2 Bft) O-NO 61 0 min 0,000 mm 0,0 UV-I 5 W/m 0,7 C 5,4 C 11,3 km/h (2 Bft) 100,00 %
27.02.2016 17:41 6,9 C 64 % 1006,2 hPa 0,0 l/m 9,8 km/h (2 Bft) O-NO 59 0 min 0,000 mm 0,0 UV-I 5 W/m 0,6 C 4,3 C 14,5 km/h (3 Bft) 100,00 %
27.02.2016 17:42 6,9 C 64 % 1006,1 hPa 0,0 l/m 8,9 km/h (2 Bft) O-NO 67 0 min 0,000 mm 0,0 UV-I 5 W/m 0,6 C 4,9 C 14,5 km/h (3 Bft) 100,00 %
27.02.2016 17:43 6,8 C 65 % 1006,1 hPa 0,0 l/m 9,0 km/h (2 Bft) NO 38 0 min 0,000 mm 0,0 UV-I 5 W/m 0,7 C 4,7 C 12,9 km/h (3 Bft) 100,00 %
27.02.2016 17:44 6,8 C 65 % 1006,1 hPa 0,0 l/m 8,2 km/h (2 Bft) O-NO 78 0 min 0,000 mm 0,0 UV-I 0 W/m 0,7 C 5,3 C 11,3 km/h (2 Bft) 100,00 %
27.02.2016 17:45 6,7 C 65 % 1006,1 hPa 0,0 l/m 8,6 km/h (2 Bft) O-NO 69 0 min 0,000 mm 0,0 UV-I 0 W/m 0,6 C 4,9 C 11,3 km/h (2 Bft) 100,00 %
27.02.2016 17:46 6,7 C 65 % 1006,1 hPa 0,0 l/m 7,9 km/h (2 Bft) O-NO 70 0 min 0,000 mm 0,0 UV-I 0 W/m 0,6 C 5,5 C 12,9 km/h (3 Bft) 100,00 %
27.02.2016 17:47 6,6 C 65 % 1006,1 hPa 0,0 l/m 8,7 km/h (2 Bft) NO 52 0 min 0,000 mm 0,0 UV-I 0 W/m 0,5 C 4,8 C 11,3 km/h (2 Bft) 100,00 %
27.02.2016 17:48 6,6 C 66 % 1006,1 hPa 0,0 l/m 9,9 km/h (2 Bft) O-NO 58 0 min 0,000 mm 0,0 UV-I 0 W/m 0,7 C 3,9 C 12,9 km/h (3 Bft) 100,00 %
27.02.2016 17:49 6,6 C 66 % 1006,1 hPa 0,0 l/m 11,0 km/h (2 Bft) NO 52 0 min 0,000 mm 0,0 UV-I 0 W/m 0,7 C 3,2 C 14,5 km/h (3 Bft) 100,00 %
27.02.2016 17:50 6,5 C 65 % 1006,1 hPa 0,0 l/m 11,4 km/h (2 Bft) O-NO 67 0 min 0,000 mm 0,0 UV-I 0 W/m 0,4 C 2,8 C 14,5 km/h (3 Bft) 100,00 %
27.02.2016 17:51 6,5 C 65 % 1006,1 hPa 0,0 l/m 9,6 km/h (2 Bft) NO 38 0 min 0,000 mm 0,0 UV-I 0 W/m 0,4 C 4,0 C 14,5 km/h (3 Bft) 96,15 %
27.02.2016 17:52 6,5 C 65 % 1006,1 hPa 0,0 l/m 9,0 km/h (2 Bft) NO 53 0 min 0,000 mm 0,0 UV-I 0 W/m 0,4 C 4,4 C 11,3 km/h (2 Bft) 98,43 %
27.02.2016 17:53 6,5 C 66 % 1006,1 hPa 0,0 l/m 7,2 km/h (2 Bft) NO 56 0 min 0,000 mm 0,0 UV-I 0 W/m 0,6 C 5,8 C 9,7 km/h (2 Bft) 100,00 %
27.02.2016 17:54 6,4 C 66 % 1006,1 hPa 0,0 l/m 6,3 km/h (2 Bft) NO 43 0 min 0,000 mm 0,0 UV-I 0 W/m 0,5 C 6,4 C 8,0 km/h (2 Bft) 100,00 %
27.02.2016 17:55 6,3 C 68 % 1006,1 hPa 0,0 l/m 7,2 km/h (2 Bft) NO 34 0 min 0,000 mm 0,0 UV-I 0 W/m 0,8 C 5,6 C 12,9 km/h (3 Bft) 100,00 %
27.02.2016 17:56 6,2 C 67 % 1006,1 hPa 0,0 l/m 6,8 km/h (2 Bft) O-NO 57 0 min 0,000 mm 0,0 UV-I 0 W/m 0,5 C 5,9 C 9,7 km/h (2 Bft) 100,00 %
27.02.2016 17:57 6,1 C 68 % 1006,1 hPa 0,0 l/m 6,9 km/h (2 Bft) NO 44 0 min 0,000 mm 0,0 UV-I 0 W/m 0,6 C 5,7 C 8,0 km/h (2 Bft) 100,00 %
27.02.2016 17:58 6,1 C 68 % 1006,1 hPa 0,0 l/m 7,1 km/h (2 Bft) NO 50 0 min 0,000 mm 0,0 UV-I 0 W/m 0,6 C 5,5 C 9,7 km/h (2 Bft) 100,00 %
27.02.2016 17:59 6,0 C 67 % 1006,1 hPa 0,0 l/m 6,7 km/h (2 Bft) O-NO 73 0 min 0,000 mm 0,0 UV-I 0 W/m 0,3 C 5,8 C 11,3 km/h (2 Bft) 100,00 %
27.02.2016 18:00 6,0 C 67 % 1006,2 hPa 0,0 l/m 7,7 km/h (2 Bft) O-NO 65 0 min 0,000 mm 0,0 UV-I 0 W/m 0,3 C 4,9 C 11,3 km/h (2 Bft) 100,00 %
27.02.2016 18:02 6,1 C 67 % 1006,2 hPa 0,0 l/m 8,2 km/h (2 Bft) NO 42 0 min 0,051 mm 0,0 UV-I 0 W/m 0,4 C 4,6 C 12,9 km/h (3 Bft) 100,00 %
27.02.2016 18:03 6,0 C 67 % 1006,2 hPa 0,0 l/m 8,0 km/h (2 Bft) NO 54 0 min 0,000 mm 0,0 UV-I 0 W/m 0,3 C 4,7 C 12,9 km/h (3 Bft) 100,00 %
27.02.2016 18:04 6,0 C 67 % 1006,2 hPa 0,0 l/m 8,4 km/h (2 Bft) NO 55 0 min 0,000 mm 0,0 UV-I 0 W/m 0,3 C 4,3 C 12,9 km/h (3 Bft) 100,00 %
27.02.2016 18:05 6,1 C 67 % 1006,2 hPa 0,0 l/m 9,2 km/h (2 Bft) NO 43 0 min 0,000 mm 0,0 UV-I 0 W/m 0,4 C 3,8 C 14,5 km/h (3 Bft) 100,00 %
27.02.2016 18:06 6,0 C 67 % 1006,3 hPa 0,0 l/m 8,4 km/h (2 Bft) NO 56 0 min 0,000 mm 0,0 UV-I 0 W/m 0,3 C 4,3 C 11,3 km/h (2 Bft) 100,00 %
27.02.2016 18:07 6,1 C 67 % 1006,3 hPa 0,0 l/m 8,2 km/h (2 Bft) O-NO 61 0 min 0,000 mm 0,0 UV-I 0 W/m 0,4 C 4,6 C 12,9 km/h (3 Bft) 100,00 %
27.02.2016 18:08 6,1 C 67 % 1006,3 hPa 0,0 l/m 6,5 km/h (2 Bft) NO 51 0 min 0,000 mm 0,0 UV-I 0 W/m 0,4 C 6,0 C 9,7 km/h (2 Bft) 100,00 %
27.02.2016 18:09 6,0 C 67 % 1006,3 hPa 0,0 l/m 7,6 km/h (2 Bft) NO 56 0 min 0,000 mm 0,0 UV-I 0 W/m 0,3 C 5,0 C 9,7 km/h (2 Bft) 100,00 %
27.02.2016 18:10 5,9 C 68 % 1006,3 hPa 0,0 l/m 6,1 km/h (2 Bft) O-NO 61 0 min 0,000 mm 0,0 UV-I 0 W/m 0,5 C 5,9 C 9,7 km/h (2 Bft) 100,00 %
27.02.2016 18:11 5,8 C 68 % 1006,3 hPa 0,0 l/m 5,9 km/h (2 Bft) O-NO 77 0 min 0,000 mm 0,0 UV-I 0 W/m 0,4 C 5,8 C 8,0 km/h (2 Bft) 100,00 %
27.02.2016 18:12 5,8 C 68 % 1006,4 hPa 0,0 l/m 7,6 km/h (2 Bft) O-NO 78 0 min 0,000 mm 0,0 UV-I 0 W/m 0,4 C 4,8 C 9,7 km/h (2 Bft) 100,00 %
27.02.2016 18:13 5,7 C 68 % 1006,3 hPa 0,0 l/m 6,0 km/h (2 Bft) NO 44 0 min 0,000 mm 0,0 UV-I 0 W/m 0,3 C 5,7 C 8,0 km/h (2 Bft) 100,00 %
27.02.2016 18:14 5,7 C 68 % 1006,4 hPa 0,0 l/m 6,0 km/h (2 Bft) NO 47 0 min 0,000 mm 0,0 UV-I 0 W/m 0,3 C 5,7 C 8,0 km/h (2 Bft) 100,00 %
27.02.2016 18:15 5,7 C 68 % 1006,3 hPa 0,0 l/m 7,4 km/h (2 Bft) NO 48 0 min 0,000 mm 0,0 UV-I 0 W/m 0,3 C 4,8 C 9,7 km/h (2 Bft) 100,00 %
27.02.2016 18:16 5,7 C 68 % 1006,3 hPa 0,0 l/m 6,8 km/h (2 Bft) NO 52 0 min 0,000 mm 0,0 UV-I 0 W/m 0,3 C 5,4 C 9,7 km/h (2 Bft) 100,00 %
27.02.2016 18:17 5,7 C 68 % 1006,3 hPa 0,0 l/m 6,3 km/h (2 Bft) O-NO 63 0 min 0,000 mm 0,0 UV-I 0 W/m 0,3 C 5,7 C 8,0 km/h (2 Bft) 100,00 %
27.02.2016 18:18 5,7 C 68 % 1006,3 hPa 0,0 l/m 6,1 km/h (2 Bft) O-NO 62 0 min 0,000 mm 0,0 UV-I 0 W/m 0,3 C 5,7 C 8,0 km/h (2 Bft) 100,00 %
27.02.2016 18:19 5,7 C 68 % 1006,3 hPa 0,0 l/m 4,5 km/h (1 Bft) NO 40 0 min 0,000 mm 0,0 UV-I 0 W/m 0,3 C 5,7 C 6,4 km/h (2 Bft) 100,00 %
27.02.2016 18:20 5,7 C 68 % 1006,4 hPa 0,0 l/m 5,6 km/h (1 Bft) O-NO 58 0 min 0,000 mm 0,0 UV-I 0 W/m 0,3 C 5,7 C 8,0 km/h (2 Bft) 100,00 %
27.02.2016 18:21 5,7 C 68 % 1006,4 hPa 0,0 l/m 5,1 km/h (1 Bft) O-NO 67 0 min 0,000 mm 0,0 UV-I 0 W/m 0,3 C 5,7 C 8,0 km/h (2 Bft) 91,67 %
27.02.2016 18:22 5,7 C 68 % 1006,4 hPa 0,0 l/m 6,6 km/h (2 Bft) O-NO 59 0 min 0,000 mm 0,0 UV-I 0 W/m 0,3 C 5,6 C 9,7 km/h (2 Bft) 96,67 %
27.02.2016 18:23 5,7 C 68 % 1006,4 hPa 0,0 l/m 6,2 km/h (2 Bft) O-NO 57 0 min 0,000 mm 0,0 UV-I 0 W/m 0,3 C 5,7 C 8,0 km/h (2 Bft) 100,00 %
27.02.2016 18:24 5,7 C 68 % 1006,4 hPa 0,0 l/m 7,2 km/h (2 Bft) NO 51 0 min 0,000 mm 0,0 UV-I 0 W/m 0,3 C 5,0 C 11,3 km/h (2 Bft) 100,00 %
27.02.2016 18:25 5,7 C 67 % 1006,4 hPa 0,0 l/m 11,2 km/h (2 Bft) O-NO 62 0 min 0,000 mm 0,0 UV-I 0 W/m 0,1 C 2,1 C 16,1 km/h (3 Bft) 100,00 %
27.02.2016 18:26 5,7 C 67 % 1006,4 hPa 0,0 l/m 8,9 km/h (2 Bft) O-NO 78 0 min 0,000 mm 0,0 UV-I 0 W/m 0,1 C 3,6 C 14,5 km/h (3 Bft) 100,00 %
27.02.2016 18:27 5,8 C 67 % 1006,4 hPa 0,0 l/m 10,8 km/h (2 Bft) O-NO 78 0 min 0,000 mm 0,0 UV-I 0 W/m 0,2 C 2,4 C 14,5 km/h (3 Bft) 96,55 %
27.02.2016 18:28 5,8 C 67 % 1006,4 hPa 0,0 l/m 13,2 km/h (3 Bft) NO 48 0 min 0,000 mm 0,0 UV-I 0 W/m 0,2 C 1,0 C 16,1 km/h (3 Bft) 100,00 %
27.02.2016 18:29 5,8 C 67 % 1006,4 hPa 0,0 l/m 11,9 km/h (2 Bft) O-NO 62 0 min 0,000 mm 0,0 UV-I 0 W/m 0,2 C 1,7 C 16,1 km/h (3 Bft) 100,00 %
27.02.2016 18:30 5,8 C 67 % 1006,4 hPa 0,0 l/m 12,1 km/h (2 Bft) NO 55 0 min 0,000 mm 0,0 UV-I 0 W/m 0,2 C 1,6 C 16,1 km/h (3 Bft) 95,83 %
27.02.2016 18:31 5,8 C 67 % 1006,4 hPa 0,0 l/m 9,7 km/h (2 Bft) NO 46 0 min 0,000 mm 0,0 UV-I 0 W/m 0,2 C 3,2 C 12,9 km/h (3 Bft) 100,00 %
27.02.2016 18:32 5,8 C 67 % 1006,4 hPa 0,0 l/m 12,3 km/h (3 Bft) O-NO 61 0 min 0,000 mm 0,0 UV-I 0 W/m 0,2 C 1,5 C 16,1 km/h (3 Bft) 100,00 %
27.02.2016 18:33 5,8 C 67 % 1006,4 hPa 0,0 l/m 13,1 km/h (3 Bft) O-NO 66 0 min 0,000 mm 0,0 UV-I 0 W/m 0,2 C 1,0 C 16,1 km/h (3 Bft) 98,49 %
27.02.2016 18:34 5,8 C 66 % 1006,4 hPa 0,0 l/m 13,2 km/h (3 Bft) O 82 0 min 0,000 mm 0,0 UV-I 0 W/m -0,0 C 1,0 C 17,7 km/h (3 Bft) 100,00 %
27.02.2016 18:35 5,9 C 66 % 1006,5 hPa 0,0 l/m 12,8 km/h (3 Bft) O 84 0 min 0,000 mm 0,0 UV-I 0 W/m 0,0 C 1,3 C 16,1 km/h (3 Bft) 100,00 %
27.02.2016 18:36 5,9 C 66 % 1006,5 hPa 0,0 l/m 14,1 km/h (3 Bft) O-NO 61 0 min 0,000 mm 0,0 UV-I 0 W/m 0,0 C 0,6 C 17,7 km/h (3 Bft) 95,83 %
27.02.2016 18:37 5,9 C 66 % 1006,4 hPa 0,0 l/m 13,1 km/h (3 Bft) O-NO 78 0 min 0,000 mm 0,0 UV-I 0 W/m 0,0 C 1,2 C 17,7 km/h (3 Bft) 100,00 %
27.02.2016 18:38 5,9 C 66 % 1006,5 hPa 0,0 l/m 15,7 km/h (3 Bft) O-NO 71 0 min 0,000 mm 0,0 UV-I 0 W/m 0,0 C -0,2 C 22,5 km/h (4 Bft) 93,33 %
27.02.2016 18:39 5,9 C 65 % 1006,5 hPa 0,0 l/m 16,2 km/h (3 Bft) O-NO 77 0 min 0,000 mm 0,0 UV-I 0 W/m -0,2 C -0,4 C 20,9 km/h (4 Bft) 96,30 %
27.02.2016 18:40 6,0 C 65 % 1006,5 hPa 0,0 l/m 19,1 km/h (3 Bft) O-NO 78 0 min 0,000 mm 0,0 UV-I 0 W/m -0,1 C -1,5 C 24,1 km/h (4 Bft) 94,12 %
27.02.2016 18:41 6,0 C 65 % 1006,6 hPa 0,0 l/m 19,0 km/h (3 Bft) O-NO 68 0 min 0,000 mm 0,0 UV-I 0 W/m -0,1 C -1,5 C 22,5 km/h (4 Bft) 96,30 %
27.02.2016 18:42 6,1 C 65 % 1006,5 hPa 0,0 l/m 16,5 km/h (3 Bft) O 87 0 min 0,000 mm 0,0 UV-I 0 W/m 0,0 C -0,3 C 20,9 km/h (4 Bft) 96,88 %
27.02.2016 18:43 6,1 C 64 % 1006,6 hPa 0,0 l/m 13,6 km/h (3 Bft) O-NO 66 0 min 0,000 mm 0,0 UV-I 0 W/m -0,2 C 1,1 C 22,5 km/h (4 Bft) 95,65 %
27.02.2016 18:44 6,1 C 64 % 1006,6 hPa 0,0 l/m 14,2 km/h (3 Bft) O 92 0 min 0,000 mm 0,0 UV-I 0 W/m -0,2 C 0,8 C 20,9 km/h (4 Bft) 95,83 %
27.02.2016 18:45 6,1 C 65 % 1006,6 hPa 0,0 l/m 15,9 km/h (3 Bft) O-NO 67 0 min 0,000 mm 0,0 UV-I 0 W/m 0,0 C -0,0 C 22,5 km/h (4 Bft) 100,00 %
27.02.2016 18:46 6,1 C 64 % 1006,6 hPa 0,0 l/m 15,9 km/h (3 Bft) NO 55 0 min 0,000 mm 0,0 UV-I 0 W/m -0,2 C -0,0 C 22,5 km/h (4 Bft) 96,15 %
27.02.2016 18:47 6,2 C 64 % 1006,7 hPa 0,0 l/m 15,9 km/h (3 Bft) O-NO 59 0 min 0,000 mm 0,0 UV-I 0 W/m -0,1 C 0,1 C 20,9 km/h (4 Bft) 96,67 %
27.02.2016 18:48 6,2 C 64 % 1006,7 hPa 0,0 l/m 13,5 km/h (3 Bft) O 82 0 min 0,000 mm 0,0 UV-I 0 W/m -0,1 C 1,3 C 16,1 km/h (3 Bft) 100,00 %
27.02.2016 18:49 6,1 C 64 % 1006,7 hPa 0,0 l/m 12,5 km/h (3 Bft) O-NO 71 0 min 0,000 mm 0,0 UV-I 0 W/m -0,2 C 1,7 C 17,7 km/h (3 Bft) 93,33 %
27.02.2016 18:50 6,1 C 64 % 1006,7 hPa 0,0 l/m 15,7 km/h (3 Bft) O 84 0 min 0,000 mm 0,0 UV-I 0 W/m -0,2 C 0,1 C 19,3 km/h (3 Bft) 100,00 %
27.02.2016 18:51 6,1 C 64 % 1006,6 hPa 0,0 l/m 14,2 km/h (3 Bft) O-NO 59 0 min 0,000 mm 0,0 UV-I 0 W/m -0,2 C 0,8 C 19,3 km/h (3 Bft) 96,30 %
27.02.2016 18:52 6,1 C 64 % 1006,6 hPa 0,0 l/m 13,5 km/h (3 Bft) O-NO 65 0 min 0,000 mm 0,0 UV-I 0 W/m -0,2 C 1,2 C 19,3 km/h (3 Bft) 100,00 %
27.02.2016 18:53 6,1 C 64 % 1006,6 hPa 0,0 l/m 13,7 km/h (3 Bft) O-NO 59 0 min 0,000 mm 0,0 UV-I 0 W/m -0,2 C 1,1 C 17,7 km/h (3 Bft) 96,55 %
27.02.2016 18:54 6,1 C 64 % 1006,6 hPa 0,0 l/m 12,4 km/h (3 Bft) O 86 0 min 0,000 mm 0,0 UV-I 0 W/m -0,2 C 1,8 C 16,1 km/h (3 Bft) 96,15 %
27.02.2016 18:55 6,0 C 64 % 1006,6 hPa 0,0 l/m 11,9 km/h (2 Bft) O 82 0 min 0,000 mm 0,0 UV-I 0 W/m -0,3 C 2,0 C 19,3 km/h (3 Bft) 100,00 %
27.02.2016 18:56 5,9 C 64 % 1006,6 hPa 0,0 l/m 13,6 km/h (3 Bft) O 83 0 min 0,000 mm 0,0 UV-I 0 W/m -0,4 C 0,9 C 17,7 km/h (3 Bft) 92,86 %
27.02.2016 18:57 5,9 C 64 % 1006,6 hPa 0,0 l/m 11,8 km/h (2 Bft) O 80 0 min 0,000 mm 0,0 UV-I 0 W/m -0,4 C 1,9 C 17,7 km/h (3 Bft) 100,00 %
27.02.2016 18:58 5,9 C 64 % 1006,6 hPa 0,0 l/m 11,6 km/h (2 Bft) O-NO 69 0 min 0,000 mm 0,0 UV-I 0 W/m -0,4 C 2,0 C 16,1 km/h (3 Bft) 95,65 %
27.02.2016 18:59 5,9 C 65 % 1006,6 hPa 0,0 l/m 9,3 km/h (2 Bft) O 85 0 min 0,000 mm 0,0 UV-I 0 W/m -0,2 C 3,6 C 16,1 km/h (3 Bft) 92,59 %
27.02.2016 19:00 5,9 C 64 % 1006,6 hPa 0,0 l/m 14,1 km/h (3 Bft) O-NO 69 0 min 0,000 mm 0,0 UV-I 0 W/m -0,4 C 0,6 C 19,3 km/h (3 Bft) 100,00 %
27.02.2016 19:02 5,9 C 65 % 1006,6 hPa 0,0 l/m 10,3 km/h (2 Bft) NO 46 0 min 0,025 mm 0,0 UV-I 0 W/m -0,2 C 2,9 C 16,1 km/h (3 Bft) 98,21 %
27.02.2016 19:03 5,9 C 65 % 1006,6 hPa 0,0 l/m 6,3 km/h (2 Bft) NO 55 0 min 0,000 mm 0,0 UV-I 0 W/m -0,2 C 5,9 C 9,7 km/h (2 Bft) 92,86 %
27.02.2016 19:04 5,8 C 66 % 1006,6 hPa 0,0 l/m 8,4 km/h (2 Bft) NO 44 0 min 0,000 mm 0,0 UV-I 0 W/m -0,0 C 4,1 C 14,5 km/h (3 Bft) 100,00 %
27.02.2016 19:05 5,7 C 66 % 1006,6 hPa 0,0 l/m 10,1 km/h (2 Bft) NO 44 0 min 0,000 mm 0,0 UV-I 0 W/m -0,1 C 2,8 C 14,5 km/h (3 Bft) 91,30 %
27.02.2016 19:06 5,6 C 66 % 1006,6 hPa 0,0 l/m 7,6 km/h (2 Bft) N 5 0 min 0,000 mm 0,0 UV-I 0 W/m -0,2 C 4,6 C 9,7 km/h (2 Bft) 100,00 %
27.02.2016 19:07 5,5 C 67 % 1006,6 hPa 0,0 l/m 10,7 km/h (2 Bft) NO 55 0 min 0,000 mm 0,0 UV-I 0 W/m -0,1 C 2,2 C 16,1 km/h (3 Bft) 96,15 %
27.02.2016 19:08 5,4 C 67 % 1006,6 hPa 0,0 l/m 6,9 km/h (2 Bft) NO 54 0 min 0,000 mm 0,0 UV-I 0 W/m -0,2 C 5,0 C 9,7 km/h (2 Bft) 95,83 %
27.02.2016 19:09 5,4 C 67 % 1006,6 hPa 0,0 l/m 8,6 km/h (2 Bft) NO 36 0 min 0,000 mm 0,0 UV-I 0 W/m -0,2 C 3,5 C 11,3 km/h (2 Bft) 100,00 %
27.02.2016 19:10 5,3 C 67 % 1006,6 hPa 0,0 l/m 8,2 km/h (2 Bft) NO 39 0 min 0,000 mm 0,0 UV-I 0 W/m -0,3 C 3,8 C 11,3 km/h (2 Bft) 96,67 %
27.02.2016 19:11 5,3 C 68 % 1006,6 hPa 0,0 l/m 6,9 km/h (2 Bft) NO 52 0 min 0,000 mm 0,0 UV-I 0 W/m -0,1 C 4,9 C 8,0 km/h (2 Bft) 100,00 %
27.02.2016 19:12 5,2 C 68 % 1006,6 hPa 0,0 l/m 7,6 km/h (2 Bft) NO 41 0 min 0,000 mm 0,0 UV-I 0 W/m -0,2 C 4,1 C 9,7 km/h (2 Bft) 96,30 %
27.02.2016 19:13 5,1 C 68 % 1006,6 hPa 0,0 l/m 9,6 km/h (2 Bft) N-NO 25 0 min 0,000 mm 0,0 UV-I 0 W/m -0,3 C 2,5 C 14,5 km/h (3 Bft) 100,00 %
27.02.2016 19:14 5,1 C 68 % 1006,6 hPa 0,0 l/m 9,8 km/h (2 Bft) NO 44 0 min 0,000 mm 0,0 UV-I 0 W/m -0,3 C 2,3 C 14,5 km/h (3 Bft) 100,00 %
27.02.2016 19:15 4,9 C 69 % 1006,6 hPa 0,0 l/m 8,2 km/h (2 Bft) NO 39 0 min 0,000 mm 0,0 UV-I 0 W/m -0,3 C 3,3 C 14,5 km/h (3 Bft) 98,43 %
27.02.2016 19:16 4,9 C 69 % 1006,5 hPa 0,0 l/m 9,0 km/h (2 Bft) NO 44 0 min 0,000 mm 0,0 UV-I 0 W/m -0,3 C 2,7 C 14,5 km/h (3 Bft) 100,00 %
27.02.2016 19:17 4,8 C 69 % 1006,5 hPa 0,0 l/m 6,1 km/h (2 Bft) NO 46 0 min 0,000 mm 0,0 UV-I 0 W/m -0,4 C 4,8 C 8,0 km/h (2 Bft) 100,00 %
27.02.2016 19:18 4,8 C 69 % 1006,5 hPa 0,0 l/m 7,2 km/h (2 Bft) O-NO 61 0 min 0,000 mm 0,0 UV-I 0 W/m -0,4 C 4,1 C 8,0 km/h (2 Bft) 95,65 %
27.02.2016 19:19 4,9 C 69 % 1006,5 hPa 0,0 l/m 9,0 km/h (2 Bft) O-NO 61 0 min 0,000 mm 0,0 UV-I 0 W/m -0,3 C 2,7 C 11,3 km/h (2 Bft) 100,00 %
27.02.2016 19:20 4,8 C 69 % 1006,5 hPa 0,0 l/m 10,6 km/h (2 Bft) O-NO 64 0 min 0,000 mm 0,0 UV-I 0 W/m -0,4 C 1,4 C 14,5 km/h (3 Bft) 100,00 %
27.02.2016 19:21 4,9 C 69 % 1006,5 hPa 0,0 l/m 9,6 km/h (2 Bft) O-NO 63 0 min 0,000 mm 0,0 UV-I 0 W/m -0,3 C 2,2 C 11,3 km/h (2 Bft) 91,67 %
27.02.2016 19:22 4,9 C 69 % 1006,5 hPa 0,0 l/m 7,9 km/h (2 Bft) O-NO 66 0 min 0,000 mm 0,0 UV-I 0 W/m -0,3 C 3,6 C 12,9 km/h (3 Bft) 100,00 %
27.02.2016 19:23 4,9 C 69 % 1006,5 hPa 0,0 l/m 7,4 km/h (2 Bft) O-NO 63 0 min 0,000 mm 0,0 UV-I 0 W/m -0,3 C 4,0 C 9,7 km/h (2 Bft) 100,00 %
27.02.2016 19:24 4,9 C 69 % 1006,5 hPa 0,0 l/m 6,1 km/h (2 Bft) NO 52 0 min 0,000 mm 0,0 UV-I 0 W/m -0,3 C 4,9 C 8,0 km/h (2 Bft) 100,00 %
27.02.2016 19:25 4,9 C 69 % 1006,6 hPa 0,0 l/m 7,4 km/h (2 Bft) O-NO 59 0 min 0,000 mm 0,0 UV-I 0 W/m -0,3 C 4,0 C 8,0 km/h (2 Bft) 100,00 %
27.02.2016 19:26 4,8 C 69 % 1006,6 hPa 0,0 l/m 6,6 km/h (2 Bft) O-NO 59 0 min 0,000 mm 0,0 UV-I 0 W/m -0,4 C 4,6 C 9,7 km/h (2 Bft) 98,44 %
27.02.2016 19:27 4,8 C 69 % 1006,5 hPa 0,0 l/m 5,2 km/h (1 Bft) NO 54 0 min 0,000 mm 0,0 UV-I 0 W/m -0,4 C 4,8 C 8,0 km/h (2 Bft) 97,73 %
27.02.2016 19:28 4,8 C 70 % 1006,6 hPa 0,0 l/m 4,5 km/h (1 Bft) NO 45 0 min 0,000 mm 0,0 UV-I 0 W/m -0,2 C 4,8 C 6,4 km/h (2 Bft) 95,65 %
27.02.2016 19:29 4,7 C 70 % 1006,6 hPa 0,0 l/m 6,5 km/h (2 Bft) NO 55 0 min 0,000 mm 0,0 UV-I 0 W/m -0,3 C 4,6 C 8,0 km/h (2 Bft) 100,00 %
27.02.2016 19:30 4,6 C 70 % 1006,6 hPa 0,0 l/m 6,8 km/h (2 Bft) NO 38 0 min 0,000 mm 0,0 UV-I 0 W/m -0,4 C 4,3 C 9,7 km/h (2 Bft) 100,00 %
27.02.2016 19:31 4,5 C 70 % 1006,6 hPa 0,0 l/m 6,8 km/h (2 Bft) NO 48 0 min 0,000 mm 0,0 UV-I 0 W/m -0,5 C 4,2 C 8,0 km/h (2 Bft) 100,00 %
27.02.2016 19:32 4,4 C 71 % 1006,6 hPa 0,0 l/m 5,5 km/h (1 Bft) NO 47 0 min 0,000 mm 0,0 UV-I 0 W/m -0,4 C 4,4 C 6,4 km/h (2 Bft) 100,00 %
27.02.2016 19:33 4,3 C 71 % 1006,6 hPa 0,0 l/m 5,6 km/h (1 Bft) NO 40 0 min 0,000 mm 0,0 UV-I 0 W/m -0,5 C 4,3 C 6,4 km/h (2 Bft) 100,00 %
27.02.2016 19:34 4,2 C 71 % 1006,6 hPa 0,0 l/m 4,8 km/h (1 Bft) NO 55 0 min 0,000 mm 0,0 UV-I 0 W/m -0,6 C 4,2 C 6,4 km/h (2 Bft) 95,65 %
27.02.2016 19:35 4,2 C 71 % 1006,7 hPa 0,0 l/m 4,2 km/h (1 Bft) NO 54 0 min 0,000 mm 0,0 UV-I 0 W/m -0,6 C 4,2 C 4,8 km/h (1 Bft) 100,00 %
27.02.2016 19:36 4,2 C 71 % 1006,7 hPa 0,0 l/m 3,7 km/h (1 Bft) NO 54 0 min 0,000 mm 0,0 UV-I 0 W/m -0,6 C 4,2 C 4,8 km/h (1 Bft) 100,00 %
27.02.2016 19:37 4,2 C 71 % 1006,7 hPa 0,0 l/m 5,0 km/h (1 Bft) O-NO 66 0 min 0,000 mm 0,0 UV-I 0 W/m -0,6 C 4,2 C 6,4 km/h (2 Bft) 100,00 %
27.02.2016 19:38 4,2 C 71 % 1006,7 hPa 0,0 l/m 4,6 km/h (1 Bft) O-NO 62 0 min 0,000 mm 0,0 UV-I 0 W/m -0,6 C 4,2 C 6,4 km/h (2 Bft) 100,00 %
27.02.2016 19:39 4,3 C 71 % 1006,7 hPa 0,0 l/m 6,1 km/h (2 Bft) O-NO 64 0 min 0,000 mm 0,0 UV-I 0 W/m -0,5 C 4,3 C 8,0 km/h (2 Bft) 86,67 %
27.02.2016 19:40 4,3 C 71 % 1006,7 hPa 0,0 l/m 5,0 km/h (1 Bft) O-NO 59 0 min 0,000 mm 0,0 UV-I 0 W/m -0,5 C 4,3 C 6,4 km/h (2 Bft) 100,00 %
27.02.2016 19:41 4,3 C 71 % 1006,7 hPa 0,0 l/m 4,8 km/h (1 Bft) NO 48 0 min 0,000 mm 0,0 UV-I 0 W/m -0,5 C 4,3 C 6,4 km/h (2 Bft) 95,65 %
27.02.2016 19:42 4,3 C 71 % 1006,7 hPa 0,0 l/m 6,0 km/h (2 Bft) NO 44 0 min 0,000 mm 0,0 UV-I 0 W/m -0,5 C 4,3 C 9,7 km/h (2 Bft) 95,83 %
27.02.2016 19:43 4,3 C 71 % 1006,7 hPa 0,0 l/m 5,1 km/h (1 Bft) NO 44 0 min 0,000 mm 0,0 UV-I 0 W/m -0,5 C 4,3 C 6,4 km/h (2 Bft) 96,15 %
27.02.2016 19:44 4,3 C 71 % 1006,7 hPa 0,0 l/m 4,5 km/h (1 Bft) NO 47 0 min 0,000 mm 0,0 UV-I 0 W/m -0,5 C 4,3 C 6,4 km/h (2 Bft) 95,83 %
27.02.2016 19:45 4,3 C 71 % 1006,7 hPa 0,0 l/m 4,6 km/h (1 Bft) NO 51 0 min 0,000 mm 0,0 UV-I 0 W/m -0,5 C 4,3 C 6,4 km/h (2 Bft) 95,65 %
27.02.2016 19:46 4,3 C 71 % 1006,8 hPa 0,0 l/m 5,0 km/h (1 Bft) NO 51 0 min 0,000 mm 0,0 UV-I 0 W/m -0,5 C 4,3 C 6,4 km/h (2 Bft) 100,00 %
27.02.2016 19:47 4,3 C 71 % 1006,7 hPa 0,0 l/m 5,3 km/h (1 Bft) O-NO 64 0 min 0,000 mm 0,0 UV-I 0 W/m -0,5 C 4,3 C 6,4 km/h (2 Bft) 100,00 %
27.02.2016 19:48 4,3 C 71 % 1006,8 hPa 0,0 l/m 5,2 km/h (1 Bft) NO 40 0 min 0,000 mm 0,0 UV-I 0 W/m -0,5 C 4,3 C 6,4 km/h (2 Bft) 100,00 %
27.02.2016 19:49 4,3 C 71 % 1006,8 hPa 0,0 l/m 6,8 km/h (2 Bft) NO 44 0 min 0,000 mm 0,0 UV-I 0 W/m -0,5 C 3,9 C 8,0 km/h (2 Bft) 100,00 %
27.02.2016 19:50 4,2 C 71 % 1006,8 hPa 0,0 l/m 6,1 km/h (2 Bft) NO 40 0 min 0,000 mm 0,0 UV-I 0 W/m -0,6 C 4,2 C 8,0 km/h (2 Bft) 100,00 %
27.02.2016 19:51 4,1 C 72 % 1006,7 hPa 0,0 l/m 6,8 km/h (2 Bft) NO 34 0 min 0,000 mm 0,0 UV-I 0 W/m -0,5 C 3,7 C 9,7 km/h (2 Bft) 98,44 %
27.02.2016 19:52 4,0 C 72 % 1006,7 hPa 0,0 l/m 5,5 km/h (1 Bft) NO 39 0 min 0,000 mm 0,0 UV-I 0 W/m -0,6 C 4,0 C 8,0 km/h (2 Bft) 97,73 %
27.02.2016 19:53 3,9 C 72 % 1006,7 hPa 0,0 l/m 6,5 km/h (2 Bft) NO 36 0 min 0,000 mm 0,0 UV-I 0 W/m -0,7 C 3,8 C 8,0 km/h (2 Bft) 100,00 %
27.02.2016 19:54 3,8 C 72 % 1006,7 hPa 0,0 l/m 6,6 km/h (2 Bft) NO 40 0 min 0,000 mm 0,0 UV-I 0 W/m -0,8 C 3,6 C 8,0 km/h (2 Bft) 100,00 %
27.02.2016 19:55 3,8 C 73 % 1006,7 hPa 0,0 l/m 6,4 km/h (2 Bft) NO 34 0 min 0,000 mm 0,0 UV-I 0 W/m -0,6 C 3,8 C 9,7 km/h (2 Bft) 98,44 %
27.02.2016 19:56 3,8 C 73 % 1006,7 hPa 0,0 l/m 5,1 km/h (1 Bft) NO 41 0 min 0,000 mm 0,0 UV-I 0 W/m -0,6 C 3,8 C 8,0 km/h (2 Bft) 100,00 %
27.02.2016 19:57 3,7 C 73 % 1006,7 hPa 0,0 l/m 6,0 km/h (2 Bft) NO 39 0 min 0,000 mm 0,0 UV-I 0 W/m -0,7 C 3,7 C 8,0 km/h (2 Bft) 100,00 %
27.02.2016 19:58 3,7 C 73 % 1006,7 hPa 0,0 l/m 7,2 km/h (2 Bft) N-NO 28 0 min 0,000 mm 0,0 UV-I 0 W/m -0,7 C 3,0 C 9,7 km/h (2 Bft) 100,00 %
27.02.2016 19:59 3,7 C 73 % 1006,8 hPa 0,0 l/m 6,4 km/h (2 Bft) NO 43 0 min 0,000 mm 0,0 UV-I 0 W/m -0,7 C 3,7 C 8,0 km/h (2 Bft) 100,00 %
27.02.2016 20:00 3,7 C 73 % 1006,8 hPa 0,0 l/m 5,4 km/h (1 Bft) NO 44 0 min 0,000 mm 0,0 UV-I 0 W/m -0,7 C 3,7 C 6,4 km/h (2 Bft) 100,00 %
27.02.2016 20:01 3,7 C 73 % 1006,7 hPa 0,0 l/m 5,0 km/h (1 Bft) NO 38 0 min 0,025 mm 0,0 UV-I 0 W/m -0,7 C 3,7 C 6,4 km/h (2 Bft) 100,00 %
27.02.2016 20:02 3,7 C 73 % 1006,7 hPa 0,0 l/m 6,1 km/h (2 Bft) NO 36 0 min 0,000 mm 0,0 UV-I 0 W/m -0,7 C 3,7 C 8,0 km/h (2 Bft) 91,30 %
27.02.2016 20:03 3,7 C 73 % 1006,7 hPa 0,0 l/m 6,0 km/h (2 Bft) NO 45 0 min 0,000 mm 0,0 UV-I 0 W/m -0,7 C 3,7 C 8,0 km/h (2 Bft) 100,00 %
27.02.2016 20:04 3,7 C 74 % 1006,7 hPa 0,0 l/m 6,4 km/h (2 Bft) N-NO 30 0 min 0,000 mm 0,0 UV-I 0 W/m -0,5 C 3,7 C 9,7 km/h (2 Bft) 92,31 %
27.02.2016 20:05 3,7 C 74 % 1006,7 hPa 0,0 l/m 7,1 km/h (2 Bft) NO 36 0 min 0,000 mm 0,0 UV-I 0 W/m -0,5 C 3,1 C 8,0 km/h (2 Bft) 96,30 %
27.02.2016 20:06 3,7 C 74 % 1006,7 hPa 0,0 l/m 6,4 km/h (2 Bft) NO 34 0 min 0,000 mm 0,0 UV-I 0 W/m -0,5 C 3,7 C 8,0 km/h (2 Bft) 96,15 %
27.02.2016 20:07 3,6 C 74 % 1006,7 hPa 0,0 l/m 6,5 km/h (2 Bft) NO 43 0 min 0,000 mm 0,0 UV-I 0 W/m -0,6 C 3,5 C 8,0 km/h (2 Bft) 100,00 %
27.02.2016 20:08 3,6 C 74 % 1006,7 hPa 0,0 l/m 6,9 km/h (2 Bft) N-NO 30 0 min 0,000 mm 0,0 UV-I 0 W/m -0,6 C 3,1 C 12,9 km/h (3 Bft) 100,00 %
27.02.2016 20:09 3,6 C 74 % 1006,7 hPa 0,0 l/m 7,6 km/h (2 Bft) NO 41 0 min 0,000 mm 0,0 UV-I 0 W/m -0,6 C 2,5 C 9,7 km/h (2 Bft) 100,00 %
27.02.2016 20:10 3,6 C 74 % 1006,7 hPa 0,0 l/m 6,4 km/h (2 Bft) NO 39 0 min 0,000 mm 0,0 UV-I 0 W/m -0,6 C 3,6 C 8,0 km/h (2 Bft) 100,00 %
27.02.2016 20:11 3,6 C 74 % 1006,7 hPa 0,0 l/m 6,1 km/h (2 Bft) N-NO 13 0 min 0,000 mm 0,0 UV-I 0 W/m -0,6 C 3,6 C 11,3 km/h (2 Bft) 96,67 %
27.02.2016 20:12 3,5 C 74 % 1006,6 hPa 0,0 l/m 5,5 km/h (1 Bft) NO 34 0 min 0,000 mm 0,0 UV-I 0 W/m -0,7 C 3,5 C 8,0 km/h (2 Bft) 100,00 %
27.02.2016 20:13 3,5 C 75 % 1006,7 hPa 0,0 l/m 5,2 km/h (1 Bft) NO 38 0 min 0,000 mm 0,0 UV-I 0 W/m -0,5 C 3,5 C 6,4 km/h (2 Bft) 100,00 %
27.02.2016 20:14 3,5 C 75 % 1006,7 hPa 0,0 l/m 6,3 km/h (2 Bft) NO 49 0 min 0,000 mm 0,0 UV-I 0 W/m -0,5 C 3,5 C 8,0 km/h (2 Bft) 96,15 %
27.02.2016 20:15 3,4 C 75 % 1006,6 hPa 0,0 l/m 5,8 km/h (2 Bft) NO 49 0 min 0,000 mm 0,0 UV-I 0 W/m -0,6 C 3,4 C 9,7 km/h (2 Bft) 100,00 %
27.02.2016 20:16 3,4 C 75 % 1006,7 hPa 0,0 l/m 5,8 km/h (2 Bft) N-NO 31 0 min 0,000 mm 0,0 UV-I 0 W/m -0,6 C 3,4 C 6,4 km/h (2 Bft) 100,00 %
27.02.2016 20:17 3,4 C 75 % 1006,7 hPa 0,0 l/m 4,5 km/h (1 Bft) NO 56 0 min 0,000 mm 0,0 UV-I 0 W/m -0,6 C 3,4 C 6,4 km/h (2 Bft) 100,00 %
27.02.2016 20:18 3,4 C 75 % 1006,6 hPa 0,0 l/m 4,4 km/h (1 Bft) O-NO 57 0 min 0,000 mm 0,0 UV-I 0 W/m -0,6 C 3,4 C 4,8 km/h (1 Bft) 100,00 %
27.02.2016 20:19 3,5 C 75 % 1006,7 hPa 0,0 l/m 4,8 km/h (1 Bft) NO 53 0 min 0,000 mm 0,0 UV-I 0 W/m -0,5 C 3,5 C 6,4 km/h (2 Bft) 100,00 %
27.02.2016 20:20 3,6 C 74 % 1006,7 hPa 0,0 l/m 6,9 km/h (2 Bft) O-NO 57 0 min 0,000 mm 0,0 UV-I 0 W/m -0,6 C 3,1 C 9,7 km/h (2 Bft) 100,00 %
27.02.2016 20:21 3,6 C 74 % 1006,7 hPa 0,0 l/m 5,8 km/h (2 Bft) NO 55 0 min 0,000 mm 0,0 UV-I 0 W/m -0,6 C 3,6 C 8,0 km/h (2 Bft) 100,00 %
27.02.2016 20:22 3,6 C 74 % 1006,7 hPa 0,0 l/m 7,0 km/h (2 Bft) O-NO 74 0 min 0,000 mm 0,0 UV-I 0 W/m -0,6 C 3,0 C 11,3 km/h (2 Bft) 100,00 %
27.02.2016 20:23 3,6 C 74 % 1006,7 hPa 0,0 l/m 6,9 km/h (2 Bft) O-NO 64 0 min 0,000 mm 0,0 UV-I 0 W/m -0,6 C 3,1 C 9,7 km/h (2 Bft) 100,00 %
27.02.2016 20:24 3,6 C 74 % 1006,6 hPa 0,0 l/m 8,4 km/h (2 Bft) O-NO 61 0 min 0,000 mm 0,0 UV-I 0 W/m -0,6 C 1,8 C 12,9 km/h (3 Bft) 98,45 %
27.02.2016 20:25 3,7 C 74 % 1006,7 hPa 0,0 l/m 8,8 km/h (2 Bft) NO 34 0 min 0,000 mm 0,0 UV-I 0 W/m -0,5 C 1,6 C 14,5 km/h (3 Bft) 97,73 %
27.02.2016 20:26 3,7 C 73 % 1006,7 hPa 0,0 l/m 10,1 km/h (2 Bft) O-NO 75 0 min 0,000 mm 0,0 UV-I 0 W/m -0,7 C 0,6 C 14,5 km/h (3 Bft) 100,00 %
27.02.2016 20:27 3,7 C 73 % 1006,7 hPa 0,0 l/m 10,3 km/h (2 Bft) O 82 0 min 0,000 mm 0,0 UV-I 0 W/m -0,7 C 0,4 C 14,5 km/h (3 Bft) 100,00 %
27.02.2016 20:28 3,8 C 73 % 1006,7 hPa 0,0 l/m 9,4 km/h (2 Bft) NO 49 0 min 0,000 mm 0,0 UV-I 0 W/m -0,6 C 1,2 C 12,9 km/h (3 Bft) 100,00 %
27.02.2016 20:29 3,8 C 73 % 1006,7 hPa 0,0 l/m 10,4 km/h (2 Bft) NO 51 0 min 0,000 mm 0,0 UV-I 0 W/m -0,6 C 0,5 C 14,5 km/h (3 Bft) 95,65 %
27.02.2016 20:30 3,8 C 73 % 1006,7 hPa 0,0 l/m 9,4 km/h (2 Bft) O-NO 60 0 min 0,000 mm 0,0 UV-I 0 W/m -0,6 C 1,2 C 12,9 km/h (3 Bft) 100,00 %
27.02.2016 20:31 3,8 C 73 % 1006,8 hPa 0,0 l/m 7,9 km/h (2 Bft) O-NO 78 0 min 0,000 mm 0,0 UV-I 0 W/m -0,6 C 2,4 C 12,9 km/h (3 Bft) 100,00 %
27.02.2016 20:32 3,8 C 73 % 1006,7 hPa 0,0 l/m 8,2 km/h (2 Bft) O-NO 59 0 min 0,000 mm 0,0 UV-I 0 W/m -0,6 C 2,2 C 12,9 km/h (3 Bft) 100,00 %
27.02.2016 20:33 3,8 C 73 % 1006,8 hPa 0,0 l/m 9,7 km/h (2 Bft) NO 51 0 min 0,000 mm 0,0 UV-I 0 W/m -0,6 C 1,0 C 12,9 km/h (3 Bft) 100,00 %
27.02.2016 20:34 3,8 C 73 % 1006,7 hPa 0,0 l/m 8,2 km/h (2 Bft) O-NO 59 0 min 0,000 mm 0,0 UV-I 0 W/m -0,6 C 2,2 C 9,7 km/h (2 Bft) 96,30 %
27.02.2016 20:35 3,8 C 73 % 1006,8 hPa 0,0 l/m 8,1 km/h (2 Bft) O-NO 61 0 min 0,000 mm 0,0 UV-I 0 W/m -0,6 C 2,3 C 14,5 km/h (3 Bft) 100,00 %
27.02.2016 20:36 3,8 C 73 % 1006,8 hPa 0,0 l/m 6,9 km/h (2 Bft) O-NO 63 0 min 0,000 mm 0,0 UV-I 0 W/m -0,6 C 3,3 C 9,7 km/h (2 Bft) 100,00 %
27.02.2016 20:37 3,8 C 73 % 1006,7 hPa 0,0 l/m 6,5 km/h (2 Bft) O-NO 57 0 min 0,000 mm 0,0 UV-I 0 W/m -0,6 C 3,7 C 9,7 km/h (2 Bft) 100,00 %
27.02.2016 20:38 3,8 C 73 % 1006,8 hPa 0,0 l/m 6,0 km/h (2 Bft) O-NO 59 0 min 0,000 mm 0,0 UV-I 0 W/m -0,6 C 3,8 C 8,0 km/h (2 Bft) 100,00 %
27.02.2016 20:39 3,8 C 73 % 1006,7 hPa 0,0 l/m 5,7 km/h (1 Bft) NO 50 0 min 0,000 mm 0,0 UV-I 0 W/m -0,6 C 3,8 C 8,0 km/h (2 Bft) 100,00 %
27.02.2016 20:40 3,8 C 73 % 1006,8 hPa 0,0 l/m 8,1 km/h (2 Bft) O-NO 60 0 min 0,000 mm 0,0 UV-I 0 W/m -0,6 C 2,3 C 9,7 km/h (2 Bft) 100,00 %
27.02.2016 20:41 3,8 C 73 % 1006,8 hPa 0,0 l/m 9,2 km/h (2 Bft) NO 46 0 min 0,000 mm 0,0 UV-I 0 W/m -0,6 C 1,4 C 12,9 km/h (3 Bft) 100,00 %
27.02.2016 20:42 3,8 C 73 % 1006,8 hPa 0,0 l/m 9,0 km/h (2 Bft) O-NO 57 0 min 0,000 mm 0,0 UV-I 0 W/m -0,6 C 1,5 C 12,9 km/h (3 Bft) 100,00 %
27.02.2016 20:43 3,8 C 72 % 1006,8 hPa 0,0 l/m 9,3 km/h (2 Bft) NO 49 0 min 0,000 mm 0,0 UV-I 0 W/m -0,8 C 1,3 C 12,9 km/h (3 Bft) 100,00 %
27.02.2016 20:44 3,8 C 72 % 1006,8 hPa 0,0 l/m 7,7 km/h (2 Bft) O-NO 72 0 min 0,000 mm 0,0 UV-I 0 W/m -0,8 C 2,6 C 11,3 km/h (2 Bft) 95,65 %
27.02.2016 20:45 3,8 C 72 % 1006,8 hPa 0,0 l/m 7,8 km/h (2 Bft) NO 45 0 min 0,000 mm 0,0 UV-I 0 W/m -0,8 C 2,5 C 11,3 km/h (2 Bft) 96,30 %
27.02.2016 20:46 3,8 C 72 % 1006,9 hPa 0,0 l/m 8,1 km/h (2 Bft) N-NO 31 0 min 0,000 mm 0,0 UV-I 0 W/m -0,8 C 2,3 C 9,7 km/h (2 Bft) 100,00 %
27.02.2016 20:47 3,8 C 72 % 1006,8 hPa 0,0 l/m 8,6 km/h (2 Bft) O-NO 76 0 min 0,000 mm 0,0 UV-I 0 W/m -0,8 C 1,8 C 9,7 km/h (2 Bft) 96,30 %
27.02.2016 20:48 3,8 C 72 % 1006,8 hPa 0,0 l/m 7,1 km/h (2 Bft) O-NO 58 0 min 0,000 mm 0,0 UV-I 0 W/m -0,8 C 3,2 C 9,7 km/h (2 Bft) 100,00 %
27.02.2016 20:49 3,8 C 73 % 1006,8 hPa 0,0 l/m 5,7 km/h (1 Bft) O-NO 68 0 min 0,000 mm 0,0 UV-I 0 W/m -0,6 C 3,8 C 8,0 km/h (2 Bft) 92,11 %
27.02.2016 20:50 3,8 C 73 % 1006,8 hPa 0,0 l/m 5,7 km/h (1 Bft) NO 49 0 min 0,000 mm 0,0 UV-I 0 W/m -0,6 C 3,8 C 8,0 km/h (2 Bft) 85,71 %
27.02.2016 20:51 3,8 C 73 % 1006,8 hPa 0,0 l/m 5,7 km/h (1 Bft) O-NO 59 0 min 0,000 mm 0,0 UV-I 0 W/m -0,6 C 3,8 C 8,0 km/h (2 Bft) 93,33 %
27.02.2016 20:52 3,8 C 73 % 1006,8 hPa 0,0 l/m 7,4 km/h (2 Bft) NO 55 0 min 0,000 mm 0,0 UV-I 0 W/m -0,6 C 2,9 C 9,7 km/h (2 Bft) 97,73 %
27.02.2016 20:53 3,8 C 73 % 1006,8 hPa 0,0 l/m 7,7 km/h (2 Bft) NO 55 0 min 0,000 mm 0,0 UV-I 0 W/m -0,6 C 2,6 C 9,7 km/h (2 Bft) 100,00 %
27.02.2016 20:54 3,7 C 73 % 1006,9 hPa 0,0 l/m 7,4 km/h (2 Bft) NO 52 0 min 0,000 mm 0,0 UV-I 0 W/m -0,7 C 2,8 C 8,0 km/h (2 Bft) 96,15 %
27.02.2016 20:55 3,7 C 73 % 1006,9 hPa 0,0 l/m 6,4 km/h (2 Bft) NO 38 0 min 0,000 mm 0,0 UV-I 0 W/m -0,7 C 3,7 C 8,0 km/h (2 Bft) 100,00 %
27.02.2016 20:56 3,7 C 73 % 1006,8 hPa 0,0 l/m 6,2 km/h (2 Bft) O-NO 57 0 min 0,000 mm 0,0 UV-I 0 W/m -0,7 C 3,7 C 8,0 km/h (2 Bft) 91,67 %
27.02.2016 20:57 3,6 C 73 % 1006,8 hPa 0,0 l/m 6,2 km/h (2 Bft) NO 37 0 min 0,000 mm 0,0 UV-I 0 W/m -0,8 C 3,6 C 8,0 km/h (2 Bft) 100,00 %
27.02.2016 20:58 3,5 C 74 % 1006,9 hPa 0,0 l/m 6,4 km/h (2 Bft) O-NO 59 0 min 0,000 mm 0,0 UV-I 0 W/m -0,7 C 3,5 C 9,7 km/h (2 Bft) 91,67 %
27.02.2016 20:59 3,4 C 74 % 1006,9 hPa 0,0 l/m 5,9 km/h (2 Bft) O-NO 58 0 min 0,000 mm 0,0 UV-I 0 W/m -0,8 C 3,4 C 8,0 km/h (2 Bft) 100,00 %
27.02.2016 21:00 3,4 C 74 % 1006,8 hPa 0,0 l/m 6,7 km/h (2 Bft) NO 48 0 min 0,000 mm 0,0 UV-I 0 W/m -0,8 C 3,1 C 8,0 km/h (2 Bft) 95,83 %
27.02.2016 21:02 3,3 C 75 % 1006,8 hPa 0,0 l/m 6,4 km/h (2 Bft) N-NO 24 0 min 0,026 mm 0,0 UV-I 0 W/m -0,7 C 3,3 C 8,0 km/h (2 Bft) 98,11 %
27.02.2016 21:03 3,2 C 75 % 1006,8 hPa 0,0 l/m 3,9 km/h (1 Bft) N 11 0 min 0,000 mm 0,0 UV-I 0 W/m -0,8 C 3,2 C 6,4 km/h (2 Bft) 96,15 %
27.02.2016 21:04 3,2 C 75 % 1006,8 hPa 0,0 l/m 2,5 km/h (1 Bft) N-NO 17 0 min 0,000 mm 0,0 UV-I 0 W/m -0,8 C 3,2 C 4,8 km/h (1 Bft) 100,00 %
27.02.2016 21:05 3,1 C 76 % 1006,8 hPa 0,0 l/m 0,5 km/h (0 Bft) N-NO 17 0 min 0,000 mm 0,0 UV-I 0 W/m -0,7 C 3,1 C 1,6 km/h (1 Bft) 96,15 %
27.02.2016 21:06 3,0 C 76 % 1006,8 hPa 0,0 l/m 2,5 km/h (1 Bft) N-NO 18 0 min 0,000 mm 0,0 UV-I 0 W/m -0,8 C 3,0 C 4,8 km/h (1 Bft) 100,00 %
27.02.2016 21:07 2,9 C 76 % 1006,8 hPa 0,0 l/m 2,9 km/h (1 Bft) N-NO 18 0 min 0,000 mm 0,0 UV-I 0 W/m -0,9 C 2,9 C 4,8 km/h (1 Bft) 95,65 %
27.02.2016 21:08 2,9 C 77 % 1006,8 hPa 0,0 l/m 4,4 km/h (1 Bft) N-NO 22 0 min 0,000 mm 0,0 UV-I 0 W/m -0,7 C 2,9 C 8,0 km/h (2 Bft) 100,00 %
27.02.2016 21:09 2,9 C 77 % 1006,8 hPa 0,0 l/m 4,1 km/h (1 Bft) N-NO 32 0 min 0,000 mm 0,0 UV-I 0 W/m -0,7 C 2,9 C 6,4 km/h (2 Bft) 95,65 %
27.02.2016 21:10 2,9 C 77 % 1006,8 hPa 0,0 l/m 6,0 km/h (2 Bft) N-NO 33 0 min 0,000 mm 0,0 UV-I 0 W/m -0,7 C 2,9 C 8,0 km/h (2 Bft) 100,00 %
27.02.2016 21:11 2,9 C 77 % 1006,9 hPa 0,0 l/m 6,0 km/h (2 Bft) NO 34 0 min 0,000 mm 0,0 UV-I 0 W/m -0,7 C 2,9 C 8,0 km/h (2 Bft) 96,15 %
27.02.2016 21:12 2,8 C 77 % 1006,8 hPa 0,0 l/m 5,7 km/h (1 Bft) NO 43 0 min 0,000 mm 0,0 UV-I 0 W/m -0,8 C 2,8 C 9,7 km/h (2 Bft) 96,30 %
27.02.2016 21:13 2,9 C 77 % 1006,9 hPa 0,0 l/m 6,1 km/h (2 Bft) NO 54 0 min 0,000 mm 0,0 UV-I 0 W/m -0,7 C 2,9 C 8,0 km/h (2 Bft) 98,42 %
27.02.2016 21:14 2,9 C 77 % 1006,8 hPa 0,0 l/m 4,9 km/h (1 Bft) NO 46 0 min 0,000 mm 0,0 UV-I 0 W/m -0,7 C 2,9 C 6,4 km/h (2 Bft) 100,00 %
27.02.2016 21:15 2,9 C 77 % 1006,9 hPa 0,0 l/m 5,4 km/h (1 Bft) NO 51 0 min 0,000 mm 0,0 UV-I 0 W/m -0,7 C 2,9 C 6,4 km/h (2 Bft) 100,00 %
27.02.2016 21:16 2,9 C 77 % 1006,9 hPa 0,0 l/m 4,8 km/h (1 Bft) O-NO 59 0 min 0,000 mm 0,0 UV-I 0 W/m -0,7 C 2,9 C 6,4 km/h (2 Bft) 91,67 %
27.02.2016 21:17 2,9 C 77 % 1006,8 hPa 0,0 l/m 4,0 km/h (1 Bft) NO 55 0 min 0,000 mm 0,0 UV-I 0 W/m -0,7 C 2,9 C 4,8 km/h (1 Bft) 95,65 %
27.02.2016 21:18 2,9 C 77 % 1006,9 hPa 0,0 l/m 5,2 km/h (1 Bft) O-NO 61 0 min 0,000 mm 0,0 UV-I 0 W/m -0,7 C 2,9 C 8,0 km/h (2 Bft) 95,83 %
27.02.2016 21:19 3,0 C 77 % 1006,9 hPa 0,0 l/m 5,7 km/h (1 Bft) NO 44 0 min 0,000 mm 0,0 UV-I 0 W/m -0,6 C 3,0 C 6,4 km/h (2 Bft) 100,00 %
27.02.2016 21:20 3,0 C 77 % 1006,8 hPa 0,0 l/m 4,5 km/h (1 Bft) NO 55 0 min 0,000 mm 0,0 UV-I 0 W/m -0,6 C 3,0 C 6,4 km/h (2 Bft) 100,00 %
27.02.2016 21:21 3,1 C 76 % 1006,8 hPa 0,0 l/m 4,8 km/h (1 Bft) N-NO 33 0 min 0,000 mm 0,0 UV-I 0 W/m -0,7 C 3,1 C 6,4 km/h (2 Bft) 100,00 %
27.02.2016 21:22 3,1 C 76 % 1006,9 hPa 0,0 l/m 4,8 km/h (1 Bft) NO 42 0 min 0,000 mm 0,0 UV-I 0 W/m -0,7 C 3,1 C 6,4 km/h (2 Bft) 100,00 %
27.02.2016 21:23 3,1 C 77 % 1006,9 hPa 0,0 l/m 6,5 km/h (2 Bft) NO 44 0 min 0,000 mm 0,0 UV-I 0 W/m -0,5 C 3,0 C 8,0 km/h (2 Bft) 100,00 %
27.02.2016 21:24 3,0 C 76 % 1006,8 hPa 0,0 l/m 5,1 km/h (1 Bft) N-NO 32 0 min 0,000 mm 0,0 UV-I 0 W/m -0,8 C 3,0 C 6,4 km/h (2 Bft) 100,00 %
27.02.2016 21:25 2,9 C 77 % 1006,8 hPa 0,0 l/m 5,4 km/h (1 Bft) NO 41 0 min 0,000 mm 0,0 UV-I 0 W/m -0,7 C 2,9 C 6,4 km/h (2 Bft) 100,00 %
27.02.2016 21:26 2,9 C 77 % 1006,9 hPa 0,0 l/m 6,5 km/h (2 Bft) O-NO 62 0 min 0,000 mm 0,0 UV-I 0 W/m -0,7 C 2,8 C 8,0 km/h (2 Bft) 96,55 %
27.02.2016 21:27 2,8 C 77 % 1006,9 hPa 0,0 l/m 5,4 km/h (1 Bft) NO 55 0 min 0,000 mm 0,0 UV-I 0 W/m -0,8 C 2,8 C 6,4 km/h (2 Bft) 91,67 %
27.02.2016 21:28 2,8 C 77 % 1006,9 hPa 0,0 l/m 5,9 km/h (2 Bft) NO 47 0 min 0,000 mm 0,0 UV-I 0 W/m -0,8 C 2,8 C 8,0 km/h (2 Bft) 100,00 %
27.02.2016 21:29 2,8 C 77 % 1007,0 hPa 0,0 l/m 4,8 km/h (1 Bft) NO 53 0 min 0,000 mm 0,0 UV-I 0 W/m -0,8 C 2,8 C 6,4 km/h (2 Bft) 100,00 %
27.02.2016 21:30 2,8 C 77 % 1006,9 hPa 0,0 l/m 4,9 km/h (1 Bft) O-NO 61 0 min 0,000 mm 0,0 UV-I 0 W/m -0,8 C 2,8 C 6,4 km/h (2 Bft) 96,15 %
27.02.2016 21:31 2,8 C 77 % 1006,9 hPa 0,0 l/m 4,3 km/h (1 Bft) NO 53 0 min 0,000 mm 0,0 UV-I 0 W/m -0,8 C 2,8 C 4,8 km/h (1 Bft) 100,00 %
27.02.2016 21:32 2,8 C 77 % 1006,9 hPa 0,0 l/m 4,2 km/h (1 Bft) NO 46 0 min 0,000 mm 0,0 UV-I 0 W/m -0,8 C 2,8 C 4,8 km/h (1 Bft) 100,00 %
27.02.2016 21:33 2,8 C 77 % 1006,9 hPa 0,0 l/m 3,5 km/h (1 Bft) NO 46 0 min 0,000 mm 0,0 UV-I 0 W/m -0,8 C 2,8 C 4,8 km/h (1 Bft) 100,00 %
27.02.2016 21:34 2,8 C 77 % 1006,9 hPa 0,0 l/m 4,7 km/h (1 Bft) NO 46 0 min 0,000 mm 0,0 UV-I 0 W/m -0,8 C 2,8 C 4,8 km/h (1 Bft) 96,15 %
27.02.2016 21:35 2,8 C 77 % 1006,9 hPa 0,0 l/m 4,5 km/h (1 Bft) NO 51 0 min 0,000 mm 0,0 UV-I 0 W/m -0,8 C 2,8 C 4,8 km/h (1 Bft) 100,00 %
27.02.2016 21:36 2,8 C 77 % 1006,9 hPa 0,0 l/m 3,9 km/h (1 Bft) NO 51 0 min 0,000 mm 0,0 UV-I 0 W/m -0,8 C 2,8 C 4,8 km/h (1 Bft) 100,00 %
27.02.2016 21:37 2,8 C 77 % 1006,9 hPa 0,0 l/m 4,4 km/h (1 Bft) O-NO 59 0 min 0,000 mm 0,0 UV-I 0 W/m -0,8 C 2,8 C 6,4 km/h (2 Bft) 100,00 %
27.02.2016 21:38 2,8 C 77 % 1007,0 hPa 0,0 l/m 4,4 km/h (1 Bft) O-NO 60 0 min 0,000 mm 0,0 UV-I 0 W/m -0,8 C 2,8 C 6,4 km/h (2 Bft) 100,00 %
27.02.2016 21:39 2,8 C 77 % 1006,9 hPa 0,0 l/m 6,0 km/h (2 Bft) NO 55 0 min 0,000 mm 0,0 UV-I 0 W/m -0,8 C 2,8 C 8,0 km/h (2 Bft) 100,00 %
27.02.2016 21:40 2,8 C 77 % 1006,9 hPa 0,0 l/m 4,8 km/h (1 Bft) NO 55 0 min 0,000 mm 0,0 UV-I 0 W/m -0,8 C 2,8 C 6,4 km/h (2 Bft) 100,00 %
27.02.2016 21:41 2,8 C 77 % 1006,9 hPa 0,0 l/m 5,3 km/h (1 Bft) NO 36 0 min 0,000 mm 0,0 UV-I 0 W/m -0,8 C 2,8 C 8,0 km/h (2 Bft) 100,00 %
27.02.2016 21:42 2,7 C 77 % 1006,9 hPa 0,0 l/m 6,8 km/h (2 Bft) N-NO 26 0 min 0,000 mm 0,0 UV-I 0 W/m -0,9 C 2,3 C 8,0 km/h (2 Bft) 100,00 %
27.02.2016 21:43 2,7 C 78 % 1006,9 hPa 0,0 l/m 7,0 km/h (2 Bft) NO 35 0 min 0,000 mm 0,0 UV-I 0 W/m -0,7 C 2,1 C 9,7 km/h (2 Bft) 100,00 %
27.02.2016 21:44 2,6 C 78 % 1006,9 hPa 0,0 l/m 5,1 km/h (1 Bft) NO 40 0 min 0,000 mm 0,0 UV-I 0 W/m -0,8 C 2,6 C 6,4 km/h (2 Bft) 100,00 %
27.02.2016 21:45 2,6 C 78 % 1006,9 hPa 0,0 l/m 5,8 km/h (2 Bft) N-NO 32 0 min 0,000 mm 0,0 UV-I 0 W/m -0,8 C 2,6 C 8,0 km/h (2 Bft) 96,15 %
27.02.2016 21:46 2,6 C 78 % 1006,9 hPa 0,0 l/m 4,8 km/h (1 Bft) N-NO 26 0 min 0,000 mm 0,0 UV-I 0 W/m -0,8 C 2,6 C 6,4 km/h (2 Bft) 100,00 %
27.02.2016 21:47 2,6 C 78 % 1006,9 hPa 0,0 l/m 5,2 km/h (1 Bft) N-NO 19 0 min 0,000 mm 0,0 UV-I 0 W/m -0,8 C 2,6 C 8,0 km/h (2 Bft) 95,65 %
27.02.2016 21:48 2,5 C 78 % 1006,9 hPa 0,0 l/m 6,0 km/h (2 Bft) N-NO 22 0 min 0,000 mm 0,0 UV-I 0 W/m -0,9 C 2,5 C 8,0 km/h (2 Bft) 100,00 %
27.02.2016 21:49 2,5 C 78 % 1007,0 hPa 0,0 l/m 5,5 km/h (1 Bft) N-NO 32 0 min 0,000 mm 0,0 UV-I 0 W/m -0,9 C 2,5 C 6,4 km/h (2 Bft) 98,43 %
27.02.2016 21:52 2,4 C 78 % 1007,1 hPa 0,0 l/m 3,7 km/h (1 Bft) O-NO 57 0 min 0,000 mm 0,0 UV-I 0 W/m -1,0 C 2,4 C 4,8 km/h (1 Bft) 100,00 %
27.02.2016 21:53 2,4 C 78 % 1007,1 hPa 0,0 l/m 4,2 km/h (1 Bft) O-NO 61 0 min 0,000 mm 0,0 UV-I 0 W/m -1,0 C 2,4 C 6,4 km/h (2 Bft) 100,00 %
27.02.2016 21:54 2,4 C 78 % 1007,1 hPa 0,0 l/m 3,1 km/h (1 Bft) O-NO 61 0 min 0,000 mm 0,0 UV-I 0 W/m -1,0 C 2,4 C 4,8 km/h (1 Bft) 100,00 %
27.02.2016 21:55 2,4 C 79 % 1007,1 hPa 0,0 l/m 3,0 km/h (1 Bft) O-NO 61 0 min 0,000 mm 0,0 UV-I 0 W/m -0,9 C 2,4 C 3,2 km/h (1 Bft) 100,00 %
27.02.2016 21:56 2,3 C 79 % 1007,2 hPa 0,0 l/m 2,0 km/h (1 Bft) O-NO 61 0 min 0,000 mm 0,0 UV-I 0 W/m -1,0 C 2,3 C 3,2 km/h (1 Bft) 100,00 %
27.02.2016 21:57 2,3 C 79 % 1007,1 hPa 0,0 l/m 1,7 km/h (1 Bft) O-NO 61 0 min 0,000 mm 0,0 UV-I 0 W/m -1,0 C 2,3 C 3,2 km/h (1 Bft) 100,00 %
27.02.2016 21:58 2,3 C 79 % 1007,2 hPa 0,0 l/m 2,0 km/h (1 Bft) O-NO 61 0 min 0,000 mm 0,0 UV-I 0 W/m -1,0 C 2,3 C 3,2 km/h (1 Bft) 100,00 %
27.02.2016 21:59 2,4 C 78 % 1007,2 hPa 0,0 l/m 2,8 km/h (1 Bft) O-NO 61 0 min 0,000 mm 0,0 UV-I 0 W/m -1,0 C 2,4 C 3,2 km/h (1 Bft) 100,00 %
27.02.2016 22:00 2,4 C 78 % 1007,2 hPa 0,0 l/m 3,4 km/h (1 Bft) O-NO 61 0 min 0,000 mm 0,0 UV-I 0 W/m -1,0 C 2,4 C 4,8 km/h (1 Bft) 100,00 %
27.02.2016 22:02 2,4 C 78 % 1007,2 hPa 0,0 l/m 3,4 km/h (1 Bft) O-NO 61 0 min 0,000 mm 0,0 UV-I 0 W/m -1,0 C 2,4 C 4,8 km/h (1 Bft) 100,00 %
27.02.2016 22:03 2,4 C 78 % 1007,2 hPa 0,0 l/m 2,7 km/h (1 Bft) O-NO 61 0 min 0,000 mm 0,0 UV-I 0 W/m -1,0 C 2,4 C 4,8 km/h (1 Bft) 100,00 %
27.02.2016 22:04 2,4 C 78 % 1007,2 hPa 0,0 l/m 3,4 km/h (1 Bft) O-NO 59 0 min 0,000 mm 0,0 UV-I 0 W/m -1,0 C 2,4 C 4,8 km/h (1 Bft) 100,00 %
27.02.2016 22:05 2,4 C 78 % 1007,2 hPa 0,0 l/m 3,6 km/h (1 Bft) O-NO 58 0 min 0,000 mm 0,0 UV-I 0 W/m -1,0 C 2,4 C 4,8 km/h (1 Bft) 100,00 %
27.02.2016 22:06 2,4 C 78 % 1007,2 hPa 0,0 l/m 4,0 km/h (1 Bft) O-NO 58 0 min 0,000 mm 0,0 UV-I 0 W/m -1,0 C 2,4 C 4,8 km/h (1 Bft) 100,00 %
27.02.2016 22:07 2,4 C 78 % 1007,2 hPa 0,0 l/m 4,4 km/h (1 Bft) O-NO 57 0 min 0,000 mm 0,0 UV-I 0 W/m -1,0 C 2,4 C 6,4 km/h (2 Bft) 100,00 %
27.02.2016 22:08 2,4 C 78 % 1007,1 hPa 0,0 l/m 3,6 km/h (1 Bft) O-NO 57 0 min 0,000 mm 0,0 UV-I 0 W/m -1,0 C 2,4 C 4,8 km/h (1 Bft) 100,00 %
27.02.2016 22:09 2,4 C 78 % 1007,1 hPa 0,0 l/m 4,3 km/h (1 Bft) O-NO 57 0 min 0,000 mm 0,0 UV-I 0 W/m -1,0 C 2,4 C 4,8 km/h (1 Bft) 93,75 %
27.02.2016 22:10 2,3 C 78 % 1007,2 hPa 0,0 l/m 4,3 km/h (1 Bft) NO 55 0 min 0,000 mm 0,0 UV-I 0 W/m -1,1 C 2,3 C 4,8 km/h (1 Bft) 100,00 %
27.02.2016 22:11 2,3 C 78 % 1007,1 hPa 0,0 l/m 5,6 km/h (1 Bft) N-NO 26 0 min 0,000 mm 0,0 UV-I 0 W/m -1,1 C 2,3 C 6,4 km/h (2 Bft) 100,00 %
27.02.2016 22:12 2,3 C 78 % 1007,2 hPa 0,0 l/m 3,7 km/h (1 Bft) N-NO 26 0 min 0,000 mm 0,0 UV-I 0 W/m -1,1 C 2,3 C 4,8 km/h (1 Bft) 95,65 %
27.02.2016 22:13 2,3 C 78 % 1007,2 hPa 0,0 l/m 4,4 km/h (1 Bft) N-NO 26 0 min 0,000 mm 0,0 UV-I 0 W/m -1,1 C 2,3 C 6,4 km/h (2 Bft) 100,00 %
27.02.2016 22:14 2,3 C 78 % 1007,2 hPa 0,0 l/m 4,2 km/h (1 Bft) NO 40 0 min 0,000 mm 0,0 UV-I 0 W/m -1,1 C 2,3 C 4,8 km/h (1 Bft) 100,00 %
27.02.2016 22:15 2,2 C 79 % 1007,2 hPa 0,0 l/m 4,4 km/h (1 Bft) N-NO 30 0 min 0,000 mm 0,0 UV-I 0 W/m -1,1 C 2,2 C 6,4 km/h (2 Bft) 100,00 %
27.02.2016 22:16 2,2 C 79 % 1007,2 hPa 0,0 l/m 4,7 km/h (1 Bft) NO 36 0 min 0,000 mm 0,0 UV-I 0 W/m -1,1 C 2,2 C 4,8 km/h (1 Bft) 100,00 %
27.02.2016 22:17 2,2 C 79 % 1007,2 hPa 0,0 l/m 5,3 km/h (1 Bft) NO 35 0 min 0,000 mm 0,0 UV-I 0 W/m -1,1 C 2,2 C 6,4 km/h (2 Bft) 100,00 %
27.02.2016 22:18 2,2 C 79 % 1007,2 hPa 0,0 l/m 6,4 km/h (2 Bft) N-NO 32 0 min 0,000 mm 0,0 UV-I 0 W/m -1,1 C 2,2 C 8,0 km/h (2 Bft) 100,00 %
27.02.2016 22:19 2,2 C 79 % 1007,2 hPa 0,0 l/m 6,2 km/h (2 Bft) N-NO 32 0 min 0,000 mm 0,0 UV-I 0 W/m -1,1 C 2,2 C 8,0 km/h (2 Bft) 100,00 %
27.02.2016 22:20 2,2 C 79 % 1007,3 hPa 0,0 l/m 4,4 km/h (1 Bft) NO 43 0 min 0,000 mm 0,0 UV-I 0 W/m -1,1 C 2,2 C 6,4 km/h (2 Bft) 100,00 %
27.02.2016 22:21 2,2 C 79 % 1007,3 hPa 0,0 l/m 4,1 km/h (1 Bft) NO 40 0 min 0,000 mm 0,0 UV-I 0 W/m -1,1 C 2,2 C 4,8 km/h (1 Bft) 100,00 %
27.02.2016 22:22 2,2 C 79 % 1007,3 hPa 0,0 l/m 2,9 km/h (1 Bft) NO 40 0 min 0,000 mm 0,0 UV-I 0 W/m -1,1 C 2,2 C 4,8 km/h (1 Bft) 100,00 %
27.02.2016 22:23 2,3 C 78 % 1007,3 hPa 0,0 l/m 2,3 km/h (1 Bft) NO 40 0 min 0,000 mm 0,0 UV-I 0 W/m -1,1 C 2,3 C 3,2 km/h (1 Bft) 100,00 %
27.02.2016 22:24 2,3 C 78 % 1007,3 hPa 0,0 l/m 3,0 km/h (1 Bft) NO 40 0 min 0,000 mm 0,0 UV-I 0 W/m -1,1 C 2,3 C 4,8 km/h (1 Bft) 92,59 %
27.02.2016 22:25 2,3 C 78 % 1007,2 hPa 0,0 l/m 2,9 km/h (1 Bft) NO 40 0 min 0,000 mm 0,0 UV-I 0 W/m -1,1 C 2,3 C 4,8 km/h (1 Bft) 95,65 %
27.02.2016 22:26 2,2 C 78 % 1007,3 hPa 0,0 l/m 2,4 km/h (1 Bft) NO 40 0 min 0,000 mm 0,0 UV-I 0 W/m -1,2 C 2,2 C 3,2 km/h (1 Bft) 100,00 %
27.02.2016 22:27 2,2 C 79 % 1007,3 hPa 0,0 l/m 3,0 km/h (1 Bft) NO 40 0 min 0,000 mm 0,0 UV-I 0 W/m -1,1 C 2,2 C 3,2 km/h (1 Bft) 100,00 %
27.02.2016 22:28 2,2 C 79 % 1007,3 hPa 0,0 l/m 4,1 km/h (1 Bft) NO 50 0 min 0,000 mm 0,0 UV-I 0 W/m -1,1 C 2,2 C 4,8 km/h (1 Bft) 100,00 %
27.02.2016 22:29 2,1 C 79 % 1007,2 hPa 0,0 l/m 3,9 km/h (1 Bft) NO 50 0 min 0,000 mm 0,0 UV-I 0 W/m -1,2 C 2,1 C 4,8 km/h (1 Bft) 100,00 %
27.02.2016 22:30 2,0 C 79 % 1007,2 hPa 0,0 l/m 3,6 km/h (1 Bft) NO 50 0 min 0,000 mm 0,0 UV-I 0 W/m -1,2 C 2,0 C 4,8 km/h (1 Bft) 100,00 %
27.02.2016 22:31 2,0 C 80 % 1007,2 hPa 0,0 l/m 3,5 km/h (1 Bft) NO 50 0 min 0,000 mm 0,0 UV-I 0 W/m -1,1 C 2,0 C 4,8 km/h (1 Bft) 100,00 %
27.02.2016 22:32 2,0 C 80 % 1007,2 hPa 0,0 l/m 4,2 km/h (1 Bft) NO 49 0 min 0,000 mm 0,0 UV-I 0 W/m -1,1 C 2,0 C 6,4 km/h (2 Bft) 100,00 %
27.02.2016 22:33 2,0 C 79 % 1007,2 hPa 0,0 l/m 4,7 km/h (1 Bft) NO 44 0 min 0,000 mm 0,0 UV-I 0 W/m -1,2 C 2,0 C 4,8 km/h (1 Bft) 100,00 %
27.02.2016 22:34 2,0 C 79 % 1007,2 hPa 0,0 l/m 4,0 km/h (1 Bft) NO 44 0 min 0,000 mm 0,0 UV-I 0 W/m -1,2 C 2,0 C 4,8 km/h (1 Bft) 100,00 %
27.02.2016 22:35 2,1 C 79 % 1007,2 hPa 0,0 l/m 4,1 km/h (1 Bft) NO 44 0 min 0,000 mm 0,0 UV-I 0 W/m -1,2 C 2,1 C 4,8 km/h (1 Bft) 100,00 %
27.02.2016 22:36 2,1 C 79 % 1007,2 hPa 0,0 l/m 3,6 km/h (1 Bft) NO 44 0 min 0,000 mm 0,0 UV-I 0 W/m -1,2 C 2,1 C 4,8 km/h (1 Bft) 100,00 %
27.02.2016 22:37 2,1 C 79 % 1007,2 hPa 0,0 l/m 3,5 km/h (1 Bft) NO 44 0 min 0,000 mm 0,0 UV-I 0 W/m -1,2 C 2,1 C 4,8 km/h (1 Bft) 100,00 %
27.02.2016 22:38 2,1 C 79 % 1007,2 hPa 0,0 l/m 2,7 km/h (1 Bft) NO 44 0 min 0,000 mm 0,0 UV-I 0 W/m -1,2 C 2,1 C 3,2 km/h (1 Bft) 92,31 %
27.02.2016 22:39 2,2 C 79 % 1007,2 hPa 0,0 l/m 2,9 km/h (1 Bft) NO 44 0 min 0,000 mm 0,0 UV-I 0 W/m -1,1 C 2,2 C 4,8 km/h (1 Bft) 100,00 %
27.02.2016 22:40 2,1 C 79 % 1007,2 hPa 0,0 l/m 3,0 km/h (1 Bft) NO 44 0 min 0,000 mm 0,0 UV-I 0 W/m -1,2 C 2,1 C 4,8 km/h (1 Bft) 100,00 %
27.02.2016 22:41 2,1 C 79 % 1007,3 hPa 0,0 l/m 3,4 km/h (1 Bft) NO 44 0 min 0,000 mm 0,0 UV-I 0 W/m -1,2 C 2,1 C 4,8 km/h (1 Bft) 100,00 %
27.02.2016 22:42 2,1 C 79 % 1007,3 hPa 0,0 l/m 3,7 km/h (1 Bft) NO 44 0 min 0,000 mm 0,0 UV-I 0 W/m -1,2 C 2,1 C 4,8 km/h (1 Bft) 95,65 %
27.02.2016 22:43 2,1 C 79 % 1007,3 hPa 0,0 l/m 2,7 km/h (1 Bft) NO 44 0 min 0,000 mm 0,0 UV-I 0 W/m -1,2 C 2,1 C 4,8 km/h (1 Bft) 100,00 %
27.02.2016 22:44 2,1 C 79 % 1007,3 hPa 0,0 l/m 1,0 km/h (0 Bft) NO 44 0 min 0,000 mm 0,0 UV-I 0 W/m -1,2 C 2,1 C 1,6 km/h (1 Bft) 95,65 %
27.02.2016 22:45 2,0 C 79 % 1007,2 hPa 0,0 l/m 0,8 km/h (0 Bft) NO 44 0 min 0,000 mm 0,0 UV-I 0 W/m -1,2 C 2,0 C 1,6 km/h (1 Bft) 93,33 %
27.02.2016 22:46 1,9 C 80 % 1007,3 hPa 0,0 l/m 2,1 km/h (1 Bft) NO 44 0 min 0,000 mm 0,0 UV-I 0 W/m -1,2 C 1,9 C 3,2 km/h (1 Bft) 96,15 %
27.02.2016 22:47 1,8 C 80 % 1007,3 hPa 0,0 l/m 3,0 km/h (1 Bft) NO 44 0 min 0,000 mm 0,0 UV-I 0 W/m -1,3 C 1,8 C 3,2 km/h (1 Bft) 100,00 %
27.02.2016 22:48 1,7 C 80 % 1007,3 hPa 0,0 l/m 2,7 km/h (1 Bft) NO 44 0 min 0,000 mm 0,0 UV-I 0 W/m -1,4 C 1,7 C 3,2 km/h (1 Bft) 100,00 %
27.02.2016 22:49 1,5 C 80 % 1007,3 hPa 0,0 l/m 2,5 km/h (1 Bft) NO 44 0 min 0,000 mm 0,0 UV-I 0 W/m -1,6 C 1,5 C 3,2 km/h (1 Bft) 96,30 %
27.02.2016 22:50 1,4 C 81 % 1007,3 hPa 0,0 l/m 2,2 km/h (1 Bft) NO 44 0 min 0,000 mm 0,0 UV-I 0 W/m -1,5 C 1,4 C 3,2 km/h (1 Bft) 100,00 %
27.02.2016 22:51 1,4 C 81 % 1007,3 hPa 0,0 l/m 2,1 km/h (1 Bft) NO 44 0 min 0,000 mm 0,0 UV-I 0 W/m -1,5 C 1,4 C 3,2 km/h (1 Bft) 100,00 %
27.02.2016 22:52 1,3 C 82 % 1007,3 hPa 0,0 l/m 3,5 km/h (1 Bft) NO 44 0 min 0,000 mm 0,0 UV-I 0 W/m -1,4 C 1,3 C 4,8 km/h (1 Bft) 100,00 %
27.02.2016 22:53 1,3 C 82 % 1007,2 hPa 0,0 l/m 4,7 km/h (1 Bft) NO 43 0 min 0,000 mm 0,0 UV-I 0 W/m -1,4 C 1,3 C 6,4 km/h (2 Bft) 100,00 %
27.02.2016 22:54 1,4 C 82 % 1007,2 hPa 0,0 l/m 6,1 km/h (2 Bft) N-NO 22 0 min 0,000 mm 0,0 UV-I 0 W/m -1,3 C 1,4 C 8,0 km/h (2 Bft) 98,48 %
27.02.2016 22:55 1,4 C 82 % 1007,2 hPa 0,0 l/m 6,2 km/h (2 Bft) N-NO 27 0 min 0,000 mm 0,0 UV-I 0 W/m -1,3 C 1,4 C 8,0 km/h (2 Bft) 100,00 %
27.02.2016 22:56 1,5 C 82 % 1007,2 hPa 0,0 l/m 4,7 km/h (1 Bft) N-NO 31 0 min 0,000 mm 0,0 UV-I 0 W/m -1,2 C 1,5 C 6,4 km/h (2 Bft) 100,00 %
27.02.2016 22:57 1,6 C 82 % 1007,2 hPa 0,0 l/m 4,3 km/h (1 Bft) N-NO 32 0 min 0,000 mm 0,0 UV-I 0 W/m -1,1 C 1,6 C 6,4 km/h (2 Bft) 100,00 %
27.02.2016 22:58 1,6 C 81 % 1007,2 hPa 0,0 l/m 5,3 km/h (1 Bft) N-NO 22 0 min 0,000 mm 0,0 UV-I 0 W/m -1,3 C 1,6 C 6,4 km/h (2 Bft) 95,83 %
27.02.2016 22:59 1,7 C 81 % 1007,2 hPa 0,0 l/m 3,5 km/h (1 Bft) N-NO 32 0 min 0,000 mm 0,0 UV-I 0 W/m -1,2 C 1,7 C 4,8 km/h (1 Bft) 100,00 %
27.02.2016 23:00 1,8 C 81 % 1007,2 hPa 0,0 l/m 4,7 km/h (1 Bft) NO 41 0 min 0,000 mm 0,0 UV-I 0 W/m -1,1 C 1,8 C 6,4 km/h (2 Bft) 96,30 %
27.02.2016 23:01 1,8 C 80 % 1007,2 hPa 0,0 l/m 4,3 km/h (1 Bft) NO 38 0 min 0,000 mm 0,0 UV-I 0 W/m -1,3 C 1,8 C 4,8 km/h (1 Bft) 95,65 %
27.02.2016 23:02 1,8 C 80 % 1007,3 hPa 0,0 l/m 4,0 km/h (1 Bft) NO 43 0 min 0,000 mm 0,0 UV-I 0 W/m -1,3 C 1,8 C 4,8 km/h (1 Bft) 95,83 %
27.02.2016 23:03 1,9 C 80 % 1007,2 hPa 0,0 l/m 2,7 km/h (1 Bft) NO 44 0 min 0,000 mm 0,0 UV-I 0 W/m -1,2 C 1,9 C 4,8 km/h (1 Bft) 96,15 %
27.02.2016 23:04 1,9 C 80 % 1007,3 hPa 0,0 l/m 3,0 km/h (1 Bft) NO 44 0 min 0,000 mm 0,0 UV-I 0 W/m -1,2 C 1,9 C 3,2 km/h (1 Bft) 100,00 %
27.02.2016 23:05 1,9 C 80 % 1007,3 hPa 0,0 l/m 3,3 km/h (1 Bft) NO 44 0 min 0,000 mm 0,0 UV-I 0 W/m -1,2 C 1,9 C 4,8 km/h (1 Bft) 95,65 %
27.02.2016 23:06 1,9 C 80 % 1007,3 hPa 0,0 l/m 4,1 km/h (1 Bft) NO 37 0 min 0,000 mm 0,0 UV-I 0 W/m -1,2 C 1,9 C 4,8 km/h (1 Bft) 100,00 %
27.02.2016 23:07 1,9 C 80 % 1007,3 hPa 0,0 l/m 2,6 km/h (1 Bft) NO 37 0 min 0,000 mm 0,0 UV-I 0 W/m -1,2 C 1,9 C 4,8 km/h (1 Bft) 95,65 %
27.02.2016 23:08 1,9 C 80 % 1007,3 hPa 0,0 l/m 2,5 km/h (1 Bft) NO 37 0 min 0,000 mm 0,0 UV-I 0 W/m -1,2 C 1,9 C 3,2 km/h (1 Bft) 96,30 %
27.02.2016 23:09 1,9 C 79 % 1007,3 hPa 0,0 l/m 3,5 km/h (1 Bft) NO 38 0 min 0,000 mm 0,0 UV-I 0 W/m -1,3 C 1,9 C 4,8 km/h (1 Bft) 96,15 %
27.02.2016 23:10 1,9 C 80 % 1007,3 hPa 0,0 l/m 4,1 km/h (1 Bft) NO 47 0 min 0,000 mm 0,0 UV-I 0 W/m -1,2 C 1,9 C 6,4 km/h (2 Bft) 95,83 %
27.02.2016 23:11 1,8 C 79 % 1007,3 hPa 0,0 l/m 4,1 km/h (1 Bft) NO 47 0 min 0,000 mm 0,0 UV-I 0 W/m -1,4 C 1,8 C 4,8 km/h (1 Bft) 100,00 %
27.02.2016 23:12 1,8 C 80 % 1007,3 hPa 0,0 l/m 3,6 km/h (1 Bft) NO 47 0 min 0,000 mm 0,0 UV-I 0 W/m -1,3 C 1,8 C 4,8 km/h (1 Bft) 100,00 %
27.02.2016 23:13 1,8 C 80 % 1007,3 hPa 0,0 l/m 3,4 km/h (1 Bft) NO 47 0 min 0,000 mm 0,0 UV-I 0 W/m -1,3 C 1,8 C 4,8 km/h (1 Bft) 96,15 %
27.02.2016 23:14 1,8 C 80 % 1007,3 hPa 0,0 l/m 3,3 km/h (1 Bft) NO 47 0 min 0,000 mm 0,0 UV-I 0 W/m -1,3 C 1,8 C 4,8 km/h (1 Bft) 91,67 %
27.02.2016 23:15 1,8 C 80 % 1007,3 hPa 0,0 l/m 3,3 km/h (1 Bft) NO 47 0 min 0,000 mm 0,0 UV-I 0 W/m -1,3 C 1,8 C 4,8 km/h (1 Bft) 100,00 %
27.02.2016 23:16 1,8 C 80 % 1007,3 hPa 0,0 l/m 4,0 km/h (1 Bft) NO 44 0 min 0,000 mm 0,0 UV-I 0 W/m -1,3 C 1,8 C 6,4 km/h (2 Bft) 96,30 %
27.02.2016 23:17 1,8 C 80 % 1007,2 hPa 0,0 l/m 6,6 km/h (2 Bft) NO 39 0 min 0,000 mm 0,0 UV-I 0 W/m -1,3 C 1,6 C 8,0 km/h (2 Bft) 100,00 %
27.02.2016 23:18 1,8 C 80 % 1007,3 hPa 0,0 l/m 6,1 km/h (2 Bft) NO 43 0 min 0,000 mm 0,0 UV-I 0 W/m -1,3 C 1,8 C 8,0 km/h (2 Bft) 96,15 %
27.02.2016 23:19 1,8 C 80 % 1007,2 hPa 0,0 l/m 6,6 km/h (2 Bft) NO 40 0 min 0,000 mm 0,0 UV-I 0 W/m -1,3 C 1,6 C 8,0 km/h (2 Bft) 100,00 %
27.02.2016 23:20 1,8 C 80 % 1007,2 hPa 0,0 l/m 5,8 km/h (2 Bft) NO 40 0 min 0,000 mm 0,0 UV-I 0 W/m -1,3 C 1,8 C 6,4 km/h (2 Bft) 96,15 %
27.02.2016 23:21 1,8 C 80 % 1007,3 hPa 0,0 l/m 3,8 km/h (1 Bft) NO 35 0 min 0,000 mm 0,0 UV-I 0 W/m -1,3 C 1,8 C 4,8 km/h (1 Bft) 96,30 %
27.02.2016 23:22 1,8 C 80 % 1007,3 hPa 0,0 l/m 3,5 km/h (1 Bft) NO 35 0 min 0,000 mm 0,0 UV-I 0 W/m -1,3 C 1,8 C 6,4 km/h (2 Bft) 100,00 %
27.02.2016 23:23 1,8 C 80 % 1007,3 hPa 0,0 l/m 2,2 km/h (1 Bft) NO 35 0 min 0,000 mm 0,0 UV-I 0 W/m -1,3 C 1,8 C 3,2 km/h (1 Bft) 96,30 %
27.02.2016 23:24 1,8 C 80 % 1007,3 hPa 0,0 l/m 2,8 km/h (1 Bft) NO 35 0 min 0,000 mm 0,0 UV-I 0 W/m -1,3 C 1,8 C 4,8 km/h (1 Bft) 100,00 %
27.02.2016 23:25 1,8 C 79 % 1007,2 hPa 0,0 l/m 1,9 km/h (1 Bft) NO 35 0 min 0,000 mm 0,0 UV-I 0 W/m -1,4 C 1,8 C 3,2 km/h (1 Bft) 95,83 %
27.02.2016 23:26 1,9 C 79 % 1007,3 hPa 0,0 l/m 3,0 km/h (1 Bft) NO 35 0 min 0,000 mm 0,0 UV-I 0 W/m -1,3 C 1,9 C 4,8 km/h (1 Bft) 100,00 %
27.02.2016 23:27 1,8 C 79 % 1007,3 hPa 0,0 l/m 2,3 km/h (1 Bft) NO 35 0 min 0,000 mm 0,0 UV-I 0 W/m -1,4 C 1,8 C 3,2 km/h (1 Bft) 91,67 %
27.02.2016 23:28 1,8 C 80 % 1007,3 hPa 0,0 l/m 2,5 km/h (1 Bft) NO 35 0 min 0,000 mm 0,0 UV-I 0 W/m -1,3 C 1,8 C 3,2 km/h (1 Bft) 100,00 %
27.02.2016 23:29 1,7 C 80 % 1007,3 hPa 0,0 l/m 3,0 km/h (1 Bft) NO 35 0 min 0,000 mm 0,0 UV-I 0 W/m -1,4 C 1,7 C 3,2 km/h (1 Bft) 96,30 %
27.02.2016 23:30 1,7 C 80 % 1007,2 hPa 0,0 l/m 3,5 km/h (1 Bft) NO 35 0 min 0,000 mm 0,0 UV-I 0 W/m -1,4 C 1,7 C 4,8 km/h (1 Bft) 95,65 %
27.02.2016 23:31 1,7 C 80 % 1007,2 hPa 0,0 l/m 2,9 km/h (1 Bft) NO 35 0 min 0,000 mm 0,0 UV-I 0 W/m -1,4 C 1,7 C 3,2 km/h (1 Bft) 100,00 %
27.02.2016 23:32 1,7 C 80 % 1007,2 hPa 0,0 l/m 2,7 km/h (1 Bft) NO 35 0 min 0,000 mm 0,0 UV-I 0 W/m -1,4 C 1,7 C 4,8 km/h (1 Bft) 95,65 %
27.02.2016 23:33 1,7 C 80 % 1007,3 hPa 0,0 l/m 2,9 km/h (1 Bft) NO 35 0 min 0,000 mm 0,0 UV-I 0 W/m -1,4 C 1,7 C 4,8 km/h (1 Bft) 100,00 %
27.02.2016 23:34 1,7 C 80 % 1007,3 hPa 0,0 l/m 2,7 km/h (1 Bft) NO 35 0 min 0,000 mm 0,0 UV-I 0 W/m -1,4 C 1,7 C 3,2 km/h (1 Bft) 92,31 %
27.02.2016 23:35 1,7 C 80 % 1007,3 hPa 0,0 l/m 2,7 km/h (1 Bft) NO 35 0 min 0,000 mm 0,0 UV-I 0 W/m -1,4 C 1,7 C 3,2 km/h (1 Bft) 96,30 %
27.02.2016 23:36 1,7 C 80 % 1007,3 hPa 0,0 l/m 3,4 km/h (1 Bft) NO 35 0 min 0,000 mm 0,0 UV-I 0 W/m -1,4 C 1,7 C 4,8 km/h (1 Bft) 95,65 %
27.02.2016 23:37 1,7 C 80 % 1007,2 hPa 0,0 l/m 3,5 km/h (1 Bft) NO 35 0 min 0,000 mm 0,0 UV-I 0 W/m -1,4 C 1,7 C 4,8 km/h (1 Bft) 96,30 %
27.02.2016 23:38 1,7 C 80 % 1007,2 hPa 0,0 l/m 3,8 km/h (1 Bft) NO 35 0 min 0,000 mm 0,0 UV-I 0 W/m -1,4 C 1,7 C 4,8 km/h (1 Bft) 100,00 %
27.02.2016 23:39 1,7 C 80 % 1007,3 hPa 0,0 l/m 3,6 km/h (1 Bft) NO 35 0 min 0,000 mm 0,0 UV-I 0 W/m -1,4 C 1,7 C 4,8 km/h (1 Bft) 92,31 %
27.02.2016 23:40 1,7 C 80 % 1007,3 hPa 0,0 l/m 2,4 km/h (1 Bft) NO 35 0 min 0,000 mm 0,0 UV-I 0 W/m -1,4 C 1,7 C 3,2 km/h (1 Bft) 100,00 %
27.02.2016 23:41 1,7 C 80 % 1007,4 hPa 0,0 l/m 1,9 km/h (1 Bft) NO 35 0 min 0,000 mm 0,0 UV-I 0 W/m -1,4 C 1,7 C 3,2 km/h (1 Bft) 95,65 %
27.02.2016 23:42 1,6 C 80 % 1007,4 hPa 0,0 l/m 2,1 km/h (1 Bft) NO 35 0 min 0,000 mm 0,0 UV-I 0 W/m -1,5 C 1,6 C 3,2 km/h (1 Bft) 96,30 %
27.02.2016 23:43 1,5 C 80 % 1007,4 hPa 0,0 l/m 2,1 km/h (1 Bft) NO 35 0 min 0,000 mm 0,0 UV-I 0 W/m -1,6 C 1,5 C 3,2 km/h (1 Bft) 100,00 %
27.02.2016 23:44 1,4 C 81 % 1007,4 hPa 0,0 l/m 3,0 km/h (1 Bft) NO 35 0 min 0,000 mm 0,0 UV-I 0 W/m -1,5 C 1,4 C 4,8 km/h (1 Bft) 95,83 %
27.02.2016 23:45 1,3 C 81 % 1007,3 hPa 0,0 l/m 3,3 km/h (1 Bft) NO 35 0 min 0,000 mm 0,0 UV-I 0 W/m -1,6 C 1,3 C 4,8 km/h (1 Bft) 95,65 %
27.02.2016 23:46 1,2 C 81 % 1007,3 hPa 0,0 l/m 2,4 km/h (1 Bft) NO 36 0 min 0,000 mm 0,0 UV-I 0 W/m -1,7 C 1,2 C 3,2 km/h (1 Bft) 100,00 %
27.02.2016 23:47 1,2 C 82 % 1007,4 hPa 0,0 l/m 2,3 km/h (1 Bft) NO 36 0 min 0,000 mm 0,0 UV-I 0 W/m -1,5 C 1,2 C 3,2 km/h (1 Bft) 100,00 %
27.02.2016 23:48 1,1 C 82 % 1007,4 hPa 0,0 l/m 2,9 km/h (1 Bft) NO 44 0 min 0,000 mm 0,0 UV-I 0 W/m -1,6 C 1,1 C 4,8 km/h (1 Bft) 100,00 %
27.02.2016 23:49 1,0 C 83 % 1007,4 hPa 0,0 l/m 3,1 km/h (1 Bft) NO 44 0 min 0,000 mm 0,0 UV-I 0 W/m -1,6 C 1,0 C 3,2 km/h (1 Bft) 100,00 %
27.02.2016 23:50 0,9 C 83 % 1007,4 hPa 0,0 l/m 4,4 km/h (1 Bft) O-NO 67 0 min 0,000 mm 0,0 UV-I 0 W/m -1,7 C 0,9 C 4,8 km/h (1 Bft) 96,67 %
27.02.2016 23:51 0,8 C 83 % 1007,4 hPa 0,0 l/m 4,5 km/h (1 Bft) O-NO 67 0 min 0,000 mm 0,0 UV-I 0 W/m -1,8 C 0,8 C 6,4 km/h (2 Bft) 92,86 %
27.02.2016 23:52 0,7 C 83 % 1007,4 hPa 0,0 l/m 5,4 km/h (1 Bft) O-NO 67 0 min 0,000 mm 0,0 UV-I 0 W/m -1,8 C 0,7 C 6,4 km/h (2 Bft) 100,00 %
27.02.2016 23:53 0,7 C 84 % 1007,4 hPa 0,0 l/m 4,9 km/h (1 Bft) NO 55 0 min 0,000 mm 0,0 UV-I 0 W/m -1,7 C 0,7 C 6,4 km/h (2 Bft) 100,00 %
27.02.2016 23:54 0,8 C 84 % 1007,3 hPa 0,0 l/m 4,7 km/h (1 Bft) O-NO 57 0 min 0,000 mm 0,0 UV-I 0 W/m -1,6 C 0,8 C 6,4 km/h (2 Bft) 100,00 %
27.02.2016 23:55 0,8 C 84 % 1007,3 hPa 0,0 l/m 4,3 km/h (1 Bft) O-NO 57 0 min 0,000 mm 0,0 UV-I 0 W/m -1,6 C 0,8 C 4,8 km/h (1 Bft) 100,00 %
27.02.2016 23:56 0,9 C 84 % 1007,4 hPa 0,0 l/m 3,8 km/h (1 Bft) O-NO 57 0 min 0,000 mm 0,0 UV-I 0 W/m -1,5 C 0,9 C 6,4 km/h (2 Bft) 100,00 %
27.02.2016 23:57 1,1 C 83 % 1007,3 hPa 0,0 l/m 4,4 km/h (1 Bft) O-NO 57 0 min 0,000 mm 0,0 UV-I 0 W/m -1,5 C 1,1 C 6,4 km/h (2 Bft) 100,00 %
27.02.2016 23:58 1,2 C 83 % 1007,4 hPa 0,0 l/m 3,7 km/h (1 Bft) O-NO 57 0 min 0,000 mm 0,0 UV-I 0 W/m -1,4 C 1,2 C 4,8 km/h (1 Bft) 91,67 %
27.02.2016 23:59 1,3 C 82 % 1007,4 hPa 0,0 l/m 1,9 km/h (1 Bft) O-NO 57 0 min 0,000 mm 0,0 UV-I 0 W/m -1,4 C 1,3 C 3,2 km/h (1 Bft) 100,00 %
_ Min-Zeit 07:02 15:59 16:35 - 21:05 - - - - - - 06:03 00:47 21:05 13:41
Minimum _ -1,8 C 55 % 1006,0 hPa - 0,5 km/h (0 Bft) - - - - - - -4,1 C -10,4 C 1,6 km/h (1 Bft) 83,33 %
_ Max-Zeit 15:43 06:58 00:02 00:00 00:47 - - 13:38 13:02 12:07 13:29 14:48 14:47 00:47 00:00
Maximum _ 8,7 C 85 % 1008,5 hPa 0,0 l/m 22,1 km/h
O-NO (4 Bft)
- - 3 min 0,229 mm 1,7 UV-I 582 W/m 1,7 C 8,1 C 32,2 km/h
O (5 Bft)
100,00 %
Durchschnitt _ 2,5 C 74 % 1007,0 hPa #0,0 l/m 9,7 km/h (2 Bft) NO - #5:31 h #1,575 mm 1,0 UV-I 245 W/m -1,7 C -0,5 C 13,4 km/h (3 Bft) 98,37 %